GFSMW_925_thetae_000.txt.gz
Theta_e
318 317 317 316 314 313 312 310 310 309 308 308 308 308 308 308 308 308 308 308 307 306 305 305 305 305 305 304 304 304 304 304 304 304 303 303 303 305 305 307 319 321 323
317 317 317 316 314 313 312 311 310 309 308 308 307 307 308 308 308 307 307 307 307 305 305 305 304 304 304 304 304 305 304 304 303 305 304 303 303 305 305 305 307 318 319
316 316 316 315 315 314 313 312 311 310 309 308 308 308 307 307 306 306 306 307 306 306 306 305 305 304 304 304 304 303 303 304 304 303 304 304 304 304 304 303 303 304 305
317 317 316 315 314 314 314 313 312 311 310 309 308 307 307 306 306 305 305 305 306 306 306 305 305 304 303 303 303 304 304 303 304 304 304 304 304 304 304 304 304 303 303
318 317 316 315 314 313 314 313 312 312 311 310 309 307 307 307 307 306 305 305 305 304 304 304 303 303 303 303 302 301 302 302 304 304 304 304 304 304 304 304 304 305 304
317 316 316 315 315 314 313 313 313 312 312 311 310 308 307 306 307 306 305 304 303 302 301 301 300 300 299 299 299 298 298 299 300 301 301 302 303 303 303 303 303 303 304
317 317 316 316 315 315 314 314 313 313 312 312 311 309 308 306 305 306 304 302 302 300 299 298 298 297 297 296 295 295 296 297 297 298 298 298 299 300 300 300 299 300 301
318 317 317 317 316 315 315 314 313 313 313 312 311 310 308 306 306 304 302 299 298 298 298 297 296 295 295 294 294 294 295 295 296 296 297 298 299 299 299 299 300 300 300
318 318 317 316 315 315 315 314 314 313 313 312 312 309 308 306 304 302 300 298 297 296 295 295 294 294 294 294 294 294 294 295 295 295 296 296 297 298 299 298 298 298 299
318 318 317 315 315 315 315 313 313 312 310 308 308 305 304 302 300 298 297 296 295 295 295 294 293 293 293 293 293 293 294 294 294 295 295 296 296 297 297 297 298 299 300
318 317 316 315 314 313 312 311 310 308 307 305 304 301 300 299 297 296 295 295 294 294 294 293 293 292 293 292 292 293 293 293 293 293 293 294 294 294 295 296 296 297 298
316 315 314 314 313 313 312 311 309 306 305 303 300 299 298 296 295 294 295 295 294 294 293 292 292 292 292 292 292 292 292 292 292 292 292 293 293 293 294 294 295 296 296
314 314 314 313 312 311 311 311 306 305 303 300 298 297 296 295 295 295 295 294 294 293 292 292 292 292 291 291 291 291 291 291 291 291 291 291 291 292 292 293 293 294 295
315 314 313 312 311 311 310 308 304 304 302 299 298 296 295 295 296 295 294 293 293 293 292 292 291 290 290 290 290 290 290 289 290 290 290 290 290 290 290 290 291 291 292
314 313 312 311 310 310 309 305 304 303 300 299 297 297 298 297 296 295 294 293 292 292 291 290 289 289 289 289 289 289 288 288 288 287 287 287 286 287 287 287 288 289 289
313 312 311 309 309 309 309 302 301 301 299 298 299 299 298 296 295 294 293 292 292 291 289 289 289 289 289 288 288 287 287 286 286 286 285 285 285 285 285 285 286 286 287
312 312 309 309 309 307 303 302 302 302 301 300 298 297 297 295 294 293 292 292 290 289 289 288 288 288 288 287 287 286 285 285 285 284 284 284 284 284 285 285 286 286 286
311 310 309 308 307 304 301 302 302 302 299 298 298 298 295 293 292 292 291 290 289 288 288 287 287 287 286 285 284 284 283 284 284 284 284 284 284 284 284 285 286 286 287
309 308 307 306 303 302 301 301 301 300 298 298 296 294 293 292 292 291 289 288 287 287 287 287 286 285 285 284 283 283 284 284 284 284 285 285 284 284 285 285 286 286 286
307 306 305 303 302 301 300 300 300 299 296 295 294 292 292 291 290 289 288 287 287 286 286 285 286 285 284 283 284 284 285 286 286 285 286 285 286 286 285 285 286 286 286
305 305 303 301 301 301 300 298 296 296 293 291 291 291 291 289 288 288 287 286 286 285 285 286 284 283 284 284 284 284 284 285 284 285 285 285 285 285 285 286 286 286 286
305 302 301 301 300 299 298 296 293 291 291 291 290 290 289 288 288 287 285 285 285 285 285 284 283 283 282 283 283 283 283 283 284 284 285 285 285 285 285 285 285 285 285
301 300 300 300 299 297 293 293 291 290 290 290 289 288 288 287 286 285 285 285 285 284 284 284 282 282 282 282 282 282 283 283 283 283 283 284 284 284 284 284 284 284 284
299 300 299 298 296 295 292 291 290 290 289 289 288 288 287 287 285 285 285 284 284 284 283 282 282 282 282 281 281 282 283 284 284 284 284 284 285 285 285 286 286 286 286
299 299 297 297 295 292 291 290 289 288 288 287 287 287 287 285 285 285 284 284 283 282 282 282 282 282 281 281 282 283 284 284 284 284 284 284 284 284 284 285 288 286 286
298 298 297 295 293 292 291 290 289 288 286 286 287 286 285 284 285 284 284 283 282 282 282 282 282 281 281 281 282 283 284 283 283 283 284 283 282 283 283 284 287 288 288

GFSMW_925_thetae_003.txt.gz
Theta_e
313 316 315 314 313 313 312 311 310 310 309 309 309 308 308 308 308 308 308 311 308 307 306 305 307 306 305 304 305 304 304 304 304 303 304 303 303 303 303 305 306 311 314
312 314 315 314 313 312 311 311 310 309 309 308 308 308 307 307 307 307 308 309 308 307 306 305 305 304 304 304 304 305 305 304 303 305 303 301 303 303 305 303 304 304 305
313 313 314 314 314 313 313 312 311 310 310 309 308 307 307 307 308 307 308 307 307 307 306 306 305 305 304 304 304 303 303 304 305 303 304 304 303 303 304 305 305 305 305
313 313 313 313 314 314 314 313 313 312 312 311 309 308 308 308 307 307 306 306 307 306 307 306 306 305 303 303 304 303 302 303 304 304 304 304 304 304 304 305 305 305 306
312 313 314 314 314 314 314 314 313 312 312 312 311 309 308 307 307 307 306 306 306 307 307 306 304 303 303 302 301 301 300 299 299 300 302 302 303 303 303 304 304 304 305
313 312 314 315 314 314 313 313 313 313 313 313 312 311 310 308 307 307 306 306 304 303 302 302 302 301 300 299 298 298 297 296 295 296 298 299 301 301 301 301 301 301 301
312 313 314 314 315 315 314 314 314 314 314 313 313 312 311 310 308 307 307 304 302 299 299 299 299 299 299 298 297 296 295 294 294 295 296 297 297 297 298 298 297 297 297
313 314 315 314 314 314 314 314 312 312 312 313 311 310 311 311 309 306 306 302 299 297 297 296 296 295 295 295 296 296 294 294 294 295 295 296 296 296 298 298 298 297 297
315 315 314 314 314 313 312 311 310 310 309 309 308 308 308 309 306 303 299 297 296 295 295 296 295 294 295 295 294 294 293 293 294 294 295 295 295 296 296 296 297 297 297
313 312 312 314 313 312 311 311 310 309 308 306 305 304 303 301 298 297 296 295 295 295 295 295 295 296 294 293 292 293 293 293 293 294 294 295 295 295 296 297 297 297 297
311 310 311 313 312 311 311 310 309 309 305 304 302 301 300 299 297 296 295 296 295 295 295 295 294 294 292 292 292 293 292 292 292 292 293 293 293 294 294 294 295 295 295
311 310 310 311 311 311 310 310 308 305 303 302 300 298 297 295 294 294 294 294 294 294 294 293 293 292 293 292 292 292 291 291 291 291 292 292 292 292 292 292 293 293 293
311 310 310 310 309 310 309 309 308 303 302 300 298 296 295 294 294 295 295 294 293 293 293 292 293 292 292 291 290 290 290 290 290 290 290 290 291 291 291 291 291 292 293
311 310 309 309 309 308 308 308 302 302 302 299 297 296 295 294 295 294 294 294 293 293 292 292 292 292 290 290 289 290 289 289 289 289 289 288 288 288 288 288 288 288 289
311 310 310 308 307 308 308 303 303 302 301 298 296 296 297 297 296 295 294 294 293 293 292 292 290 289 289 289 289 289 288 287 287 287 287 287 286 287 286 286 286 286 287
311 310 309 308 308 308 305 304 303 302 301 300 299 298 298 297 296 295 295 294 293 292 290 289 289 288 288 288 288 287 286 285 285 285 285 284 285 285 284 284 284 285 285
310 309 308 307 307 305 302 302 302 302 301 300 299 299 298 296 295 295 293 292 291 289 288 288 287 287 287 287 286 285 284 284 283 283 283 283 283 284 284 284 284 284 285
309 307 307 306 304 303 302 301 301 302 300 299 299 297 297 297 293 293 292 290 288 287 286 286 287 286 285 285 284 284 284 283 283 283 283 283 283 284 283 283 284 284 284
307 307 306 304 302 301 301 301 301 300 300 298 298 293 292 292 291 290 289 287 287 286 286 286 285 285 285 283 283 283 284 283 284 284 284 284 284 284 285 285 285 284 284
308 305 304 302 301 301 301 301 298 299 292 291 291 291 291 290 289 288 287 286 286 285 285 285 285 284 283 282 282 283 283 283 283 283 283 283 284 285 285 285 285 285 285
303 302 301 301 301 300 298 295 291 290 290 290 290 290 289 288 288 287 286 285 285 285 285 284 283 283 282 281 282 282 282 283 283 283 283 283 283 284 284 285 285 285 285
300 300 300 300 299 298 295 289 290 290 290 289 289 288 288 287 287 285 285 285 285 284 283 283 282 281 281 281 281 282 282 282 282 283 283 283 283 283 284 284 285 285 285
299 299 300 298 297 293 292 293 290 289 289 288 288 287 287 287 285 284 284 285 284 283 282 281 281 280 281 281 281 281 282 283 283 283 283 283 284 284 284 284 284 284 284
297 299 298 297 296 293 291 290 289 289 288 287 287 287 286 285 284 284 285 283 282 282 281 281 281 281 281 280 280 282 283 284 283 283 283 282 283 283 283 283 284 285 285
297 298 297 296 293 291 290 290 289 288 287 286 286 286 285 284 284 284 284 283 282 282 282 282 282 281 280 280 281 283 283 284 283 282 281 281 281 281 282 282 282 287 285
297 297 296 292 291 291 290 290 289 288 287 285 284 284 284 284 283 283 283 282 282 282 281 282 281 279 280 281 282 282 283 283 282 282 281 280 280 280 280 281 281 283 287

GFSMW_925_thetae_006.txt.gz
Theta_e
312 312 313 313 313 312 312 312 312 311 310 309 309 309 309 308 308 308 309 313 310 310 307 306 306 307 305 305 305 304 304 304 304 303 303 303 303 303 303 304 303 304 304
310 311 312 312 313 313 312 312 312 311 311 310 309 309 308 308 308 307 307 309 310 310 309 307 305 305 305 305 304 304 305 304 303 304 302 300 302 302 303 302 304 304 304
310 311 312 313 313 313 313 313 313 313 312 311 310 309 308 307 307 307 307 307 307 309 308 307 306 305 304 304 304 304 303 303 303 303 303 301 300 302 303 302 303 304 303
311 311 312 312 313 314 313 313 313 313 312 311 310 309 308 307 308 307 307 307 307 308 307 307 306 305 304 304 304 302 301 301 300 298 300 299 300 300 300 301 301 301 301
310 311 311 312 313 313 313 313 313 313 312 312 311 311 309 308 308 308 307 307 306 306 307 306 305 305 304 303 300 299 296 295 295 295 295 295 295 298 299 298 298 298 299
311 311 313 313 313 314 313 314 313 313 312 312 312 312 311 311 309 309 307 307 305 306 306 306 305 302 299 300 301 298 296 297 296 298 298 295 296 296 297 296 296 296 296
311 310 311 311 313 313 313 311 311 310 310 310 310 310 310 310 310 309 307 306 304 302 301 299 298 297 295 295 296 297 298 299 297 295 294 294 294 295 296 297 296 296 297
310 311 311 311 312 312 311 311 311 310 309 309 309 309 308 308 308 309 307 304 301 298 296 295 295 296 297 296 297 297 297 296 294 294 294 295 295 295 295 295 296 296 295
310 309 312 311 310 310 310 310 310 309 308 307 306 306 305 305 305 305 302 299 296 295 295 296 297 297 297 298 296 293 293 293 292 292 293 293 294 294 295 295 296 295 295
309 309 310 311 311 311 311 310 309 308 305 303 303 303 303 302 301 299 296 295 295 296 298 299 298 295 294 293 293 292 292 292 292 292 292 292 292 292 293 292 293 294 294
308 308 310 310 310 310 310 308 308 306 302 303 302 301 300 298 297 295 295 295 295 298 297 294 293 293 293 292 292 292 292 292 291 291 290 290 291 291 292 292 292 293 293
308 308 309 310 309 309 308 308 308 304 303 303 301 300 298 296 295 294 294 294 294 295 293 293 293 292 292 293 292 291 291 290 289 289 289 289 290 290 290 290 290 291 291
310 308 308 309 309 309 308 308 306 302 304 304 300 297 295 294 294 294 294 294 294 293 293 293 292 292 292 292 291 290 289 289 289 289 289 289 289 289 289 289 289 288 289
310 309 307 308 308 308 307 307 302 303 303 303 298 295 294 293 294 294 294 294 293 293 293 292 292 292 291 290 289 289 288 288 288 287 287 287 287 287 287 286 286 286 286
310 308 307 306 307 307 307 305 303 302 302 302 296 294 295 295 295 294 294 296 295 293 293 292 290 289 288 287 288 288 287 286 285 285 285 285 285 286 286 286 286 286 285
309 308 308 307 307 306 305 303 302 301 301 300 299 298 297 297 296 296 294 295 294 292 290 289 287 287 286 287 287 286 285 284 283 283 283 283 283 283 283 283 283 284 284
308 307 307 307 306 304 303 301 301 301 300 300 298 299 298 296 294 294 295 294 290 288 287 286 286 286 286 285 285 284 283 283 283 283 283 283 283 283 283 283 284 284 284
308 307 306 305 304 303 301 301 300 299 300 299 298 298 297 295 293 291 289 288 287 286 286 285 285 285 285 285 283 282 282 283 283 283 283 283 283 283 283 283 283 283 283
307 306 304 303 302 300 301 300 298 298 294 291 291 291 292 291 289 288 287 287 286 285 285 285 285 284 283 283 282 282 282 282 283 283 283 283 283 283 284 284 284 284 284
303 302 301 301 300 299 297 294 291 291 290 291 291 291 289 288 287 287 286 285 284 284 284 284 283 282 281 281 281 282 282 282 282 282 282 282 282 283 283 283 284 284 285
300 300 299 299 299 298 295 290 290 290 291 290 289 288 288 287 287 286 285 284 284 284 283 282 282 281 281 281 281 282 282 282 282 282 282 282 283 283 283 283 284 284 284
298 298 299 298 298 295 292 290 291 293 289 288 288 287 287 287 285 285 284 284 283 283 282 281 281 281 281 281 281 281 281 282 282 283 283 283 283 283 284 284 283 284 284
297 297 298 297 296 292 292 292 290 289 288 287 286 286 286 286 284 284 284 283 282 282 282 281 281 280 281 280 280 280 281 282 283 283 282 282 282 282 282 283 283 284 284
296 297 297 296 295 292 290 290 289 289 288 287 286 286 285 284 284 284 283 282 282 282 282 281 280 281 280 279 280 281 282 283 283 281 281 280 280 280 281 281 282 282 284
296 297 296 294 294 290 290 290 289 289 288 286 285 285 284 283 283 283 283 282 282 282 281 281 281 279 279 279 281 281 282 283 282 282 280 279 279 279 279 280 280 281 283
297 295 295 292 291 290 290 289 289 289 288 287 286 285 284 284 283 282 282 282 282 280 280 281 280 279 279 280 280 280 281 281 281 281 281 279 278 278 279 279 279 280 281

GFSMW_925_thetae_009.txt.gz
Theta_e
309 310 311 312 313 313 313 312 312 311 310 310 309 309 309 309 309 308 308 309 308 311 312 309 307 308 307 305 305 305 304 303 303 303 302 303 302 302 300 301 300 302 301
308 309 310 312 312 312 312 311 312 311 311 311 311 310 310 309 308 308 308 307 307 307 312 310 307 306 306 306 305 305 304 304 304 302 301 299 301 300 300 300 301 300 303
309 309 310 311 311 311 312 312 312 312 312 311 311 310 309 308 309 309 308 308 307 307 310 310 309 307 305 306 305 305 304 304 302 302 302 299 299 299 299 297 298 299 297
309 309 311 311 312 313 312 312 312 311 311 310 310 309 308 307 309 310 310 310 309 307 306 307 310 308 305 305 305 303 303 303 301 297 301 296 297 296 295 296 295 295 296
310 311 310 311 311 311 312 312 312 312 312 311 311 311 310 310 310 309 308 308 307 306 306 306 308 307 304 303 303 301 296 296 295 296 296 297 296 295 296 294 293 294 295
309 311 310 311 312 312 312 312 311 311 310 310 309 308 308 308 308 308 308 308 308 307 305 305 305 305 303 299 296 296 297 298 297 296 295 295 295 294 294 293 293 294 295
308 308 309 310 311 310 310 311 311 310 309 309 308 307 307 307 306 306 306 307 306 304 302 303 301 299 297 296 298 298 298 298 298 298 298 298 294 294 294 295 294 294 294
308 308 309 309 309 310 310 310 309 308 308 308 305 304 305 304 304 304 304 304 303 299 297 296 297 297 297 297 296 296 296 295 293 293 294 294 293 293 293 294 294 294 294
308 309 309 309 309 310 310 309 308 308 308 303 304 304 304 303 303 303 302 301 299 295 296 297 298 298 299 298 296 294 292 293 293 292 292 292 292 292 292 293 294 294 293
308 308 308 310 310 309 309 309 308 307 306 304 305 305 303 301 301 301 300 298 295 296 297 300 299 297 295 294 293 293 292 292 292 291 291 291 290 290 290 291 291 293 293
308 307 308 309 309 309 309 308 307 307 304 304 304 303 302 298 296 297 295 295 296 296 295 296 294 293 293 293 293 292 292 291 290 289 289 289 289 289 289 289 290 291 292
308 307 309 309 309 308 308 307 307 306 303 304 303 302 301 297 294 294 294 295 295 294 293 293 292 292 292 292 292 291 291 290 289 289 289 289 289 289 289 289 289 289 290
308 308 308 308 308 308 307 307 306 303 303 302 301 301 299 295 294 294 294 294 294 293 292 292 292 292 292 292 291 289 289 288 288 288 288 288 287 287 288 288 288 288 287
309 308 308 307 307 308 306 306 305 303 302 301 301 300 295 293 293 293 293 294 295 294 293 292 292 292 290 289 288 287 287 288 287 287 286 286 285 285 285 285 285 286 286
309 308 308 306 307 307 306 305 303 301 300 300 299 295 293 293 293 295 295 295 294 293 293 292 290 288 287 286 286 287 287 286 285 284 284 283 283 284 284 285 285 285 285
309 308 306 306 306 306 305 304 302 300 300 300 298 297 297 296 295 295 293 293 293 292 289 287 286 286 286 286 286 285 285 284 283 283 282 282 282 283 283 283 283 284 284
308 306 305 305 306 304 303 301 300 300 299 299 299 298 297 297 296 295 293 290 289 287 286 285 285 285 285 285 285 284 283 283 282 282 282 282 282 283 283 283 283 283 284
306 305 305 304 302 302 300 299 299 298 297 293 292 293 293 293 292 290 288 287 286 285 284 284 284 284 284 283 282 282 282 282 282 282 282 282 282 282 282 282 282 283 283
304 304 302 300 300 300 297 293 291 291 291 291 291 292 292 290 289 287 286 285 284 284 284 284 283 282 282 281 281 282 282 282 282 282 281 282 282 282 283 283 283 283 283
303 300 300 299 299 299 293 295 293 292 292 293 291 289 288 287 287 286 285 284 284 284 283 283 282 281 281 281 281 281 282 282 281 281 281 281 282 282 283 283 283 283 283
301 299 297 298 298 296 294 292 290 292 290 289 288 287 287 286 286 285 284 284 284 283 282 281 281 280 280 281 280 281 281 281 281 281 282 282 283 283 283 284 284 284 284
298 297 296 298 297 294 293 291 290 289 289 288 287 286 286 286 285 284 284 283 282 282 281 281 280 280 281 280 280 281 281 282 282 282 283 282 282 282 281 282 282 283 284
297 296 296 297 296 293 290 290 289 289 288 287 286 285 285 284 284 284 283 283 282 282 282 281 280 280 280 279 279 280 281 282 282 283 281 281 280 280 280 281 281 281 282
296 296 296 296 295 294 291 291 289 289 288 287 286 285 284 283 284 283 282 282 282 282 281 281 280 280 278 278 279 281 281 281 282 282 281 279 279 279 279 279 280 280 281
296 297 295 294 294 293 291 290 289 288 288 287 286 285 284 284 284 282 282 282 282 281 281 280 280 279 278 279 280 280 280 281 281 281 280 280 278 277 278 278 278 279 280
296 297 295 295 292 291 290 290 289 288 288 287 287 286 285 285 284 282 282 282 281 281 279 280 280 278 278 279 279 279 279 280 280 280 279 278 277 277 277 277 277 278 278

GFSMW_925_thetae_012.txt.gz
Theta_e
308 309 310 311 313 313 316 314 313 312 311 310 310 310 310 310 310 310 310 309 308 308 309 311 312 311 309 308 308 306 305 304 304 303 303 303 302 302 301 300 299 299 298
308 308 310 312 313 314 313 312 312 310 310 309 309 308 308 309 309 310 310 309 308 308 308 308 309 311 309 308 308 306 305 304 304 303 300 299 300 301 300 298 300 297 300
309 309 309 311 311 311 312 311 310 309 308 308 308 309 309 309 310 311 310 310 310 308 307 307 307 308 310 308 307 306 305 304 303 302 302 299 299 297 298 299 296 297 295
309 308 309 309 310 310 310 309 309 309 310 309 309 309 308 308 308 308 307 307 308 307 307 306 305 307 310 307 306 305 304 303 302 301 301 298 298 294 294 295 296 294 294
306 308 308 308 309 309 310 310 310 310 310 309 308 308 306 305 305 305 306 304 304 305 305 306 305 304 306 306 304 303 302 301 299 295 297 297 296 296 294 294 293 293 293
306 308 308 310 310 310 310 310 310 310 309 309 308 305 303 303 303 304 303 304 303 304 304 305 303 303 302 299 297 297 297 298 298 297 298 296 295 295 294 295 294 293 294
305 305 306 308 309 310 310 310 309 308 308 307 304 305 305 304 303 303 303 302 302 302 302 301 301 298 297 297 297 297 296 297 297 295 295 295 293 293 293 293 293 293 293
306 306 307 308 309 309 309 309 308 308 307 307 305 305 305 304 302 301 302 301 301 299 298 297 297 297 297 298 297 297 296 294 293 292 292 292 292 292 293 293 293 293 292
306 307 308 308 309 309 309 308 308 307 307 306 304 305 305 303 302 301 300 299 298 296 297 297 298 298 299 298 296 294 292 292 292 292 291 291 291 291 290 291 292 293 292
307 307 308 310 310 309 308 308 307 307 306 306 304 305 304 301 300 300 298 297 297 296 297 298 296 295 295 296 293 293 293 293 292 291 291 290 289 289 288 289 289 290 292
307 307 308 309 309 309 308 308 306 306 306 304 303 303 300 300 300 296 295 295 296 296 295 294 294 292 292 293 293 292 292 291 291 290 289 289 289 288 288 288 289 289 290
306 306 308 308 309 309 308 308 306 305 305 302 302 300 300 299 296 293 294 295 294 293 292 293 293 293 292 292 292 292 291 290 289 288 288 288 288 288 288 288 288 288 288
307 306 308 308 309 309 308 308 306 305 303 301 300 300 298 294 293 293 293 293 294 294 294 293 293 293 292 291 290 288 288 287 287 287 287 287 286 286 286 286 285 286 286
308 308 306 307 308 307 307 306 305 303 301 300 300 297 294 292 292 293 295 295 295 295 294 293 292 290 288 287 286 286 286 286 286 286 285 284 284 283 283 283 284 284 284
308 307 306 307 305 305 305 304 303 301 300 299 299 296 295 294 295 295 295 295 295 294 293 293 290 287 286 286 286 286 286 286 285 284 284 283 283 283 284 284 284 284 284
307 306 305 304 304 305 303 301 300 299 299 299 298 298 298 297 296 294 293 293 292 292 290 286 285 285 285 285 285 285 285 284 283 283 282 282 282 282 282 283 283 284 284
306 302 302 303 304 301 300 299 299 298 298 294 293 292 292 292 292 292 291 289 287 286 285 285 284 284 284 283 283 283 283 283 282 282 281 281 282 282 282 282 282 282 283
303 302 302 302 300 299 298 297 294 293 292 291 292 293 293 291 289 288 287 286 285 285 284 284 284 283 282 282 281 282 282 281 281 281 281 281 281 281 282 282 282 282 282
301 301 301 299 297 297 294 291 292 292 292 293 293 291 288 288 287 287 286 285 284 284 283 283 282 281 281 280 281 281 281 281 281 281 280 281 281 282 282 282 282 283 283
302 301 299 297 297 298 295 293 294 293 291 290 289 288 287 286 286 285 284 284 283 283 282 282 281 281 280 280 280 281 281 281 281 281 281 281 282 282 283 283 283 283 283
301 299 297 296 298 297 295 293 291 290 289 289 287 286 286 286 285 284 284 283 283 282 282 281 281 280 280 280 280 280 281 281 281 281 281 282 282 282 282 282 281 281 282
299 297 296 296 297 296 292 290 288 290 290 287 286 285 285 285 284 283 283 283 282 281 281 281 281 280 280 279 279 279 280 281 281 281 282 282 281 281 280 280 280 281 281
297 296 295 296 296 295 293 292 294 292 288 287 286 285 285 284 283 283 282 282 282 282 281 281 280 279 279 278 278 279 280 280 281 282 282 280 279 279 279 279 279 279 280
296 295 295 296 295 293 294 292 290 289 288 287 286 286 285 285 284 284 282 282 282 281 281 280 279 279 278 278 278 280 279 280 281 281 280 279 278 278 278 278 278 278 279
296 296 296 295 294 294 292 292 290 289 288 287 286 286 286 285 285 284 282 282 282 281 281 280 279 279 278 278 279 279 279 280 280 280 278 278 277 276 277 276 276 277 277
296 295 296 294 293 293 291 290 289 288 288 287 287 286 285 285 284 283 282 282 281 280 279 279 278 278 278 278 278 278 278 278 278 277 276 276 275 275 276 276 275 275 276

GFSMW_925_thetae_015.txt.gz
Theta_e
310 310 310 311 313 315 317 317 317 314 313 313 310 309 309 309 309 309 309 309 308 308 307 307 308 309 312 312 310 310 309 308 305 305 305 305 304 304 304 303 302 301 300
312 310 310 311 311 313 314 314 310 309 308 307 307 307 307 309 310 310 310 309 309 308 308 307 307 308 310 310 311 309 308 307 306 306 306 307 306 303 303 303 302 301 301
313 312 310 310 309 309 308 308 307 307 308 309 309 309 309 309 309 308 307 306 306 305 304 305 305 306 308 308 309 309 308 308 306 305 306 308 308 306 303 302 301 300 298
312 311 310 309 308 308 309 310 309 309 309 308 308 306 306 306 305 305 304 303 304 304 304 304 304 305 306 307 307 307 307 306 307 304 303 302 302 306 306 300 299 299 297
310 310 309 309 308 309 309 309 309 309 308 307 306 305 305 305 304 304 302 301 301 302 303 302 302 303 304 305 304 304 303 303 304 303 302 300 299 299 300 303 300 296 296
310 308 309 309 309 309 309 309 309 308 308 306 306 305 305 305 304 304 303 302 301 301 301 301 301 302 301 299 299 299 299 299 299 299 299 299 299 298 298 298 297 297 298
311 311 310 310 309 309 309 308 308 308 307 306 305 305 305 305 304 303 302 301 300 300 299 299 299 299 298 298 298 297 296 296 295 294 294 293 292 292 292 292 295 296 296
311 311 310 310 309 309 308 308 307 307 306 305 304 305 305 304 303 301 300 299 298 298 298 298 298 298 298 298 298 296 295 294 293 292 292 292 292 292 292 292 293 295 295
311 311 310 310 310 309 308 308 308 305 305 305 305 304 304 303 300 300 299 298 296 297 298 298 298 298 297 296 296 295 293 292 292 292 292 292 292 292 293 293 292 292 293
311 312 311 310 310 309 308 308 308 306 305 305 304 303 302 300 299 298 297 295 296 298 298 298 295 294 294 293 294 295 295 294 294 293 293 293 292 292 292 292 291 291 291
312 312 310 310 309 309 309 308 307 306 305 304 302 301 299 299 297 294 294 294 296 297 294 294 294 294 293 293 292 293 293 293 293 292 291 291 290 290 290 290 289 289 289
312 311 310 309 309 309 308 307 307 306 304 302 301 299 298 296 293 293 294 294 293 293 294 294 294 293 293 292 291 291 290 290 289 289 289 288 288 288 288 288 288 289 289
312 311 310 309 308 307 306 306 305 303 302 300 299 298 296 294 292 294 294 295 295 295 294 294 293 291 290 288 287 287 287 287 287 287 287 287 287 286 286 286 286 286 287
311 311 309 307 305 304 304 304 302 301 300 299 298 297 296 295 294 295 295 295 295 294 294 293 292 292 288 287 286 286 287 287 286 286 286 285 285 285 285 284 284 285 285
311 309 306 304 304 304 303 301 300 299 299 299 298 297 297 296 296 295 293 293 293 293 293 291 287 285 285 285 286 286 286 286 285 285 285 284 284 283 283 283 284 285 285
307 304 303 302 302 303 300 299 298 298 298 297 296 293 293 293 293 293 293 293 291 287 286 285 285 285 284 284 283 283 284 284 284 283 283 283 282 283 283 283 283 283 284
303 301 301 301 302 300 298 298 296 295 294 294 293 293 293 292 291 289 288 287 286 285 285 285 284 284 284 282 282 282 282 282 282 282 282 282 282 282 283 283 282 282 282
300 301 301 302 300 297 297 296 294 294 293 293 293 292 290 288 287 287 286 286 285 285 284 284 284 283 283 281 281 281 282 282 282 282 282 282 282 282 282 282 283 283 283
301 300 302 299 297 297 297 292 291 292 292 292 290 288 288 287 287 286 285 285 284 284 284 283 282 282 282 280 280 281 282 282 281 282 282 282 282 282 282 283 283 284 284
300 301 300 297 296 297 297 294 293 293 290 290 289 287 286 286 286 285 284 284 284 283 283 282 282 281 281 280 280 280 281 281 281 282 282 282 282 282 282 283 283 283 283
299 300 297 296 296 296 296 294 291 290 290 291 288 286 285 285 285 284 284 283 283 283 282 282 281 281 280 280 279 279 280 281 281 282 282 283 282 281 281 281 281 281 281
299 299 297 296 296 296 294 292 292 292 291 291 288 286 285 285 284 284 284 283 283 283 282 281 281 281 280 279 279 279 280 280 281 281 282 283 281 280 279 280 280 280 280
299 297 296 295 296 295 294 292 293 293 292 290 287 286 286 285 284 284 284 283 283 282 282 282 281 280 280 279 279 279 280 280 280 281 281 280 279 278 279 278 278 279 280
297 296 295 295 296 295 294 293 292 291 289 288 287 286 286 285 285 284 284 283 283 282 281 281 280 279 279 279 279 279 279 279 280 280 280 278 278 278 278 279 279 279 279
295 295 295 295 295 294 293 292 290 290 288 287 287 286 285 284 284 283 283 282 282 281 281 280 279 279 278 278 278 278 278 279 278 279 278 278 277 278 278 278 278 278 278
294 294 294 293 290 289 289 288 288 288 287 287 286 286 285 284 283 282 282 281 280 280 279 278 278 277 277 277 277 277 276 276 277 277 277 276 276 277 277 277 277 277 277

GFSMW_925_thetae_018.txt.gz
Theta_e
319 317 316 316 317 321 323 323 323 319 317 316 314 314 314 313 313 313 313 313 312 312 312 312 313 313 313 314 315 314 314 315 313 312 310 309 309 309 308 307 307 306 305
319 317 317 317 317 317 316 315 313 312 311 311 311 312 312 313 313 313 312 311 310 309 309 309 310 310 310 311 312 313 314 314 313 313 311 313 311 310 309 308 307 307 306
318 317 316 315 315 315 314 313 313 313 313 312 312 313 313 313 312 310 309 308 307 307 307 307 308 308 308 309 310 311 312 313 313 313 312 313 313 311 310 308 307 306 306
316 315 315 315 315 314 314 313 313 312 312 311 311 311 310 310 309 308 307 307 306 305 305 305 306 306 307 307 308 308 309 310 311 311 312 310 310 312 312 308 307 306 305
316 316 315 314 314 314 314 313 313 312 312 311 309 309 310 309 308 308 307 306 305 304 304 304 304 305 306 306 306 306 307 307 306 307 307 305 306 307 308 310 307 305 303
316 315 314 314 314 314 314 313 312 311 311 310 309 308 308 308 307 306 305 303 303 302 302 303 303 304 304 304 303 301 299 299 299 298 297 297 298 300 299 303 306 305 302
317 316 315 315 314 314 313 312 312 311 310 309 308 307 307 306 306 305 303 303 302 302 302 302 303 303 302 301 300 299 297 296 295 294 294 293 293 292 292 292 295 297 298
316 316 314 314 314 314 313 312 312 310 309 308 307 306 306 306 305 303 302 302 301 301 301 302 302 302 301 301 298 297 296 295 292 294 294 294 293 292 292 292 294 296 296
316 315 314 314 314 313 313 312 312 311 310 308 308 307 306 305 303 302 301 300 300 300 301 301 301 300 298 298 297 296 295 295 295 295 294 293 293 293 293 292 293 293 294
316 315 314 314 313 312 313 312 311 310 310 309 307 306 305 303 301 299 298 298 299 300 301 300 298 297 296 296 295 295 295 296 295 295 295 294 294 294 293 293 292 292 292
316 315 314 313 312 312 312 310 310 310 308 306 305 304 302 300 298 298 297 298 299 299 298 296 296 296 295 295 296 295 294 294 294 294 293 293 292 291 291 290 291 291 291
314 313 313 312 312 311 309 308 307 306 305 304 303 302 300 298 298 297 297 297 297 297 296 296 296 295 295 294 293 292 292 291 291 291 291 291 290 289 290 290 290 290 290
313 313 313 312 310 308 306 305 304 304 303 301 301 300 299 298 297 297 297 297 297 296 296 296 295 293 292 292 292 291 290 290 290 289 289 289 289 289 288 288 288 288 288
313 313 312 310 308 305 304 304 303 301 300 301 300 300 299 298 297 297 297 296 295 295 295 294 293 292 289 288 288 288 288 288 288 288 288 288 287 287 287 287 287 287 287
312 311 309 305 304 304 304 302 300 299 300 300 299 298 297 295 296 295 294 294 293 293 291 290 289 288 288 287 286 286 286 287 287 287 286 286 286 285 284 284 285 286 287
309 307 304 302 302 303 302 299 299 299 298 297 297 296 295 295 294 293 292 291 290 289 289 288 288 288 287 285 283 283 284 285 285 286 286 285 285 285 284 284 283 283 284
307 305 303 302 303 303 299 299 298 297 297 296 295 295 295 293 291 291 289 289 288 288 288 288 287 287 286 284 282 282 282 284 285 285 285 285 284 284 284 284 284 283 283
304 303 302 302 303 300 299 298 297 296 296 296 295 293 292 291 290 289 288 288 288 287 287 287 286 286 285 283 282 281 282 284 284 284 284 284 284 284 283 283 283 284 284
302 301 301 302 302 299 298 298 297 296 296 295 294 293 291 290 288 288 288 288 287 287 287 286 285 285 285 283 281 281 282 283 283 282 283 283 283 283 283 284 284 284 285
301 300 300 302 301 299 298 298 297 296 295 294 293 292 290 288 288 288 288 287 287 286 286 285 285 284 283 282 281 280 281 281 282 282 283 283 283 283 283 283 283 283 283
301 299 300 301 300 299 298 297 295 294 293 292 293 292 290 288 288 288 288 287 287 286 285 284 284 284 283 281 281 280 280 281 281 282 282 283 284 283 281 281 281 282 282
301 299 299 298 299 298 298 297 295 294 293 293 293 291 289 288 288 288 288 288 287 286 285 284 284 283 282 281 281 280 280 281 281 281 282 284 281 280 280 280 280 280 280
300 299 298 297 297 297 297 297 295 295 294 293 293 291 289 288 288 288 288 287 286 285 284 283 283 282 281 281 280 280 280 280 280 281 281 280 279 279 280 280 279 279 282
298 297 296 296 296 296 297 296 295 294 293 292 291 290 289 288 288 288 287 286 285 284 283 282 282 281 280 280 279 279 279 280 280 280 281 280 279 280 280 280 280 281 281
296 296 294 294 294 294 293 293 292 291 291 291 290 290 289 289 288 287 285 284 283 281 281 281 280 280 279 278 278 278 278 278 278 278 280 280 279 281 280 280 280 280 280
295 294 293 293 293 292 291 291 289 288 289 289 289 289 288 288 287 286 285 284 282 280 278 278 277 277 277 277 277 277 276 276 276 279 278 278 278 279 279 279 279 279 279

GFSMW_925_thetae_021.txt.gz
Theta_e
326 322 321 321 322 325 327 328 328 323 321 320 318 317 317 316 316 316 316 316 315 314 313 313 312 312 312 312 313 314 315 316 316 317 317 316 315 313 312 311 311 310 309
321 321 321 321 320 320 320 319 318 317 316 315 315 315 316 315 316 316 314 313 312 311 310 309 310 309 310 310 311 312 313 314 314 316 316 319 316 315 314 312 311 311 310
320 320 320 320 319 319 317 317 316 316 316 315 315 315 315 315 314 313 313 312 312 310 309 308 308 308 308 308 309 309 310 312 312 312 314 317 317 316 313 314 313 311 311
319 319 319 319 319 318 317 316 316 315 315 314 313 314 314 314 314 313 313 312 311 309 307 306 306 307 307 307 308 308 309 310 310 309 309 311 312 313 315 313 312 311 310
320 319 318 318 318 318 318 317 316 315 314 314 313 313 313 313 312 311 310 309 307 306 305 305 305 306 306 307 307 307 307 306 306 305 303 305 307 308 305 309 310 310 309
319 318 317 317 318 317 317 316 315 315 314 314 313 312 311 310 309 308 307 306 305 304 304 304 304 305 306 306 305 302 301 300 300 299 297 296 296 297 295 298 299 297 302
319 319 318 318 317 317 316 316 315 315 313 312 311 310 309 308 308 307 306 305 304 303 302 303 304 304 304 302 301 301 300 298 297 296 296 295 294 294 293 293 295 297 297
318 318 317 317 317 316 316 316 315 314 313 312 311 310 310 308 307 306 305 303 301 301 302 303 303 302 302 300 300 300 299 298 297 296 296 296 296 295 294 294 294 296 296
318 318 317 316 316 315 315 315 314 313 312 312 311 310 308 307 306 304 301 300 300 301 301 302 301 300 298 298 297 298 298 298 297 296 296 295 295 295 294 293 293 293 295
317 317 316 315 315 314 314 313 312 311 311 309 309 308 306 305 303 301 300 300 300 301 301 301 299 298 298 297 297 297 297 297 296 296 296 296 296 295 295 295 294 293 293
317 316 314 314 314 313 313 311 310 309 308 307 306 304 303 302 300 300 299 299 299 299 298 298 297 298 297 296 296 295 295 295 295 295 295 295 294 294 293 292 292 292 293
316 315 314 313 313 312 311 309 308 306 305 304 302 302 301 301 300 299 299 298 298 298 298 298 296 296 295 295 294 294 293 293 293 293 293 293 292 291 291 290 291 291 291
315 314 313 312 311 310 309 307 306 304 303 301 301 301 301 301 300 299 298 298 297 297 297 297 296 295 295 293 291 291 290 290 290 290 290 290 290 290 290 290 290 290 289
313 313 312 311 309 307 305 305 304 302 301 300 300 299 300 298 297 297 297 296 295 294 293 293 292 291 290 290 289 289 288 288 288 289 289 289 289 289 289 289 289 288 288
313 313 311 309 306 304 304 304 302 301 299 299 299 298 298 297 296 296 295 294 293 291 291 290 290 290 290 289 288 287 286 286 287 287 288 288 288 287 286 286 286 286 286
312 309 306 305 303 303 304 302 301 300 298 298 298 297 297 296 295 294 293 292 290 290 290 290 289 289 289 287 286 284 284 284 285 286 287 287 287 287 286 285 285 284 284
308 305 304 304 303 303 303 301 300 299 298 297 297 296 295 294 294 292 291 290 290 289 289 289 289 289 288 286 285 284 284 283 285 286 286 286 286 286 286 286 285 285 284
306 306 304 303 302 302 302 300 299 299 298 297 297 296 295 294 293 291 290 290 289 289 289 289 288 288 287 286 284 283 283 284 284 285 285 285 285 285 284 284 285 285 285
305 304 302 301 300 301 301 300 299 298 297 296 296 295 294 293 292 290 290 289 289 289 289 288 288 287 286 285 284 282 282 282 282 282 283 283 283 284 284 284 284 284 285
303 302 301 300 300 300 300 299 299 298 297 296 295 294 294 293 291 290 290 289 289 289 288 288 286 285 285 285 283 282 281 281 281 282 282 282 283 283 283 284 284 284 284
302 301 301 300 299 298 298 298 298 298 297 296 295 294 294 293 291 290 290 289 289 288 288 287 286 285 285 284 283 282 281 281 282 282 282 283 283 281 281 281 282 282 282
301 301 300 299 298 297 297 296 297 297 297 296 296 295 294 292 291 290 290 289 288 288 287 286 285 285 284 283 282 281 280 281 281 281 282 283 282 281 280 280 281 280 280
299 299 298 297 296 295 295 295 295 295 295 295 295 294 293 291 291 290 289 288 288 287 285 284 284 284 283 282 282 280 280 280 280 281 281 280 281 280 280 282 280 280 282
297 296 296 296 295 294 294 293 293 293 293 292 292 293 292 291 290 289 288 287 287 285 284 283 283 282 281 281 280 279 279 279 279 279 279 281 280 280 282 282 282 282 282
296 295 295 295 294 294 293 293 292 292 291 291 290 290 291 290 290 288 288 286 286 284 282 281 280 280 279 279 277 278 277 277 277 277 281 280 280 280 281 281 282 282 281
295 295 294 294 294 293 293 292 291 290 289 289 289 290 290 289 288 287 286 285 284 283 281 279 278 278 277 277 277 277 277 277 276 279 279 279 279 279 280 280 280 280 280

GFSMW_925_thetae_024.txt.gz
Theta_e
323 323 323 323 325 327 328 327 326 322 321 321 318 316 317 316 316 317 316 316 315 314 312 311 311 311 311 312 311 312 312 313 314 315 316 316 316 317 316 315 313 312 311
323 322 322 321 320 320 319 319 318 318 317 317 316 316 316 316 316 315 315 314 313 312 312 311 310 309 309 309 309 310 311 312 312 314 314 313 314 314 314 314 315 313 312
321 322 321 321 319 319 318 318 317 317 316 314 315 315 315 315 315 315 314 314 313 311 309 310 308 307 307 308 307 308 308 311 310 311 312 311 311 311 312 312 313 313 313
320 320 320 320 319 318 318 317 316 316 315 315 314 314 315 315 314 313 311 311 309 308 306 305 305 305 306 306 307 308 308 306 306 306 307 303 304 308 309 309 309 309 310
321 320 319 319 319 319 318 317 316 316 315 315 315 314 313 312 311 310 310 308 308 306 305 304 304 304 305 305 307 305 303 302 301 301 300 299 299 302 301 302 301 302 303
320 319 318 319 319 318 317 317 316 316 315 314 313 312 311 310 310 310 308 307 306 304 303 302 303 303 305 305 304 302 300 300 299 299 298 297 296 296 295 296 295 295 297
320 320 319 318 317 317 317 317 316 316 315 313 313 312 311 311 309 308 306 304 303 302 301 302 303 304 303 302 301 300 300 298 298 296 296 295 295 294 293 294 295 296 296
319 319 318 317 317 317 316 315 315 315 313 312 312 311 309 308 307 305 303 301 301 301 301 303 303 302 301 300 299 298 299 298 298 297 297 296 296 296 295 295 295 294 293
319 318 317 316 316 315 314 314 314 313 311 310 309 309 307 306 304 302 301 300 300 300 301 299 300 299 298 297 297 297 296 297 297 297 297 296 296 296 295 295 294 294 293
318 318 316 315 315 314 314 312 311 310 310 309 307 305 304 303 303 301 300 300 300 299 299 299 298 298 298 297 296 296 296 296 296 296 296 296 295 295 295 295 295 294 293
317 317 315 314 314 313 312 311 309 308 307 305 304 302 302 302 302 301 300 300 299 298 298 298 298 297 297 296 295 294 294 294 294 293 293 293 293 293 293 293 293 293 294
316 315 314 313 312 312 311 310 307 306 305 303 302 301 301 302 300 299 298 298 298 298 297 297 297 296 296 295 295 294 292 292 292 291 291 292 292 291 291 291 291 291 291
315 314 313 313 311 310 308 307 306 305 303 301 300 300 300 300 297 297 297 297 296 296 295 294 292 292 291 291 291 290 290 289 288 288 289 289 290 290 290 290 290 290 290
314 313 312 310 309 308 306 305 305 303 302 300 300 299 299 299 297 297 296 296 295 294 292 291 291 290 290 290 290 289 289 287 287 286 287 287 288 289 289 289 288 288 287
314 311 310 308 307 305 304 304 304 302 301 300 299 299 298 297 297 296 296 294 293 291 291 290 290 290 290 289 288 287 286 286 285 285 285 286 287 287 287 287 287 286 286
311 309 307 306 305 304 303 304 303 301 300 299 299 298 298 297 296 295 294 293 291 290 290 290 290 289 289 288 286 285 284 285 285 284 284 286 286 287 287 286 286 286 285
309 308 307 306 304 303 302 302 302 301 300 299 299 298 298 297 295 294 293 291 290 290 290 289 289 289 288 287 286 285 284 284 283 284 284 284 285 285 285 284 284 285 285
308 307 305 304 303 301 301 301 301 301 301 299 299 298 297 296 295 294 292 291 290 290 290 290 289 288 287 287 285 284 283 283 282 282 282 282 283 283 283 284 284 284 284
306 304 303 303 302 301 300 299 299 298 298 299 298 296 296 295 295 294 292 290 290 290 290 289 288 288 286 286 285 285 283 283 282 281 282 282 282 282 283 284 284 284 284
303 303 302 302 301 300 299 298 297 297 297 297 297 296 296 295 294 293 291 290 290 290 289 288 287 287 286 286 284 284 283 282 282 281 281 281 282 283 282 282 282 283 283
301 300 300 300 299 298 297 296 296 295 295 295 296 296 296 295 294 292 291 290 290 289 288 287 286 285 285 284 284 283 281 281 280 280 280 281 282 282 282 281 281 281 281
299 298 297 297 297 296 295 295 294 294 294 294 294 294 295 294 293 291 290 290 289 288 287 286 285 284 284 283 282 281 280 279 279 279 280 281 280 281 281 281 281 281 280
297 296 296 296 295 295 295 294 294 294 293 293 293 292 293 293 292 291 290 289 288 287 285 284 284 283 282 281 280 278 278 278 278 278 278 279 280 280 280 281 282 282 281
297 296 295 295 296 295 295 294 293 292 292 291 291 291 291 291 291 290 289 288 287 286 285 284 282 281 280 279 278 277 277 277 277 277 278 280 279 279 280 280 281 281 281
296 295 296 295 295 294 294 293 292 292 291 290 289 289 290 290 290 289 287 286 286 285 283 282 281 280 279 278 277 277 277 277 277 277 279 279 278 279 279 279 279 280 280
295 295 295 294 294 294 293 292 291 291 289 288 288 288 287 288 288 287 286 286 285 284 283 282 280 279 278 277 277 277 277 277 277 278 278 278 277 278 278 279 278 278 279

GFSMW_925_thetae_027.txt.gz
Theta_e
320 320 320 321 321 320 320 319 320 317 317 316 316 316 316 315 315 316 316 314 314 312 312 311 311 310 309 309 308 307 308 308 308 309 311 312 312 312 313 313 314 315 315
320 320 319 318 318 318 317 317 317 317 315 315 316 315 315 315 316 315 314 313 311 309 308 307 306 306 306 306 307 307 306 309 309 308 309 309 309 310 310 311 311 312 312
319 319 319 318 317 317 317 316 316 315 314 314 314 314 314 314 313 312 310 309 308 307 305 304 304 304 304 306 306 307 308 305 304 303 304 304 307 303 307 307 308 307 308
318 319 318 318 318 317 317 316 316 316 315 315 315 314 314 312 311 310 309 308 307 305 305 303 302 302 303 303 305 306 306 305 300 299 299 299 300 300 301 305 303 304 301
315 316 318 319 318 318 317 316 316 315 315 314 314 313 312 310 310 309 308 306 306 305 302 301 300 301 303 304 305 304 302 301 300 298 298 297 297 299 297 298 298 296 297
314 316 318 318 318 317 317 317 316 316 314 313 313 312 311 311 309 307 306 304 303 301 300 300 302 303 303 303 302 301 300 299 298 297 297 296 295 294 294 294 293 294 295
313 313 315 317 318 317 317 316 316 315 313 312 311 310 309 307 306 304 302 301 301 299 299 302 301 301 301 300 300 299 298 298 298 298 297 296 295 294 293 293 293 293 294
314 314 315 316 316 315 314 314 314 313 311 310 309 308 306 305 304 302 301 300 299 299 300 299 300 300 299 298 298 298 296 297 296 297 297 297 296 296 295 294 294 293 292
314 314 314 314 313 313 313 312 311 310 309 307 305 304 303 302 302 302 300 301 300 299 298 298 298 298 298 297 297 296 296 296 295 295 296 296 296 295 294 293 293 294 293
313 311 313 313 313 313 312 311 310 308 306 304 303 302 301 302 302 301 299 299 299 298 298 298 298 297 297 297 297 296 294 293 294 293 293 293 293 291 292 292 293 293 292
311 311 312 312 311 311 311 309 307 306 304 303 302 301 300 301 301 301 297 296 296 297 297 296 296 296 294 294 294 294 293 293 293 292 291 290 290 291 291 292 292 291 291
310 310 312 311 309 309 308 307 305 305 303 302 301 300 300 300 300 299 296 295 297 296 295 294 292 291 291 291 291 291 290 289 288 288 287 287 287 287 288 289 289 289 290
309 308 308 308 308 307 306 305 304 303 302 301 300 299 299 299 299 297 297 297 296 295 293 291 290 290 290 290 290 290 289 288 288 287 286 285 285 285 286 287 288 289 289
309 307 306 306 306 306 304 303 304 303 303 301 300 299 299 299 298 297 296 296 295 294 291 290 290 290 289 289 288 288 287 286 285 285 285 284 284 285 286 287 287 287 287
308 307 305 306 306 304 303 303 303 302 302 301 300 299 299 298 297 296 296 295 294 292 290 290 289 289 289 289 288 287 286 286 285 284 283 283 284 285 286 286 286 286 286
308 306 306 306 305 303 302 300 300 302 301 300 300 300 298 297 298 297 295 294 292 290 290 289 289 289 289 288 287 286 286 284 283 283 281 282 283 283 283 283 284 284 284
306 305 305 305 303 302 301 300 299 298 297 297 299 297 297 297 297 295 293 293 291 290 290 289 289 289 288 287 286 285 285 284 283 282 281 281 281 281 282 282 282 283 284
305 304 304 303 302 301 299 298 297 296 296 297 296 297 296 296 295 295 294 293 290 290 290 289 289 288 287 286 285 285 285 284 283 283 282 281 281 282 282 282 283 283 283
304 303 301 300 299 298 297 296 295 295 295 295 296 296 296 295 295 294 292 291 290 290 289 289 288 287 285 285 284 284 284 282 281 281 280 280 281 281 282 282 282 281 282
300 298 296 296 296 296 295 295 295 294 294 294 294 293 294 295 294 293 292 290 290 290 288 287 286 284 284 284 284 283 282 280 280 280 279 280 280 281 281 282 282 281 281
297 296 296 295 295 295 295 295 294 293 293 293 292 292 292 292 293 292 291 290 290 288 287 286 284 283 283 282 282 281 279 279 279 278 278 279 280 280 281 281 281 281 281
296 296 295 295 295 295 295 294 294 293 292 292 292 291 291 291 292 292 291 290 288 287 286 284 283 283 282 280 280 279 278 278 278 278 278 278 279 280 280 280 282 282 282
296 296 295 295 295 294 294 294 293 292 292 291 290 290 289 290 291 291 290 287 286 286 285 284 283 282 280 279 277 277 277 277 277 278 278 279 279 279 279 280 280 281 280
294 294 294 294 294 294 294 293 292 291 291 290 289 288 288 289 290 288 287 286 285 285 284 283 282 281 280 278 278 277 277 277 278 277 278 278 278 278 279 278 278 279 279
294 294 294 294 294 293 293 292 292 291 290 289 288 287 286 287 288 287 286 285 285 284 284 283 282 280 279 278 278 278 277 278 278 277 277 277 277 277 278 277 278 278 279
293 293 293 294 293 292 291 291 291 290 290 288 287 286 285 286 286 286 285 285 284 284 283 283 282 281 278 278 279 278 278 277 277 276 276 276 276 276 276 276 277 277 278

GFSMW_925_thetae_033.txt.gz
Theta_e
315 316 317 319 323 327 327 324 324 325 322 316 316 314 312 312 312 311 311 311 310 309 308 307 306 304 303 300 300 301 301 303 304 305 304 303 305 301 302 298 300 300 302
314 314 316 317 317 317 315 315 315 315 315 314 314 314 313 311 311 310 310 309 308 307 306 305 305 304 301 300 301 303 304 305 304 302 301 299 300 301 298 299 298 298 297
315 315 315 315 315 315 315 314 314 314 314 314 314 313 312 311 310 309 307 306 305 304 303 302 300 299 299 302 303 303 303 303 301 300 298 297 297 297 298 297 298 296 295
316 316 314 314 315 315 315 315 314 314 314 314 314 313 313 311 309 307 306 305 304 303 301 299 298 298 299 300 300 301 301 300 299 298 298 297 297 294 294 296 295 295 294
314 314 315 315 314 314 314 314 314 314 314 313 313 312 311 310 308 307 306 304 302 301 299 299 299 299 298 298 299 300 299 298 298 297 297 296 296 294 294 294 293 294 293
315 315 315 315 315 314 314 314 314 313 312 312 312 311 310 309 307 305 304 303 301 300 299 299 299 298 298 298 298 299 298 297 296 296 296 295 295 294 293 294 294 294 294
313 312 314 315 315 315 314 314 313 312 311 310 309 309 308 306 305 303 302 301 300 300 299 299 298 298 297 297 298 297 296 296 296 295 295 295 295 295 295 294 293 293 293
312 313 314 314 314 313 313 312 311 310 309 308 307 305 303 302 302 302 301 300 300 300 299 296 297 296 296 297 296 296 295 294 293 293 293 293 293 293 293 292 292 291 292
310 309 310 311 311 311 310 309 309 308 307 304 302 302 302 302 301 301 300 300 300 299 296 296 297 296 296 296 295 294 293 293 292 292 292 293 292 289 288 287 290 291 291
309 307 308 309 310 310 308 308 308 307 304 304 304 303 301 301 301 300 300 300 299 297 295 296 296 295 294 293 294 293 292 293 292 292 291 290 287 287 286 286 285 286 289
307 306 306 306 306 306 305 306 306 305 304 303 302 302 302 301 300 300 299 299 298 296 296 296 295 293 291 290 290 290 290 290 289 288 287 287 286 286 286 286 285 284 285
306 305 305 305 305 304 304 305 304 304 303 303 302 300 299 299 299 299 299 298 298 296 296 295 294 293 291 290 289 289 289 288 287 287 286 286 286 285 284 283 284 284 285
305 304 304 304 304 304 303 302 302 303 301 301 300 300 299 298 298 297 297 297 297 296 296 294 292 291 290 289 289 288 288 287 286 286 285 284 284 282 282 282 283 284 285
305 305 304 304 304 304 302 300 299 298 297 297 297 297 297 296 294 294 294 295 296 296 294 294 292 290 289 289 288 287 287 286 285 284 284 283 282 281 282 282 283 283 283
306 305 304 303 302 301 299 298 297 296 296 296 296 296 295 294 294 294 295 295 296 295 294 293 291 289 288 288 287 286 286 285 284 284 284 283 282 283 282 281 281 281 282
306 304 302 300 298 297 297 296 296 295 295 295 295 295 294 294 294 293 293 295 295 294 293 291 288 289 288 287 287 286 285 284 284 284 283 282 282 281 281 281 281 281 282
304 302 299 297 296 296 295 295 295 294 294 295 295 294 294 293 293 292 291 292 293 294 290 289 289 288 286 285 285 285 284 284 283 281 280 280 280 279 279 279 280 281 281
302 297 296 295 295 295 294 294 294 294 294 294 293 293 292 292 291 291 292 291 290 290 290 289 287 285 284 284 283 283 281 280 279 278 278 278 278 279 279 280 280 281 280
298 295 295 295 294 294 294 294 293 292 293 293 292 292 291 291 290 291 290 290 290 289 288 287 285 284 283 282 282 281 279 278 277 278 277 278 278 278 279 280 280 280 281
295 294 294 294 294 294 293 293 293 293 293 292 292 291 290 290 289 291 290 289 289 288 287 285 283 283 281 280 280 279 278 277 277 277 277 278 278 279 280 280 280 280 281
294 294 293 293 293 293 293 293 293 292 292 292 291 290 289 289 289 291 289 289 288 287 285 284 283 281 280 279 279 278 278 277 277 277 277 278 279 279 279 279 279 280 280
293 293 293 293 293 293 293 293 292 292 291 291 290 289 288 288 289 290 289 287 286 285 284 283 282 281 280 279 278 279 278 278 278 277 277 278 278 278 278 278 278 279 279
293 293 292 292 292 292 293 292 292 291 291 290 289 288 287 286 288 287 287 286 285 284 283 283 282 281 280 279 278 279 278 277 277 277 277 277 277 277 277 277 277 277 278
292 292 291 291 291 292 292 292 291 290 290 289 289 288 286 285 286 286 285 284 284 283 283 283 282 282 281 279 279 279 278 277 276 275 275 275 275 275 275 275 276 276 277
291 291 291 290 291 291 290 289 289 290 289 288 288 288 286 284 285 285 285 284 283 283 283 283 283 282 281 279 279 279 277 276 275 274 274 274 274 274 274 274 274 274 274
290 291 290 290 290 289 288 288 288 289 288 287 288 287 286 284 284 284 284 283 283 283 283 282 282 282 281 279 279 278 277 276 274 273 274 273 273 273 273 273 273 273 272

GFSMW_925_thetae_036.txt.gz
Theta_e
314 316 322 326 327 328 329 328 327 322 315 314 313 313 313 313 312 311 310 309 308 308 307 306 305 304 302 300 300 301 302 304 303 302 299 300 302 298 299 297 297 297 297
313 315 318 319 319 319 320 320 318 315 315 314 313 313 312 311 310 309 308 307 307 306 305 304 303 299 297 296 299 301 302 302 300 299 298 297 298 299 297 297 297 296 295
315 316 315 314 313 313 314 314 314 314 314 314 314 313 312 310 309 308 307 306 305 305 304 302 299 297 297 297 297 298 300 300 299 298 298 296 295 295 296 296 296 295 295
315 314 313 313 314 314 314 314 314 314 314 314 313 312 312 311 309 308 306 305 305 303 302 299 298 298 298 297 297 297 298 299 298 297 297 297 296 294 294 295 294 294 294
313 312 313 313 313 314 314 314 314 314 313 313 313 312 312 310 308 306 306 305 303 301 300 299 299 299 298 298 298 298 299 298 297 297 296 296 295 295 294 295 294 294 294
314 313 313 314 313 313 314 313 313 313 313 312 312 311 310 309 307 306 305 303 300 299 299 299 299 298 297 297 297 298 298 297 296 295 295 295 294 294 294 294 293 293 293
313 312 313 313 313 314 313 312 312 312 311 310 310 309 308 307 306 304 303 301 300 299 299 299 299 296 296 296 297 297 296 296 295 294 293 294 293 293 293 293 292 292 290
312 313 314 314 314 312 313 312 312 310 309 308 307 306 305 304 303 302 301 300 300 299 299 299 298 296 296 295 295 295 294 294 293 293 292 292 292 292 291 291 291 288 289
311 309 310 310 310 310 309 309 310 309 308 307 305 304 302 302 301 301 300 300 299 299 299 298 296 297 296 296 296 295 293 293 292 292 292 292 292 289 287 286 286 289 287
307 306 307 308 308 307 307 307 308 307 305 303 302 302 302 301 300 300 300 299 299 298 298 296 296 296 296 294 293 293 293 291 291 291 290 289 288 287 286 286 285 285 286
305 304 305 305 305 305 305 306 306 305 304 303 302 301 300 299 299 299 299 298 298 297 297 295 295 294 294 292 291 291 289 289 289 288 287 287 286 286 286 285 284 283 283
304 303 304 304 304 304 304 305 304 304 302 301 301 300 299 298 298 296 295 294 293 293 295 295 295 295 293 292 290 289 289 288 287 287 286 286 285 284 284 282 282 282 282
304 303 303 303 304 303 302 301 300 301 299 298 297 296 297 296 294 293 293 293 294 294 295 294 293 293 293 291 290 288 288 286 286 286 285 284 284 283 282 281 282 281 282
304 303 303 303 303 302 300 298 297 297 296 295 295 296 295 294 293 293 293 292 292 294 294 294 294 292 291 290 288 288 286 286 286 285 284 284 283 283 282 282 282 281 281
305 304 302 302 301 298 297 297 296 295 295 295 295 295 294 293 293 292 292 291 290 292 294 293 292 290 288 288 288 286 286 285 284 284 284 283 282 283 282 282 282 281 280
304 303 301 299 297 296 296 295 295 294 294 294 295 295 294 293 292 292 291 291 291 291 293 292 288 289 289 286 286 286 285 284 283 282 281 280 279 280 280 280 280 280 280
303 302 297 296 296 295 295 294 294 294 294 293 294 293 293 292 291 291 290 291 290 290 290 289 289 288 286 285 284 283 282 281 280 279 278 278 278 278 278 278 279 280 280
301 298 296 295 295 294 294 294 293 293 293 293 293 292 292 291 290 290 290 290 290 289 289 288 287 285 284 283 282 281 280 279 278 277 277 277 277 278 279 280 280 280 280
300 295 295 294 294 294 293 293 293 293 292 293 292 291 291 290 289 289 290 289 289 288 287 286 285 283 282 281 281 280 279 277 277 277 277 278 278 278 280 280 280 280 280
295 294 294 293 293 293 293 293 292 292 292 292 291 291 290 289 288 289 289 288 288 288 286 285 284 283 281 280 279 279 278 278 278 277 277 277 278 279 279 280 279 279 280
294 293 293 293 293 293 292 292 292 292 292 291 291 290 289 288 288 288 288 288 288 287 285 284 283 282 281 280 279 279 279 278 278 277 277 277 278 278 278 278 278 279 278
293 292 292 292 292 292 292 292 292 292 291 290 290 290 289 288 286 288 288 287 286 285 284 284 282 281 281 280 278 279 279 278 277 276 276 277 277 277 277 277 277 277 277
292 292 292 291 291 291 291 291 291 291 290 290 289 289 288 287 286 286 286 286 285 284 283 283 282 282 281 280 278 279 278 277 276 275 275 275 275 275 275 275 276 276 276
291 291 291 290 290 290 291 290 289 288 289 289 289 288 287 287 285 285 285 285 284 283 283 283 283 282 282 280 279 279 278 276 276 274 274 274 274 273 273 273 274 274 274
291 290 290 289 289 290 289 288 288 288 289 288 287 287 287 286 284 284 284 284 283 283 283 283 283 282 282 280 279 279 278 276 275 273 274 273 273 272 272 272 272 272 271
290 290 289 289 289 288 287 287 287 287 287 288 287 287 287 286 284 284 283 283 283 282 282 282 282 282 282 280 279 279 277 276 275 273 272 273 272 272 272 271 271 270 269

GFSMW_925_thetae_039.txt.gz
Theta_e
318 321 322 325 326 326 326 326 326 326 324 320 314 313 312 310 310 310 309 308 307 307 307 306 304 301 298 296 298 301 302 301 301 301 299 299 303 301 299 298 298 297 297
322 321 321 323 326 326 326 327 326 323 320 316 313 312 311 309 309 308 307 306 306 306 305 303 300 297 299 299 299 300 299 300 300 299 299 299 298 300 299 297 297 297 296
322 319 317 318 321 322 323 322 318 318 316 314 313 311 310 308 308 306 306 306 306 304 302 299 298 297 298 299 299 299 299 299 299 299 298 299 298 298 297 296 297 296 296
318 316 314 313 313 313 314 314 315 314 313 312 312 311 311 312 309 307 306 306 304 301 299 299 298 298 297 298 298 298 299 299 298 297 297 298 297 296 296 295 295 294 295
318 316 314 313 312 312 312 312 312 312 312 312 312 312 311 310 308 307 306 304 301 300 299 299 299 299 298 298 298 298 299 298 298 297 296 296 295 295 295 295 294 293 294
316 314 313 313 312 312 313 313 313 313 313 312 312 311 310 309 308 307 304 302 300 300 299 299 299 299 298 298 298 298 298 298 297 296 295 294 294 294 293 293 293 293 292
317 316 314 313 313 313 313 313 313 312 311 311 310 309 307 306 305 303 302 301 300 300 299 299 299 299 298 297 297 298 297 296 296 295 294 294 293 293 293 292 291 292 290
317 316 315 314 314 313 313 311 311 310 310 309 307 305 304 303 302 302 301 300 300 299 299 299 298 298 296 297 296 296 295 294 294 294 293 293 293 293 292 291 291 291 290
316 316 315 314 312 311 311 310 310 309 308 306 305 304 303 302 301 301 300 300 299 298 298 298 297 297 296 297 296 296 294 294 293 292 293 292 292 291 289 289 288 288 290
314 312 311 310 309 308 307 307 308 307 306 304 303 302 300 299 299 299 299 298 296 293 293 293 294 296 296 296 295 294 293 293 292 292 291 290 289 288 288 287 287 287 287
312 309 307 306 305 304 305 305 306 304 303 302 301 300 299 298 298 297 294 293 293 293 293 293 294 295 295 293 293 292 291 291 290 289 288 288 287 287 287 286 286 285 285
308 306 305 305 304 303 304 304 303 302 302 300 298 297 296 296 295 293 293 293 293 292 293 294 294 294 293 292 292 291 290 289 288 287 287 287 286 286 286 285 284 284 284
307 306 305 304 304 302 301 302 301 299 297 296 295 295 295 295 293 293 293 292 293 292 292 294 294 293 293 292 291 290 288 287 286 286 286 286 285 285 285 284 284 283 283
307 306 305 304 303 301 300 298 297 296 295 294 294 295 295 294 293 293 292 292 292 292 292 294 293 292 291 291 289 288 286 286 287 286 285 285 284 284 283 283 283 283 283
307 306 305 303 301 299 298 296 296 295 294 294 294 295 295 294 293 292 292 291 291 291 291 292 292 290 288 287 287 287 287 286 285 284 283 282 282 281 281 281 281 281 281
307 305 303 300 298 297 296 295 294 294 294 293 294 295 294 293 292 292 291 291 291 290 290 290 289 288 287 286 286 286 285 283 282 281 280 280 279 279 279 279 279 279 280
305 304 301 298 297 296 294 294 294 294 293 293 294 293 292 292 291 291 290 290 290 290 289 289 289 287 286 285 284 283 282 281 280 279 279 279 279 279 279 279 280 281 281
304 302 298 296 295 294 294 294 293 293 292 292 293 292 292 291 290 290 289 290 289 289 289 288 286 285 284 283 282 281 281 280 279 279 279 279 279 279 279 281 280 281 280
303 299 296 295 294 294 293 293 293 292 292 292 292 291 291 290 289 289 289 289 288 288 288 286 285 284 283 282 281 280 280 280 279 279 279 279 278 278 279 279 280 280 280
297 294 294 293 293 293 293 292 291 291 292 291 291 291 290 289 289 288 288 288 288 287 286 285 284 283 282 281 280 280 280 280 279 279 278 278 278 278 278 279 279 279 279
293 293 293 293 292 292 292 291 291 292 291 291 290 290 289 289 288 287 288 289 288 286 286 284 284 283 281 281 280 279 280 280 279 278 278 277 277 277 277 277 278 278 278
292 292 292 292 292 291 291 291 291 291 291 290 289 289 289 288 288 287 287 287 286 285 285 284 283 282 282 281 280 279 279 279 278 278 277 276 276 276 276 276 276 276 276
292 292 292 291 291 290 290 291 291 290 289 288 289 289 288 288 287 286 286 286 286 285 284 284 283 283 282 281 280 279 279 278 277 277 275 275 274 274 275 274 275 275 275
292 291 291 290 290 289 290 289 289 288 288 288 289 288 287 287 287 285 285 285 285 284 284 283 283 283 282 282 280 279 280 278 277 276 275 274 274 273 274 274 274 274 273
291 290 290 290 289 289 289 288 287 287 287 288 288 288 287 287 287 285 285 284 284 284 283 283 283 283 283 282 280 280 280 278 277 275 274 274 274 274 274 274 273 272 272
290 290 290 289 289 289 288 287 287 287 287 287 288 288 288 287 286 285 285 284 283 283 282 282 282 282 282 282 281 280 279 277 276 275 275 274 273 273 273 273 273 272 271

GFSMW_925_thetae_045.txt.gz
Theta_e
327 329 329 329 328 331 332 330 328 325 327 327 323 322 319 316 314 314 313 313 312 312 311 310 308 307 305 305 304 304 303 303 302 302 302 302 302 302 303 303 303 302 301
330 330 332 331 332 332 331 330 328 328 329 326 323 320 317 316 315 314 313 313 312 310 308 308 307 306 305 304 304 304 303 302 301 301 301 303 301 301 301 301 300 300 299
332 333 333 333 331 330 330 330 330 327 324 320 318 318 317 316 314 314 313 312 310 308 307 307 306 305 304 303 303 303 302 301 301 301 300 302 302 300 299 299 298 298 298
333 333 333 333 332 331 330 329 324 321 319 318 317 317 316 316 316 315 314 312 309 308 306 305 304 304 304 303 303 302 302 301 301 300 300 299 299 300 299 297 297 297 296
332 331 330 329 328 327 324 321 320 319 319 318 317 318 317 316 315 313 313 311 309 307 305 304 304 303 303 302 302 301 301 301 300 299 299 298 298 297 297 298 296 296 295
328 325 324 323 322 322 321 320 320 319 318 318 318 318 317 314 313 312 311 309 307 305 304 304 303 303 302 301 300 299 299 299 299 299 298 298 297 296 296 296 296 295 294
325 322 321 319 320 320 320 320 319 318 318 318 318 316 314 312 310 309 307 305 304 304 303 303 302 301 300 299 298 298 298 299 299 298 298 297 296 295 295 295 295 294 293
324 322 321 319 320 320 320 319 319 318 318 317 315 313 310 308 307 306 305 305 304 303 303 302 300 298 297 297 297 297 298 298 298 298 297 296 295 295 294 293 293 294 292
323 322 321 320 320 320 320 320 319 317 316 313 311 309 308 306 305 305 305 304 304 302 299 298 297 297 296 296 296 297 297 298 297 296 295 295 294 293 293 292 292 292 293
323 323 321 321 321 320 320 320 318 316 313 311 309 307 306 305 305 304 304 302 299 298 297 296 296 296 296 296 296 296 296 296 296 295 295 294 293 293 292 292 291 291 290
324 323 322 321 321 320 319 318 316 313 310 308 306 305 304 304 303 302 300 298 297 297 296 296 295 295 295 295 296 296 295 295 294 294 294 293 293 292 291 291 290 290 289
324 323 322 321 320 318 317 315 312 310 308 306 303 303 304 302 301 299 298 297 297 296 296 295 295 295 295 295 295 294 294 294 294 293 292 292 291 291 290 289 289 289 288
324 323 322 320 318 316 314 313 310 308 305 303 303 302 301 300 299 298 298 297 296 296 295 295 295 295 295 295 294 293 293 293 292 292 291 291 290 289 288 288 287 286 286
323 322 320 318 316 314 313 310 307 305 303 303 301 300 300 299 298 298 297 296 296 295 295 295 294 294 294 293 293 293 292 291 291 291 290 288 288 287 286 284 284 284 284
322 320 319 317 314 312 310 307 306 304 303 301 300 299 298 298 298 297 296 296 295 295 295 294 294 293 292 291 291 291 291 290 290 288 288 287 285 284 282 282 282 283 283
320 319 317 315 313 310 307 306 304 302 300 299 298 297 297 297 297 296 295 295 294 294 294 294 293 291 291 290 289 287 288 288 288 287 286 285 285 284 283 282 282 281 281
319 318 316 314 312 309 306 304 302 300 299 298 297 296 296 296 295 295 294 294 294 294 293 292 291 291 291 289 287 285 285 286 287 286 285 285 284 284 283 282 281 281 281
318 317 315 312 308 306 303 302 300 299 298 296 295 295 295 295 294 294 294 294 293 293 292 291 291 290 290 288 286 284 284 286 286 286 285 284 284 283 281 280 280 281 281
316 315 312 308 305 302 300 300 299 298 296 295 294 294 294 294 294 294 293 293 293 292 290 290 290 290 290 287 285 284 285 286 286 285 284 284 283 281 280 278 280 280 280
314 312 308 304 302 300 299 299 298 297 295 294 294 294 293 293 293 293 293 292 292 290 290 290 289 289 289 287 286 284 284 285 285 284 284 283 281 279 278 278 278 279 280
312 308 303 301 300 299 298 297 295 294 294 294 293 293 293 293 293 293 292 292 291 290 289 289 288 289 288 287 285 284 282 284 284 283 283 283 281 279 277 277 277 278 277
305 302 300 299 299 297 295 295 294 293 294 293 293 292 292 293 293 292 292 291 290 289 289 288 288 288 287 287 285 284 283 281 281 282 283 282 279 277 277 277 278 276 277
301 299 298 297 296 295 293 293 293 293 292 292 292 292 292 293 292 291 291 290 289 289 289 288 288 287 287 287 285 284 283 281 281 282 281 279 279 278 278 278 277 277 279
299 298 297 296 295 293 293 293 293 292 291 291 292 292 292 291 291 291 291 289 289 288 288 288 288 287 286 286 286 285 283 282 282 282 282 280 280 280 279 279 280 279 279
296 295 294 295 295 293 293 292 292 291 291 291 291 291 291 291 291 291 290 289 288 288 288 288 287 287 286 286 286 285 284 284 283 281 280 281 282 281 281 280 280 279 279
294 295 295 294 293 292 292 292 291 291 291 291 291 291 291 291 291 290 289 289 288 288 287 286 285 284 284 284 283 283 282 282 281 280 281 282 282 282 281 281 280 280 279

GFSMW_925_thetae_048.txt.gz
Theta_e
326 327 326 326 329 334 333 331 329 327 323 327 325 321 319 318 315 314 314 314 314 313 311 310 309 307 306 305 305 304 304 304 302 302 302 302 301 302 301 301 300 300 300
328 329 329 329 329 334 333 330 329 327 327 328 324 323 319 316 315 315 314 314 313 311 309 308 307 306 305 304 304 303 304 303 303 302 302 301 301 302 300 299 298 298 298
330 331 331 331 334 334 331 330 329 327 329 326 323 320 318 316 315 315 314 313 311 309 308 307 306 305 304 304 304 303 303 303 302 302 302 301 299 300 299 298 297 297 297
331 332 333 333 332 331 330 330 329 329 327 320 319 318 317 316 316 315 315 313 310 309 307 306 305 304 304 303 303 303 302 302 302 301 300 300 299 298 298 298 297 297 296
331 333 333 332 331 330 329 331 330 324 320 319 318 317 318 316 316 314 314 313 311 310 307 305 305 304 303 303 302 301 300 300 300 300 300 299 299 298 298 296 296 296 295
333 331 333 332 332 332 331 324 322 320 319 319 318 318 318 316 314 313 313 311 310 307 305 305 304 303 302 302 300 299 299 299 299 299 299 299 298 297 297 295 295 295 295
331 329 330 328 327 325 322 321 321 320 319 319 319 318 317 315 312 310 309 306 305 305 304 304 303 302 300 298 298 297 298 298 299 299 298 298 297 297 296 295 295 294 294
328 326 325 323 323 323 322 321 320 319 319 319 318 316 314 312 310 307 306 306 305 305 304 303 300 298 298 297 297 297 297 297 298 298 298 297 296 296 295 294 294 291 292
326 324 322 321 321 322 322 321 320 319 319 318 315 313 310 308 306 306 305 305 304 303 300 298 297 297 297 296 296 297 297 298 297 296 296 296 295 295 294 293 293 293 291
326 323 322 321 321 321 321 321 320 318 317 315 313 310 308 306 305 305 305 304 301 299 298 297 296 296 296 296 296 296 297 296 295 296 295 295 294 294 293 293 292 291 291
326 324 322 322 321 321 321 321 320 317 315 313 310 307 305 304 305 304 302 300 298 298 297 297 296 296 296 296 296 296 296 294 293 294 294 293 293 292 292 291 291 291 290
326 324 323 322 322 322 321 321 320 315 313 309 307 304 305 304 303 302 300 298 298 297 297 296 296 296 295 295 296 295 295 293 294 293 293 292 291 291 291 289 288 287 286
325 324 323 323 322 321 320 318 316 314 309 306 305 304 304 303 301 300 298 298 297 297 296 296 295 295 294 294 293 293 294 293 293 292 292 291 290 288 288 286 285 284 284
324 324 323 323 321 320 318 316 313 309 306 305 304 303 302 301 299 298 298 298 297 296 296 295 295 294 293 293 293 293 292 292 291 291 290 289 288 286 285 284 283 283 283
322 323 323 322 320 318 316 313 309 307 305 304 303 300 299 299 299 298 298 297 296 296 295 295 295 294 293 292 291 290 290 290 290 289 288 287 286 285 284 283 283 282 282
321 322 322 320 318 316 313 309 307 306 305 302 300 299 298 298 298 297 296 295 295 295 294 294 294 292 291 291 291 289 288 287 287 287 287 286 285 285 284 283 282 281 281
318 321 320 319 317 313 311 307 306 304 300 300 299 298 297 297 296 295 295 295 294 294 294 294 292 291 291 290 290 288 286 286 286 287 286 285 285 284 284 282 281 280 280
318 318 318 317 314 310 308 306 304 300 300 299 297 295 295 295 295 295 295 294 294 294 293 292 291 291 291 290 289 287 286 286 286 286 286 285 285 283 282 281 280 279 280
317 317 316 313 309 307 304 301 301 300 298 296 295 295 295 294 294 294 294 294 294 293 292 291 290 289 289 290 289 286 285 285 286 285 285 285 284 283 282 280 277 278 279
316 315 310 308 305 301 301 300 298 297 296 295 295 294 294 294 294 294 294 293 293 292 291 291 290 289 289 289 288 286 285 284 284 285 284 284 283 281 280 278 277 278 278
313 308 306 304 301 300 299 298 297 296 295 295 294 294 293 293 293 293 293 293 292 292 290 290 289 289 288 288 288 286 285 284 284 283 283 283 282 281 280 277 277 278 278
305 303 301 300 299 297 295 294 295 295 294 294 293 293 293 292 293 293 293 292 292 290 290 289 289 289 288 288 288 287 285 284 283 282 282 283 282 281 279 278 278 278 278
300 299 298 297 296 295 294 294 294 293 293 293 292 292 292 292 293 292 292 291 291 289 289 289 289 289 288 288 287 287 285 284 283 281 282 282 281 280 280 280 279 278 279
298 297 296 296 295 294 295 295 294 293 292 292 292 292 292 292 292 291 292 291 291 290 289 289 289 288 288 287 287 287 285 284 282 282 282 282 281 281 281 281 281 280 280
295 295 295 295 295 295 294 293 293 292 292 292 292 292 292 292 292 292 291 291 290 290 289 289 288 288 288 287 286 286 286 285 284 283 282 281 281 283 282 282 281 280 280
295 296 296 296 294 293 293 292 292 292 292 292 292 292 292 291 291 291 291 290 289 289 289 289 288 287 287 286 285 284 284 283 282 281 281 281 282 283 282 282 281 281 280

GFSMW_925_thetae_051.txt.gz
Theta_e
319 323 329 329 329 330 331 330 327 326 322 320 322 322 320 316 314 312 312 313 313 313 310 309 308 306 305 304 304 303 303 303 303 302 301 301 301 300 300 299 299 298 297
323 324 326 331 331 330 331 329 328 327 325 322 324 322 318 315 314 314 314 313 313 311 310 309 307 306 305 304 303 303 303 302 301 302 302 298 300 300 299 298 298 297 296
326 326 328 332 332 331 330 329 329 328 326 326 325 321 317 315 314 314 314 313 312 309 308 307 306 305 304 304 303 303 302 302 301 300 301 297 297 298 298 298 298 297 296
327 327 329 331 331 331 330 329 329 328 326 328 323 320 317 316 315 314 314 313 310 309 308 307 305 304 304 303 303 302 301 300 300 299 300 300 299 296 297 297 297 296 296
327 328 330 332 332 331 330 329 328 327 327 328 322 319 316 316 315 315 314 312 310 309 309 308 305 304 303 302 301 300 299 298 298 299 299 299 299 298 296 295 295 296 295
328 330 331 330 330 330 329 329 328 328 327 320 319 317 317 316 314 315 313 313 311 309 308 305 304 303 302 301 299 298 297 297 297 297 299 299 298 298 297 295 294 294 295
329 331 331 330 330 329 329 328 330 326 319 318 318 317 316 315 314 313 311 309 305 305 304 303 303 301 300 298 297 297 296 296 296 297 299 298 298 297 297 296 294 292 293
325 328 329 330 330 330 329 326 321 319 319 318 319 317 315 312 310 308 307 306 305 304 303 301 299 298 297 297 296 296 296 296 297 297 296 296 296 296 296 294 293 291 290
322 322 321 324 324 323 321 321 320 319 319 319 318 315 313 310 307 306 306 305 304 303 300 299 297 297 296 296 295 295 295 297 296 295 294 295 295 295 294 294 293 292 290
321 319 318 321 322 322 321 320 320 319 319 319 317 313 309 307 305 305 305 304 303 301 299 297 297 296 296 295 295 296 296 296 295 293 294 294 294 293 293 292 292 291 290
320 318 317 319 321 321 321 321 320 319 318 314 311 309 307 305 305 305 303 300 299 298 298 297 296 296 295 295 295 295 295 295 293 293 294 293 292 292 291 290 289 287 285
321 318 317 319 319 320 321 321 320 318 314 311 308 306 305 305 305 304 300 300 298 297 297 296 296 295 295 295 294 293 292 293 293 293 292 291 291 290 288 288 286 285 284
320 318 317 319 321 320 321 321 317 313 310 308 307 305 305 303 304 302 299 298 297 297 296 296 295 295 295 294 293 293 293 293 292 292 291 291 290 288 287 286 285 284 283
322 319 318 320 321 320 320 317 312 309 307 307 305 304 304 303 299 298 298 298 297 296 296 295 295 295 294 293 292 292 292 291 291 290 289 289 287 286 285 285 284 283 282
319 319 318 319 319 318 316 310 307 306 306 304 303 301 299 298 298 298 298 297 297 296 295 295 294 294 293 292 291 291 290 289 289 288 287 287 286 285 285 284 283 282 282
317 318 319 318 317 315 309 307 306 305 305 300 299 298 298 298 298 297 296 295 295 295 294 294 294 293 292 291 291 290 290 288 287 286 287 286 286 285 284 283 282 282 280
315 317 316 316 315 310 307 306 305 303 300 299 299 297 297 297 296 296 295 295 295 294 294 294 294 292 291 291 290 290 289 287 286 286 286 286 285 285 284 283 283 282 280
314 314 312 309 308 307 307 304 300 300 299 298 295 295 295 295 295 294 295 294 294 294 294 293 293 291 290 289 290 290 288 286 286 285 286 285 285 284 283 283 282 281 277
311 309 307 305 304 302 301 301 300 298 295 295 295 295 295 295 294 294 294 294 294 293 293 292 292 291 290 289 289 289 288 286 285 285 285 285 284 283 282 282 281 278 276
306 303 300 299 299 297 297 297 297 296 295 295 295 295 295 294 294 293 293 293 293 293 292 291 290 290 290 289 289 288 287 285 285 284 284 284 283 282 282 281 279 277 277
300 299 298 297 296 296 296 295 295 294 295 295 295 295 294 294 293 292 293 293 293 292 292 291 290 289 289 289 288 288 287 286 285 284 283 283 283 282 281 280 278 278 278
297 296 295 294 294 295 295 295 295 296 295 295 294 293 293 292 292 292 292 293 292 292 291 290 289 289 289 288 288 288 287 287 284 284 283 282 282 282 281 280 279 279 279
296 296 296 295 294 294 295 295 294 294 293 293 293 292 292 292 292 292 292 292 291 291 290 290 289 288 288 288 288 288 287 287 285 284 283 282 281 281 281 281 280 280 279
296 296 295 295 295 295 295 295 295 293 293 292 292 291 292 292 292 292 291 292 292 291 290 289 289 289 288 288 288 287 287 286 286 284 283 282 282 282 281 282 281 281 280
295 296 296 296 295 295 295 294 293 292 292 292 292 292 292 291 292 292 292 291 291 290 289 289 289 289 288 288 288 287 286 286 285 285 283 282 282 281 281 282 281 281 280
296 296 296 295 293 292 292 292 292 292 292 292 292 291 291 291 291 291 290 291 291 290 289 289 289 289 289 288 287 287 286 285 285 283 282 282 281 281 281 282 282 281 281

GFSMW_925_thetae_054.txt.gz
Theta_e
322 323 323 324 325 325 326 329 328 327 326 322 319 318 318 318 317 316 314 312 313 313 310 308 307 306 306 304 303 303 303 302 301 301 300 301 300 299 299 298 298 297 296
319 324 324 324 325 327 327 329 329 328 324 320 319 321 321 317 315 312 312 313 313 311 309 308 307 306 305 303 303 302 302 301 301 300 299 297 298 299 298 298 298 297 297
319 324 326 326 327 328 328 328 327 327 324 320 321 322 320 315 313 313 313 313 312 310 309 309 308 306 304 303 303 302 301 300 299 299 299 296 296 297 298 298 297 297 296
321 325 327 328 328 329 328 328 327 327 325 322 323 321 316 313 313 314 313 312 312 309 308 307 306 304 304 303 302 301 300 298 298 298 298 299 299 295 294 297 297 296 296
322 326 329 329 329 329 328 328 328 328 327 324 325 322 317 314 314 314 313 313 311 309 307 306 304 304 303 302 301 299 298 297 296 297 297 298 298 298 295 295 294 296 296
323 325 330 330 329 329 329 329 329 328 327 325 328 322 316 315 315 314 313 313 310 308 307 305 304 303 302 300 299 297 296 296 296 296 296 297 298 297 297 295 296 294 295
324 327 329 330 329 329 329 329 328 328 326 326 328 322 317 316 315 314 313 312 309 307 304 303 303 301 298 297 296 296 296 296 296 296 297 298 297 297 297 296 295 293 293
327 329 328 329 328 328 329 328 328 328 328 326 323 320 317 315 314 314 313 308 304 303 301 299 300 298 296 296 296 295 295 295 296 296 296 295 295 295 295 295 293 291 290
328 328 327 327 327 328 328 328 328 329 321 318 317 315 313 311 309 306 305 304 302 299 300 300 299 297 296 296 295 295 295 296 295 294 293 293 294 295 295 294 293 292 292
323 324 325 326 327 327 327 327 327 325 318 318 317 315 311 308 306 306 305 304 303 304 303 300 297 297 296 295 295 295 295 295 295 294 293 293 293 293 293 292 291 290 290
321 321 322 324 327 327 321 320 320 319 318 317 312 308 306 305 305 305 305 303 301 301 298 298 297 296 295 295 295 295 294 293 292 293 293 293 292 292 291 290 288 286 285
319 319 320 321 320 320 320 320 319 319 318 314 307 305 305 306 306 304 301 302 300 298 297 297 296 296 295 295 294 294 293 293 293 293 292 292 291 290 289 287 286 285 284
319 317 317 319 319 319 319 318 316 310 308 306 306 305 305 305 304 304 302 301 298 297 297 296 296 295 295 295 294 293 292 292 292 291 291 290 290 289 287 285 285 283 283
321 318 316 317 318 319 318 316 313 313 308 307 306 306 304 304 303 302 299 298 298 297 296 296 295 295 294 294 293 292 291 291 291 290 289 288 287 286 285 285 283 283 283
320 319 316 316 318 317 312 310 309 308 308 306 304 304 302 299 298 298 299 299 297 296 296 295 295 294 294 293 292 291 291 290 290 289 288 287 286 286 285 284 284 283 282
317 316 317 317 317 312 309 308 307 306 305 302 300 298 298 298 299 298 297 295 295 296 295 294 294 294 293 293 291 290 290 289 289 287 286 286 286 285 285 284 283 282 281
317 317 317 316 313 309 307 306 305 302 300 298 297 298 298 297 296 295 295 295 295 295 294 294 294 293 293 292 290 289 289 289 288 286 286 286 285 285 284 283 283 282 281
311 309 307 306 306 305 303 301 300 299 298 296 296 295 295 295 296 297 295 295 294 294 294 294 293 293 292 291 290 289 289 289 288 286 285 285 285 284 284 283 282 282 281
301 300 299 299 300 300 299 299 297 295 295 295 295 297 299 299 296 294 294 293 293 293 293 293 292 292 291 290 290 289 289 288 288 286 285 284 284 284 283 282 281 282 280
298 297 297 296 296 296 296 295 295 294 295 296 298 299 298 295 294 293 293 293 292 293 293 292 292 292 291 290 289 289 288 287 287 287 285 284 284 283 282 282 282 280 278
295 294 294 294 294 295 295 295 295 295 296 298 297 294 294 293 293 292 292 292 292 292 292 292 291 291 290 289 288 288 288 287 287 287 286 284 283 283 282 282 281 280 279
294 294 294 295 295 295 296 296 295 295 295 294 294 293 293 292 292 292 291 292 292 292 291 291 291 290 290 289 288 288 288 288 287 287 286 285 283 282 282 282 281 280 280
295 295 295 294 295 295 295 294 295 294 293 293 293 292 291 291 291 291 291 291 291 291 291 290 290 290 290 289 289 288 288 288 288 287 287 285 283 282 282 281 281 281 281
295 295 295 295 295 295 294 294 293 293 293 292 292 292 291 291 291 291 291 291 291 291 291 290 290 289 289 289 289 288 288 288 287 287 286 285 283 282 282 282 281 282 281
296 295 295 294 294 293 292 292 292 292 292 292 292 291 291 291 291 291 291 291 291 290 290 290 290 289 289 289 288 288 288 288 287 286 286 284 283 282 282 282 281 282 281
295 294 293 292 291 291 291 290 290 290 290 290 291 291 291 291 291 291 291 291 291 291 291 290 290 290 289 289 288 288 288 288 287 285 283 282 282 282 282 281 281 281 282

GFSMW_925_thetae_057.txt.gz
Theta_e
328 327 328 328 326 326 326 326 327 328 328 326 324 323 321 319 320 320 318 316 313 311 310 309 307 306 306 305 303 302 302 301 300 300 299 300 300 299 299 297 297 297 296
324 325 327 323 324 326 326 327 327 328 326 326 324 320 318 318 317 316 315 313 312 312 309 309 308 307 306 304 303 302 302 301 299 299 298 295 297 298 298 298 297 297 297
322 322 321 322 324 325 324 327 328 328 326 324 320 319 318 317 314 312 312 312 312 311 310 309 307 306 304 303 302 302 301 300 299 298 298 295 294 296 297 297 297 297 296
320 321 322 322 323 325 324 325 327 326 325 323 320 320 321 317 315 312 312 313 312 310 309 308 307 305 304 303 302 300 299 298 297 296 297 298 298 295 294 297 297 296 296
318 322 322 322 323 325 325 325 325 325 324 321 319 321 322 320 316 312 313 313 311 310 308 307 305 304 303 301 300 299 297 296 296 296 296 296 297 297 294 292 295 296 295
317 321 324 324 325 326 326 326 326 327 326 322 321 322 323 318 314 313 313 312 310 308 306 304 303 302 301 300 298 297 296 296 295 295 295 296 297 297 295 291 293 294 295
318 323 325 326 327 326 326 326 325 325 325 324 324 324 324 319 315 314 313 312 309 307 304 302 302 303 298 298 299 296 295 295 295 295 295 296 297 297 296 296 294 293 293
321 326 327 328 327 327 327 326 326 326 326 326 326 325 326 320 314 314 313 311 307 303 301 304 301 301 302 300 296 295 295 295 295 295 294 294 294 293 294 295 294 290 290
323 326 328 328 328 328 327 327 327 326 327 327 326 326 325 319 315 313 312 308 302 304 305 300 301 300 298 296 295 295 295 295 295 295 294 293 293 293 293 294 293 292 292
325 325 326 327 327 328 328 327 327 328 327 326 325 324 320 315 313 311 306 304 305 304 302 301 299 297 296 296 295 295 295 294 293 292 292 292 293 292 292 292 292 291 290
325 325 326 326 327 327 328 328 328 327 325 321 317 316 312 309 306 305 305 306 305 302 301 298 297 297 296 295 295 294 294 293 293 292 292 293 292 291 291 290 290 288 286
323 324 325 325 325 326 326 326 326 323 319 314 310 307 306 305 305 305 305 302 302 302 300 298 296 296 296 295 294 294 294 293 292 292 292 292 291 291 290 289 287 285 284
319 320 320 322 322 322 320 320 318 317 314 310 307 305 305 306 306 305 303 302 301 299 297 296 296 296 295 294 294 294 293 292 292 292 291 291 290 290 289 287 285 284 283
319 316 316 318 321 319 316 313 311 311 309 308 306 306 306 306 305 304 302 301 298 297 296 296 296 295 294 294 294 293 292 291 291 291 290 289 288 287 286 285 285 284 283
319 316 314 315 316 315 312 311 309 308 307 306 306 305 305 304 303 302 298 299 298 296 297 295 295 295 294 294 293 292 291 290 290 289 289 288 287 286 286 285 285 283 283
318 317 315 315 315 311 309 309 308 308 307 306 305 304 300 299 298 299 299 296 296 298 295 295 294 294 294 293 293 292 290 290 289 289 288 286 286 286 285 285 284 283 282
316 316 315 313 310 309 308 308 307 305 304 303 300 298 298 298 296 296 295 298 296 295 294 294 294 293 293 293 292 291 290 289 289 289 287 286 286 285 285 284 283 282 281
306 305 305 305 304 305 303 302 302 300 298 298 298 296 295 296 298 299 298 296 294 294 294 293 293 293 293 292 291 290 290 289 289 288 287 286 285 285 285 284 283 282 281
297 296 298 299 299 299 299 298 297 296 295 295 297 299 299 299 299 297 294 293 293 293 293 293 293 293 292 292 291 290 289 289 289 288 287 285 286 285 284 283 282 281 281
296 295 295 295 295 295 296 295 294 295 296 298 299 299 299 298 295 294 293 292 292 292 292 292 292 292 292 291 291 290 288 288 288 288 287 286 286 284 283 282 282 281 281
294 294 294 294 294 295 295 295 296 296 297 299 300 297 294 293 293 292 292 291 291 291 291 292 291 291 291 291 290 289 288 288 287 287 287 287 286 285 283 282 281 282 281
294 294 294 294 295 295 296 295 295 296 295 294 293 293 292 291 291 291 291 291 291 291 291 291 291 290 291 290 290 289 288 288 286 286 287 287 287 285 283 282 281 282 281
294 294 295 295 295 295 295 294 294 293 293 292 292 292 291 291 291 291 291 291 290 290 290 290 290 290 291 290 290 289 289 288 287 286 287 287 287 286 284 282 281 282 281
294 295 295 294 294 294 293 292 292 292 292 291 291 290 290 290 290 290 290 290 290 290 290 289 288 289 289 289 290 289 289 288 288 288 287 287 287 286 284 283 282 282 281
295 294 293 292 290 290 290 290 290 290 290 290 290 290 290 290 289 289 289 288 288 288 288 288 288 288 288 288 289 290 289 288 288 288 287 285 284 284 283 283 282 282 282
293 290 290 289 289 289 288 288 288 288 287 286 285 285 284 285 285 285 285 285 286 286 286 286 287 287 288 289 288 288 289 288 287 286 285 284 284 283 282 282 282 282 282

GFSMW_925_thetae_060.txt.gz
Theta_e
327 326 326 327 324 326 327 327 329 326 325 325 326 327 327 325 324 323 323 322 320 318 316 311 308 306 306 305 303 301 301 301 300 299 298 299 299 298 298 297 297 296 297
327 326 326 328 326 327 326 327 328 328 325 326 327 327 326 323 321 321 319 318 316 312 309 308 307 306 306 304 302 302 301 300 299 298 297 295 297 298 298 297 297 297 296
328 326 325 326 327 326 326 326 326 327 326 327 327 325 321 318 317 317 317 315 312 310 309 308 307 306 305 303 302 301 301 299 298 297 296 293 293 295 297 297 297 297 296
325 324 324 323 323 324 325 325 325 325 326 326 326 323 319 316 316 317 316 313 312 311 308 307 306 305 303 303 302 301 299 297 296 296 297 297 297 295 294 297 296 297 296
321 321 322 322 322 323 324 325 325 325 325 325 324 321 318 317 318 316 313 312 311 310 307 306 305 304 303 302 300 298 297 296 296 295 295 295 296 296 294 292 295 296 296
318 318 320 321 321 322 324 324 324 325 324 324 322 320 319 319 318 314 312 312 311 309 307 305 303 302 300 301 298 297 296 295 295 295 295 295 295 295 294 291 292 293 295
314 315 318 320 321 323 324 324 324 323 324 323 322 321 320 320 318 314 312 312 310 308 306 304 302 302 304 302 299 297 295 295 294 295 295 295 296 296 296 295 294 292 293
313 316 318 321 322 323 324 324 324 324 323 323 322 321 320 322 318 315 313 312 310 307 303 302 303 304 301 299 298 297 295 294 294 295 295 294 294 294 293 293 293 293 291
315 317 320 323 324 324 324 325 324 324 324 325 323 323 323 322 321 315 313 312 310 304 302 304 303 304 299 299 298 295 295 294 294 294 293 292 291 292 292 293 293 293 292
318 319 322 325 325 325 326 326 325 325 325 324 325 324 325 324 322 315 313 311 305 303 304 305 303 300 300 298 296 295 294 294 294 293 292 292 292 292 292 292 292 292 291
320 321 323 325 326 327 327 326 325 325 326 326 325 325 324 321 316 313 310 305 303 304 306 303 302 299 297 297 295 295 294 294 293 293 292 292 292 292 291 291 290 290 290
320 321 322 324 325 326 326 326 325 326 327 326 324 322 319 315 311 308 305 305 305 306 304 303 299 297 297 295 295 294 294 293 293 292 292 292 292 291 290 290 289 288 286
319 320 320 322 324 324 323 324 325 323 322 320 315 311 308 306 305 304 305 305 306 303 302 299 297 296 295 295 294 294 293 293 292 291 291 291 291 291 290 289 288 286 285
319 318 318 319 321 321 320 319 318 317 314 310 307 305 304 304 305 306 304 304 301 299 298 297 296 295 295 295 294 293 293 293 292 290 290 290 290 289 288 288 287 285 284
318 317 316 315 317 314 312 312 311 310 309 307 306 305 305 306 306 303 302 299 298 298 296 295 295 295 295 294 293 293 293 292 291 290 289 289 288 288 286 286 285 285 284
315 317 314 314 313 311 309 308 307 307 307 306 305 305 306 304 303 301 299 298 296 295 297 296 295 295 294 293 293 293 292 291 290 289 289 288 288 286 286 286 285 284 284
312 312 311 310 309 309 308 307 307 306 305 305 304 302 301 299 298 296 295 297 299 299 297 295 294 294 293 293 293 293 292 291 290 289 288 288 288 286 285 285 284 284 283
303 303 302 301 303 305 304 303 303 303 301 298 298 297 296 296 298 299 299 299 297 294 294 293 293 293 293 293 293 292 291 290 290 289 288 288 287 286 285 284 284 283 283
295 295 297 298 298 298 299 299 298 297 296 297 298 299 299 299 298 298 298 295 293 293 292 292 292 292 292 292 292 292 291 290 290 289 288 288 287 286 285 285 284 283 282
294 294 295 295 296 296 297 296 296 297 298 299 299 299 298 298 298 294 293 293 292 291 291 291 291 291 291 291 291 291 291 290 289 288 288 288 287 287 286 285 283 282 282
293 294 294 293 294 295 295 295 296 297 298 299 299 298 294 293 292 292 291 290 290 290 290 290 290 290 290 290 290 290 290 290 289 288 287 287 287 287 286 285 283 283 282
293 294 294 294 294 295 296 296 295 294 294 294 293 292 291 291 290 290 290 290 290 290 290 290 290 290 290 290 290 290 290 290 289 288 286 286 287 287 286 286 284 283 282
294 294 294 294 294 294 294 293 293 292 292 291 291 290 290 290 290 290 290 290 289 289 288 288 287 287 288 288 288 289 289 289 288 288 288 287 287 287 286 286 285 283 282
293 294 293 291 289 290 290 290 290 290 290 290 289 288 288 287 286 286 285 285 285 285 286 286 286 286 286 286 286 287 287 288 288 288 288 286 286 285 286 286 285 283 282
293 292 290 289 289 289 288 288 287 288 287 285 284 283 282 281 281 281 281 282 283 284 285 285 285 285 285 285 285 286 286 287 287 287 286 285 285 285 284 283 284 283 282
290 289 289 288 286 285 284 284 284 283 283 282 281 280 280 279 280 280 280 280 281 282 282 282 282 283 283 283 284 284 284 286 287 286 285 285 284 283 283 282 282 282 282

GFSMW_925_thetae_066.txt.gz
Theta_e
328 328 327 329 325 325 326 327 328 329 330 330 326 323 324 326 328 329 329 326 324 322 319 317 314 313 312 310 309 308 307 307 306 307 307 305 304 303 302 301 300 300 299
331 327 327 327 328 328 328 328 329 331 331 328 325 323 323 325 327 327 326 324 322 320 318 316 314 313 311 310 308 308 308 308 305 306 305 309 306 304 302 302 300 300 299
332 331 328 327 327 327 328 329 330 330 330 328 325 324 326 327 327 326 325 323 320 319 315 314 314 312 310 309 309 309 308 308 305 304 303 304 307 302 301 300 300 299 299
332 331 330 328 328 327 327 329 330 330 330 328 326 324 325 326 326 326 325 320 318 316 313 313 313 311 310 310 309 308 307 305 304 302 299 299 299 301 301 300 300 299 299
333 331 330 329 329 328 328 327 328 330 330 330 328 327 326 327 327 325 323 319 316 313 313 312 311 310 310 309 308 307 305 301 303 301 299 299 300 299 300 302 300 298 298
333 332 330 329 329 330 330 329 328 328 329 330 329 329 328 329 326 324 321 316 315 312 311 311 310 310 309 309 307 305 302 302 300 299 298 299 299 299 299 299 298 298 297
332 333 332 332 329 330 331 330 330 328 329 329 329 329 329 328 325 323 320 318 315 313 312 311 310 310 309 307 304 303 303 300 299 298 299 298 298 298 297 298 298 297 296
327 331 333 331 331 329 330 330 330 329 329 328 328 328 326 325 324 322 320 317 314 314 314 311 310 309 306 304 302 303 302 298 298 299 299 298 297 297 297 296 296 297 296
325 327 330 330 330 330 329 330 329 329 329 328 328 326 325 322 322 322 318 316 315 314 312 310 308 306 304 302 303 302 298 298 298 299 298 297 296 296 296 295 295 295 298
324 323 325 327 328 329 329 329 329 328 328 328 327 325 325 324 323 321 317 317 316 314 310 309 306 304 302 303 303 299 298 296 298 298 297 297 296 296 295 295 294 294 295
327 325 323 322 324 326 327 328 328 327 327 327 327 326 325 324 323 320 317 316 314 311 308 306 302 302 303 302 299 297 297 297 298 297 297 296 296 295 295 294 294 294 294
326 327 326 325 325 325 326 326 327 327 327 327 327 324 322 323 321 318 315 313 309 306 303 302 303 302 300 298 298 297 297 298 297 297 297 296 295 295 294 294 294 293 293
326 328 329 329 328 328 328 328 328 328 328 326 323 319 318 316 312 309 307 306 305 305 303 302 301 298 300 300 297 298 298 298 297 296 296 295 295 294 294 294 293 293 292
323 327 329 330 329 329 329 327 324 322 318 316 313 310 309 309 308 307 306 306 303 302 303 301 300 301 299 298 298 298 297 297 296 296 295 295 294 294 293 293 292 292 292
318 323 328 330 329 329 327 326 320 314 313 311 310 308 306 304 304 303 303 303 303 301 300 300 299 298 297 297 297 298 297 297 296 295 295 294 294 293 292 291 290 291 291
322 322 324 327 325 323 321 319 317 313 311 310 307 305 304 304 303 303 301 300 300 298 298 298 298 297 297 298 297 296 296 296 295 295 294 294 294 292 291 290 289 288 289
322 322 323 322 320 318 317 316 314 312 310 307 306 305 305 302 300 299 299 298 298 298 298 299 299 299 298 296 295 293 293 294 294 294 294 294 293 292 292 291 290 288 288
317 316 316 315 315 314 313 312 311 310 308 306 305 303 301 299 298 298 298 298 298 299 300 298 296 295 295 293 291 291 292 292 293 293 293 293 293 293 292 292 291 290 290
313 312 312 312 311 310 309 308 306 304 303 302 300 299 299 299 299 299 299 299 299 297 296 294 294 293 293 292 291 290 291 292 292 292 292 292 292 292 291 291 290 290 290
308 308 308 309 308 307 306 305 303 302 301 300 299 300 300 300 299 298 297 295 294 293 293 292 292 292 292 292 290 288 289 290 291 291 291 291 291 291 290 290 290 289 289
305 306 306 306 306 305 304 304 303 302 301 300 298 296 296 295 294 294 293 293 293 293 293 292 291 290 289 288 286 285 285 286 286 286 287 287 288 289 289 289 289 289 289
303 303 303 304 304 304 303 302 300 299 296 295 294 294 293 292 293 293 292 292 291 289 288 287 287 288 287 286 285 284 283 283 283 284 285 286 287 286 286 286 288 287 287
302 302 301 301 300 300 299 298 296 295 294 293 292 291 290 289 288 288 287 287 287 287 287 286 286 286 285 285 283 281 280 281 281 282 283 283 283 284 285 286 286 287 286
300 299 298 297 296 296 295 295 293 293 292 291 290 288 286 287 285 285 285 285 285 285 285 285 285 284 283 283 280 279 280 280 280 281 282 284 285 284 285 286 286 286 286
298 298 297 295 293 292 290 290 290 290 289 287 286 285 285 284 284 284 283 283 283 282 282 282 281 281 280 279 277 277 277 278 278 279 283 285 286 287 288 287 288 287 286
297 296 294 292 290 288 287 286 286 286 286 285 284 283 284 283 283 283 283 281 279 279 278 278 277 278 277 275 276 276 276 276 277 280 282 283 284 288 288 288 288 287 286

GFSMW_925_thetae_069.txt.gz
Theta_e
328 327 326 325 322 321 321 324 327 328 328 328 326 323 322 322 323 327 329 329 329 327 326 323 321 319 318 318 314 312 311 311 310 311 311 310 308 307 306 305 305 303 303
329 328 328 325 325 325 326 326 326 328 328 327 325 322 321 322 324 329 329 328 328 326 325 323 320 319 318 316 314 312 311 312 311 311 311 313 310 308 307 306 305 303 303
330 329 328 329 326 326 327 327 327 327 328 327 325 323 323 323 325 328 328 328 327 326 325 323 320 319 318 316 314 312 312 312 310 308 309 310 311 307 307 306 303 303 302
330 330 328 328 329 329 329 329 328 328 329 328 327 324 323 324 325 327 327 326 326 325 322 321 320 319 317 315 313 312 312 312 312 308 306 306 304 306 307 305 303 302 302
331 330 330 327 327 328 328 329 329 330 329 330 328 326 325 325 326 327 327 327 324 322 321 319 319 318 316 313 313 312 312 310 308 306 306 303 304 305 304 305 304 303 302
330 329 328 329 328 329 329 329 329 330 330 330 330 329 328 327 326 329 328 326 324 321 318 317 317 316 314 313 313 312 310 306 306 304 302 304 305 304 303 303 302 301 300
331 331 329 328 328 329 330 330 329 329 330 331 331 331 330 330 329 329 327 326 322 319 317 316 315 314 313 313 312 310 307 305 304 303 302 302 303 301 301 300 300 300 299
327 331 331 330 328 328 330 331 330 330 329 330 332 332 332 331 330 330 327 325 322 320 317 314 313 313 313 312 310 306 304 303 302 302 300 301 301 300 300 299 299 299 298
327 328 331 331 331 330 330 332 332 331 330 330 332 332 332 331 330 329 327 324 322 320 317 313 313 312 312 309 305 303 304 303 301 298 300 300 300 299 299 298 298 297 300
326 327 328 329 331 331 332 332 332 330 330 331 332 331 331 330 328 325 324 322 320 316 315 315 313 311 309 305 302 303 303 300 297 298 299 300 300 299 298 298 297 296 297
327 326 326 327 329 331 332 333 332 332 330 330 331 331 330 328 326 325 323 321 318 315 314 312 309 307 305 302 303 301 298 298 298 299 300 299 299 298 298 297 296 296 296
324 327 327 325 326 328 330 331 332 332 331 329 330 330 328 326 325 323 320 318 316 314 311 308 305 305 303 302 300 300 301 300 299 299 299 299 299 298 297 297 296 296 295
323 326 328 329 328 328 328 329 330 329 329 329 330 325 324 323 319 316 315 313 312 310 308 307 304 302 301 299 301 301 300 300 299 300 299 298 298 297 297 296 296 295 295
323 324 327 329 330 330 329 329 330 330 327 322 319 318 316 314 313 311 309 308 307 305 304 302 302 301 301 301 300 299 300 300 299 299 299 298 297 297 296 296 295 295 294
321 323 326 329 330 332 331 326 320 318 316 315 312 309 308 307 306 305 304 304 304 303 302 301 301 301 301 299 299 300 299 299 299 299 298 297 297 296 295 295 294 293 293
323 322 325 330 331 330 329 320 316 314 312 311 309 307 305 304 303 302 302 302 302 301 300 300 300 299 298 298 298 297 298 297 297 297 297 296 296 295 295 294 294 293 292
324 324 326 329 327 326 322 318 314 312 310 308 308 307 306 304 302 301 301 300 299 299 299 300 299 300 300 299 297 295 294 294 294 295 295 295 295 295 295 295 294 293 292
323 324 325 323 323 322 319 316 313 311 310 309 308 306 304 301 300 299 299 298 299 301 302 302 300 298 297 295 293 292 291 292 293 293 293 294 294 294 294 293 293 293 293
321 320 320 319 318 317 316 315 313 311 310 308 306 304 303 301 300 299 300 300 300 302 299 297 296 295 295 293 292 292 292 292 292 292 292 292 292 292 292 290 292 292 292
316 316 316 316 314 313 312 311 310 308 306 304 303 301 300 301 302 301 302 300 298 297 295 294 294 294 294 292 290 288 288 287 288 288 288 287 287 287 287 287 289 290 290
314 314 314 313 312 310 310 309 307 306 304 303 302 301 301 301 299 298 297 295 295 295 295 294 293 291 290 289 287 285 285 285 284 284 284 284 284 284 285 286 286 287 287
311 312 312 311 310 309 308 307 306 304 302 300 299 299 297 296 296 296 295 294 293 292 291 290 289 290 289 287 286 283 282 281 281 282 283 283 282 281 281 283 284 284 285
309 309 309 309 308 307 307 305 302 300 299 299 297 295 294 293 292 292 291 290 289 289 289 288 288 288 287 286 285 282 280 280 280 280 280 281 280 282 283 286 287 287 286
308 308 307 306 305 303 302 300 299 298 297 295 294 292 291 290 288 288 288 288 288 288 287 287 287 286 285 284 282 279 279 279 279 279 279 280 283 285 287 287 287 288 287
306 305 304 302 301 299 298 297 296 295 293 292 290 289 288 288 287 287 286 286 285 283 284 284 283 283 282 281 277 277 277 277 277 277 279 282 282 283 283 285 286 288 288
303 302 301 299 297 295 294 293 293 292 290 289 288 287 287 286 286 286 285 283 282 280 278 278 278 279 277 276 275 276 276 276 277 278 280 280 280 280 281 282 283 284 288

GFSMW_925_thetae_072.txt.gz
Theta_e
328 326 325 325 322 321 320 318 319 318 320 322 323 324 324 322 323 324 325 326 326 327 327 325 325 321 319 317 316 316 312 311 311 311 311 311 309 308 307 307 306 305 304
328 327 324 324 323 321 320 319 321 326 327 326 326 324 323 323 323 324 327 327 328 328 327 326 324 322 320 318 317 314 312 312 311 311 312 311 310 309 308 307 306 306 304
329 328 326 323 323 323 323 324 326 328 328 327 327 324 322 322 322 327 328 327 328 327 327 325 323 321 320 319 316 314 313 313 312 310 310 309 310 307 308 308 306 306 303
329 329 328 327 324 323 323 325 327 329 328 328 326 324 323 323 324 327 329 327 327 327 326 325 324 321 320 320 316 314 312 313 312 310 309 307 306 306 305 307 306 303 303
328 329 329 328 327 327 328 328 327 327 327 327 328 325 324 323 323 324 329 327 326 326 325 325 323 321 320 319 316 314 312 314 312 309 307 306 305 305 305 303 304 304 304
330 329 328 328 330 328 329 330 330 329 328 329 326 328 325 326 326 328 328 327 326 325 324 323 321 320 320 318 316 314 313 312 308 307 307 304 305 306 306 303 303 302 301
331 330 330 328 328 329 330 331 331 330 330 331 328 327 330 326 327 328 328 328 326 324 322 322 320 319 319 317 314 314 312 309 307 305 304 303 303 304 302 301 301 300 301
330 330 328 330 329 329 331 331 331 331 330 331 332 331 328 331 327 328 328 328 326 324 322 320 319 318 317 315 313 313 311 307 305 304 304 303 302 302 301 301 300 298 299
328 330 330 329 330 330 331 332 331 330 330 331 331 332 333 332 332 331 330 328 327 324 323 321 318 315 314 313 312 310 307 305 304 304 302 300 301 301 301 299 299 299 294
327 328 328 331 329 330 331 332 332 332 331 331 332 333 333 333 332 331 330 328 325 323 321 319 315 313 313 312 311 306 303 303 304 300 299 301 301 301 300 299 299 298 298
327 327 328 328 332 331 330 333 334 333 332 332 332 333 334 332 332 330 327 325 323 321 317 316 314 313 311 308 304 304 304 304 301 300 301 301 300 300 299 299 299 298 297
325 327 327 326 327 331 333 333 334 334 333 332 333 333 332 331 329 327 325 323 321 319 316 314 314 311 309 307 307 305 303 301 301 301 300 300 301 300 299 298 298 297 297
323 326 328 327 327 327 329 332 334 334 333 332 332 331 327 328 326 325 323 321 318 316 313 311 309 306 305 305 304 303 301 301 301 300 300 300 300 299 299 299 298 297 297
322 324 327 328 328 328 328 330 331 330 328 326 324 322 320 322 320 318 315 314 313 310 309 307 306 305 304 303 301 301 301 300 300 300 300 300 299 299 298 297 297 297 296
321 321 323 329 330 331 329 326 324 321 319 316 313 312 313 314 312 310 309 308 307 306 306 305 304 302 301 301 300 300 300 300 300 299 300 299 299 298 298 297 297 296 296
324 323 322 330 332 329 323 319 316 314 313 310 308 308 308 307 306 306 305 304 304 304 303 302 301 301 300 299 299 298 298 298 298 297 297 296 296 296 295 296 296 295 295
325 324 325 332 330 323 319 316 313 312 311 309 307 306 305 304 303 303 303 303 303 302 301 300 300 299 299 299 299 298 296 294 293 293 293 293 294 294 294 294 294 293 293
325 326 329 329 324 320 316 313 311 310 309 308 307 306 304 303 302 302 302 301 300 300 301 301 301 301 297 296 294 293 292 292 293 293 293 292 291 290 289 288 288 288 288
324 325 325 325 321 318 315 313 311 310 309 307 305 304 302 301 300 300 299 300 301 302 302 301 298 296 293 293 293 292 291 290 289 288 288 288 287 287 286 285 285 285 286
321 322 322 321 320 319 316 314 312 310 308 306 305 303 302 301 300 300 301 301 302 301 297 295 295 294 293 291 291 289 287 286 285 285 283 283 284 284 284 283 283 282 282
319 319 318 317 316 315 314 312 310 308 306 304 303 301 302 303 303 302 301 298 296 295 295 294 293 291 290 289 288 286 284 283 282 281 282 282 282 282 281 280 282 282 283
316 316 315 314 312 312 311 309 308 306 304 303 303 302 301 299 298 296 295 295 295 293 292 290 290 290 289 288 286 283 282 281 280 280 280 280 280 280 282 283 285 286 286
314 314 314 312 311 311 310 308 306 304 303 301 300 297 296 296 296 295 292 291 290 290 290 289 289 289 287 286 284 283 281 279 279 279 279 278 279 282 282 283 283 285 286
313 312 311 311 310 309 308 305 302 301 300 298 296 294 292 291 290 290 289 289 289 289 287 287 288 286 285 284 283 281 277 278 278 277 277 278 280 282 280 280 281 282 283
311 310 310 309 307 304 302 301 300 299 297 295 292 290 289 289 288 288 287 287 286 285 285 284 283 283 283 280 279 276 276 277 277 276 277 279 280 279 279 278 279 279 280
309 308 306 303 300 299 298 297 297 295 293 291 290 289 288 287 287 287 285 283 283 282 281 279 278 279 278 277 276 275 276 276 277 277 278 279 279 278 278 277 277 277 277

GFSMW_925_thetae_075.txt.gz
Theta_e
324 323 321 320 319 318 317 316 314 313 313 314 315 317 318 318 316 319 322 322 321 324 324 326 324 322 320 320 318 316 315 313 310 311 309 309 309 308 307 307 306 305 304
325 323 321 320 319 318 318 316 315 314 315 315 317 319 319 320 320 323 323 323 324 323 325 326 325 322 320 319 318 316 315 312 311 311 311 308 309 309 308 307 307 306 305
326 325 322 320 320 319 318 317 316 316 316 317 317 319 322 323 323 323 325 325 325 324 325 325 325 325 322 320 317 316 315 311 311 311 311 306 307 307 309 308 308 307 306
325 325 324 322 321 320 319 317 317 317 317 321 324 324 323 322 321 321 322 325 326 325 326 326 326 325 323 320 319 318 316 313 312 311 310 309 307 304 305 306 307 307 306
326 323 323 322 319 319 318 318 318 321 326 326 326 325 323 322 322 322 324 326 326 326 327 326 325 325 322 320 320 317 315 313 313 311 309 307 306 305 304 303 304 304 304
327 325 323 322 319 320 320 321 322 324 327 327 326 327 323 322 322 323 326 327 327 326 327 326 325 325 323 321 320 319 316 314 313 312 309 306 305 304 304 303 302 301 302
326 326 325 324 322 321 321 321 323 326 328 328 328 328 325 323 322 322 327 328 328 327 326 325 325 325 323 321 320 318 315 314 312 309 307 306 305 305 304 302 300 299 300
326 326 326 326 325 324 324 325 326 327 327 328 328 327 326 323 324 324 326 327 328 327 325 325 325 323 322 320 319 316 314 311 310 308 306 305 304 304 303 301 301 297 297
327 326 327 327 327 327 325 326 329 328 328 329 329 327 327 326 325 325 327 328 327 327 326 325 323 321 320 319 316 314 313 311 308 306 305 305 306 303 303 302 301 299 293
322 326 326 327 326 327 328 328 329 330 329 328 330 330 327 328 330 328 326 329 328 327 325 323 321 319 318 315 314 313 310 308 306 305 304 305 305 303 303 301 301 299 298
321 321 320 326 327 326 326 328 329 329 329 329 329 331 331 331 329 331 330 329 326 324 323 321 320 318 316 314 313 311 308 306 305 304 305 304 303 301 301 301 300 299 298
320 320 322 322 327 328 328 329 330 330 330 330 329 330 331 332 331 330 328 326 323 321 321 319 317 316 314 312 311 308 305 305 305 304 302 303 301 300 300 300 299 299 298
319 320 321 322 322 327 329 330 331 330 323 328 330 331 331 330 329 327 327 324 322 321 319 318 315 313 311 310 307 305 305 304 303 302 301 300 300 300 300 300 299 299 298
318 321 321 321 323 328 329 331 330 331 330 330 331 328 324 326 323 322 322 322 321 319 316 314 313 310 308 306 305 305 303 302 301 300 300 300 300 300 299 299 298 298 297
317 317 321 321 327 325 322 321 319 320 320 319 317 316 318 320 319 317 317 316 314 313 311 309 307 306 305 305 302 302 301 300 300 300 300 298 297 296 296 295 295 295 296
321 322 323 329 327 322 318 316 316 316 317 315 312 313 313 313 313 312 310 309 308 307 307 306 305 303 301 301 302 300 299 298 297 297 296 295 294 293 294 293 292 290 288
321 322 330 328 323 319 316 313 313 315 314 312 310 310 310 309 308 307 306 306 305 305 304 303 302 302 301 300 299 298 298 296 293 292 292 292 291 291 290 290 290 289 288
321 327 325 321 317 315 313 313 312 311 309 308 307 306 305 304 304 304 305 304 303 303 302 301 300 299 300 300 298 297 293 292 292 291 290 289 288 287 285 284 283 283 282
320 322 321 318 315 314 313 311 310 309 308 307 305 304 304 303 304 304 303 303 301 301 301 301 301 299 294 293 292 292 291 291 289 287 286 283 282 282 282 282 280 280 281
321 321 319 316 315 313 312 311 310 308 307 305 304 303 303 303 302 302 301 300 301 302 300 295 295 293 292 291 290 289 288 286 284 284 281 280 280 280 279 280 281 282 283
319 320 318 316 315 313 311 310 309 307 306 304 303 302 302 302 301 300 301 301 301 295 294 293 292 291 291 289 288 287 285 284 282 280 279 279 279 279 280 282 282 283 283
316 317 315 314 315 314 311 309 307 306 304 303 303 302 301 302 302 301 299 296 295 295 293 292 290 289 288 288 286 285 283 281 279 279 279 278 277 280 281 281 280 280 280
314 314 311 311 312 311 308 306 305 304 303 302 302 301 299 298 296 295 294 294 293 292 290 289 289 287 284 283 283 283 282 279 278 277 277 277 279 281 280 279 278 278 279
311 311 310 309 309 309 307 305 304 303 302 299 296 295 294 293 292 291 290 290 289 289 288 288 287 285 283 282 282 281 279 277 277 277 277 278 279 279 278 277 277 277 277
309 310 308 303 301 301 302 302 301 300 296 293 292 290 289 289 288 288 288 288 287 287 286 285 285 284 283 281 280 278 277 277 277 277 277 278 279 278 277 276 276 275 275
307 302 299 298 295 291 292 295 296 294 290 289 288 288 287 288 286 286 284 284 283 282 282 280 279 279 279 278 277 276 276 277 277 277 278 278 277 276 275 275 275 274 274

GFSMW_925_thetae_078.txt.gz
Theta_e
320 321 320 319 318 318 318 318 317 317 317 317 316 316 314 313 314 315 317 316 320 323 323 324 324 322 321 321 319 317 316 315 311 309 308 307 307 307 306 306 305 304 305
323 321 320 318 317 317 317 317 317 318 317 319 317 315 314 312 313 313 314 315 318 319 322 323 325 323 322 320 319 318 317 315 312 310 309 307 309 308 307 306 305 304 304
323 322 320 318 317 317 317 316 316 317 315 315 314 314 313 313 313 313 313 316 321 322 322 323 323 325 323 321 319 319 317 315 312 310 310 306 307 306 308 308 307 307 306
324 322 320 319 318 318 318 317 315 314 314 313 315 316 317 317 317 317 317 318 322 322 322 323 323 325 325 323 320 319 317 316 312 310 310 310 308 304 305 306 307 307 307
325 323 321 320 319 319 318 317 316 315 315 315 316 317 319 320 320 321 321 323 325 324 324 324 324 325 325 325 324 320 317 316 315 312 310 308 305 305 304 304 305 305 306
325 323 322 320 320 319 318 317 316 316 316 317 317 320 319 321 322 322 321 322 323 324 325 325 325 325 325 325 322 321 319 317 316 313 311 307 307 305 305 303 303 303 304
324 324 323 321 320 319 318 317 316 317 317 318 319 321 323 323 322 321 321 322 323 324 325 325 325 326 326 325 324 321 320 316 316 312 308 310 308 308 305 303 302 300 300
325 322 323 322 319 318 318 317 317 317 319 320 324 325 324 324 323 322 321 323 324 324 325 326 326 326 325 324 323 320 319 319 314 311 313 311 309 307 306 305 301 300 298
325 324 322 322 321 317 317 318 319 320 321 322 324 326 326 325 324 323 321 322 324 324 325 326 326 325 325 323 321 320 319 314 313 314 311 310 308 306 306 307 304 301 299
324 325 325 323 322 321 319 319 320 320 322 323 325 326 326 326 325 323 323 322 323 325 325 325 325 324 323 323 320 318 316 314 314 311 310 307 306 306 306 305 304 302 300
325 324 324 325 325 323 322 322 321 322 324 325 326 327 326 327 326 323 323 324 325 324 324 325 325 323 321 320 318 316 315 313 311 308 306 306 305 305 303 303 302 300 299
321 323 324 324 325 326 325 325 324 325 326 327 327 327 328 328 326 327 326 324 324 322 317 322 323 321 319 316 315 314 312 310 307 305 304 304 302 302 302 300 300 300 299
318 316 317 320 324 325 325 326 326 326 327 328 328 328 328 329 329 328 325 327 325 320 321 321 319 318 316 314 313 312 310 307 305 305 303 302 301 300 299 300 300 299 299
317 317 317 319 322 325 325 325 326 328 328 328 328 327 328 328 329 326 326 324 323 322 319 319 318 316 314 312 310 308 306 304 303 302 301 300 300 300 300 298 297 297 296
315 317 318 321 325 324 325 326 327 328 328 328 326 322 322 322 321 320 321 321 320 319 318 315 313 311 310 308 306 305 304 302 301 300 300 298 295 294 294 294 293 293 292
317 317 317 326 324 320 318 318 317 317 322 322 320 318 317 317 316 317 316 316 315 312 311 309 309 307 306 305 304 302 301 300 299 297 295 293 293 292 291 291 290 289 287
317 322 323 325 322 318 316 315 315 316 316 314 313 314 313 313 313 313 312 310 309 308 307 306 305 304 303 302 301 300 298 297 295 293 292 291 290 290 289 288 286 284 282
321 326 323 317 315 314 313 313 314 314 312 312 311 311 312 311 309 308 307 307 307 306 305 304 302 301 301 300 299 297 296 294 292 291 290 289 287 285 284 283 281 280 280
322 321 319 315 313 312 311 311 311 311 310 308 308 308 307 306 305 305 305 305 304 303 302 301 300 299 299 299 298 296 293 291 290 287 285 283 282 281 280 279 280 281 282
321 318 316 314 314 312 312 310 309 309 307 306 306 306 306 306 304 304 304 303 303 301 300 299 299 298 293 292 292 291 290 289 286 284 282 280 279 279 278 281 281 281 281
319 317 315 313 312 312 312 309 308 307 306 305 305 304 303 303 303 303 302 301 300 300 300 298 293 291 291 289 289 288 287 286 284 282 279 279 278 278 280 281 280 280 279
316 316 314 312 311 311 310 308 307 305 304 303 302 302 302 302 302 301 300 300 298 295 293 291 289 288 287 286 285 286 285 284 282 279 278 278 277 279 280 279 279 278 277
311 312 312 310 311 310 309 305 304 304 303 303 301 301 301 300 300 300 299 295 293 291 290 289 286 285 283 283 282 283 282 280 278 277 277 277 278 280 279 278 277 276 275
309 309 309 307 306 307 306 305 304 304 302 299 296 295 295 293 293 293 293 291 290 289 289 287 285 283 282 282 282 281 280 277 277 277 277 277 278 278 277 276 276 275 274
308 305 302 299 298 302 301 301 300 301 293 290 289 289 289 289 288 287 286 286 286 287 287 286 285 284 282 281 280 278 277 277 277 277 277 278 277 276 275 275 274 273 273
299 292 291 290 290 290 291 292 292 291 289 287 287 287 286 285 285 284 283 283 282 282 282 281 281 280 279 278 277 277 277 277 277 277 276 276 275 274 273 273 273 272 272

GFSMW_925_thetae_084.txt.gz
Theta_e
320 322 321 320 319 319 320 320 319 318 319 320 321 321 320 320 318 317 317 321 320 316 316 316 316 316 316 317 317 317 316 313 311 309 306 305 305 306 306 306 306 306 306
320 320 320 319 319 318 319 319 318 318 319 319 320 321 319 320 322 320 319 320 317 316 316 316 316 317 318 318 317 318 316 315 314 309 306 306 306 306 306 305 305 306 306
319 319 319 319 319 318 318 318 318 317 318 320 322 320 319 320 322 321 316 319 318 319 320 321 322 322 320 320 320 319 318 317 314 311 310 306 307 306 307 306 305 305 305
319 318 320 318 318 318 317 318 318 317 316 318 320 318 319 319 319 317 320 321 322 322 321 323 322 323 323 323 323 321 320 318 315 310 310 309 309 309 308 307 307 306 305
319 318 318 318 318 317 316 317 317 317 316 316 316 316 318 318 316 318 315 316 315 315 316 317 318 320 321 322 323 322 320 318 317 315 312 308 308 307 307 309 304 304 307
320 319 318 318 317 316 316 316 317 316 315 315 316 315 315 316 316 316 313 313 314 315 314 313 315 320 321 321 322 322 321 320 318 317 316 313 309 306 306 306 307 307 306
320 320 319 318 317 316 315 315 315 315 316 316 315 315 315 314 314 316 315 313 313 313 314 314 316 318 319 322 323 323 322 322 321 320 317 315 314 312 309 309 308 306 307
322 321 319 318 317 316 315 316 315 315 316 317 317 317 317 316 316 316 317 315 315 314 313 314 317 317 319 321 323 323 323 323 322 321 319 317 314 312 312 311 309 303 302
322 322 321 319 318 317 316 316 316 316 316 316 316 316 316 316 315 316 316 316 316 315 315 316 318 320 321 322 323 323 322 322 322 321 319 315 315 313 312 311 310 308 305
321 322 321 321 319 318 317 317 316 316 315 315 315 315 315 314 314 314 315 315 315 316 317 319 320 321 321 322 322 323 323 322 320 316 317 315 314 313 312 311 308 307 305
321 321 322 322 321 319 318 317 316 316 315 315 314 314 314 314 314 314 315 316 317 319 320 321 321 321 322 322 323 322 322 320 320 319 315 313 314 312 310 308 306 305 305
320 320 320 320 321 320 318 317 316 316 316 315 315 315 315 315 315 317 317 318 319 320 321 322 321 322 323 321 322 321 321 320 320 317 314 312 311 309 308 306 305 304 303
320 319 319 320 320 321 320 318 317 316 316 316 316 316 316 317 318 319 320 322 323 323 323 322 322 323 322 322 320 319 319 319 313 312 312 310 309 306 305 304 303 301 300
317 318 318 319 320 320 320 320 318 317 317 317 317 317 318 319 320 321 322 323 323 323 322 321 322 322 320 321 317 315 317 315 313 311 309 308 307 305 304 302 300 299 298
313 316 319 318 318 320 321 320 320 319 317 317 317 318 318 320 321 322 323 323 323 323 322 321 321 321 320 319 315 314 314 311 308 306 304 303 302 301 300 299 299 296 293
310 313 315 316 316 318 319 321 321 321 320 319 319 319 320 322 323 322 321 322 322 322 321 320 319 318 317 316 314 311 308 305 304 302 301 300 300 299 297 295 293 291 290
311 311 314 314 315 317 318 318 317 318 321 320 319 318 318 318 319 319 320 321 321 319 317 315 314 311 310 307 306 306 305 304 302 299 296 293 291 292 290 289 288 285 282
311 310 311 315 316 318 317 315 316 316 317 316 315 315 316 317 317 317 316 315 313 311 309 308 306 306 304 302 303 303 302 299 295 293 291 290 289 287 287 285 283 281 281
312 310 314 316 314 314 314 314 314 314 314 313 313 314 314 314 312 310 308 306 305 304 303 303 303 302 300 300 300 300 297 294 291 289 288 286 285 283 281 280 280 280 281
314 314 315 315 314 313 314 313 311 311 309 309 309 309 308 307 306 305 304 303 303 301 301 299 299 299 297 297 297 296 294 289 286 284 283 281 281 279 279 279 280 280 280
312 312 313 312 312 312 313 311 310 307 307 308 307 306 306 305 304 302 302 301 300 298 296 295 292 292 292 291 291 290 289 287 285 283 281 280 278 278 279 280 280 279 278
312 311 310 309 310 311 310 307 305 304 304 304 303 302 302 301 301 301 299 298 297 294 290 289 287 286 286 286 286 286 286 284 284 282 280 279 278 278 279 280 279 278 277
312 310 309 308 307 308 308 303 302 304 303 302 300 300 299 299 298 298 297 296 295 292 288 287 284 283 283 284 285 286 284 283 281 279 278 277 277 278 279 278 277 277 275
309 309 307 305 303 303 303 303 303 304 302 297 294 294 293 292 292 291 291 290 289 288 287 285 284 282 282 283 282 280 280 279 278 278 277 277 278 278 278 277 276 275 274
301 302 301 300 298 296 296 298 297 297 292 290 288 287 286 285 284 284 285 286 287 288 287 286 285 284 283 282 281 280 279 278 278 277 277 277 277 276 276 275 274 273 272
293 292 290 289 288 288 288 290 290 291 288 286 285 285 284 285 286 285 284 284 284 284 284 284 284 283 281 280 278 279 279 278 278 277 276 276 275 274 274 273 273 272 271

GFSMW_925_thetae_087.txt.gz
Theta_e
321 322 322 321 320 320 320 321 320 320 319 319 320 321 321 320 318 317 316 321 319 317 316 316 316 315 316 317 317 314 312 310 308 307 307 306 305 306 306 306 306 306 307
321 322 321 321 320 319 319 319 320 320 320 320 319 319 320 322 321 320 318 318 319 317 317 316 316 316 316 317 317 316 315 314 310 311 310 314 310 306 306 306 306 306 307
323 322 320 320 320 319 319 318 319 319 319 320 320 318 319 321 318 317 319 318 317 316 316 316 316 316 316 316 316 317 317 317 314 311 315 314 317 312 309 307 305 305 305
322 321 319 319 320 319 319 318 318 318 319 319 320 318 318 320 319 316 317 319 316 316 317 316 316 316 316 317 317 319 317 317 316 311 311 313 313 318 317 308 308 306 305
323 322 321 319 318 319 318 319 318 317 318 320 319 319 318 318 320 319 319 319 319 317 316 316 317 320 320 320 321 320 320 320 318 316 313 311 310 310 313 317 311 307 307
323 322 321 319 318 318 318 317 317 317 317 319 319 319 320 319 319 319 318 318 319 321 321 321 321 322 322 322 322 322 322 321 319 317 316 315 315 312 311 312 312 310 309
325 323 322 320 319 318 317 317 316 318 317 316 318 317 317 318 317 317 316 316 317 319 316 316 318 318 317 318 319 321 321 321 320 319 318 315 316 317 312 311 310 312 311
324 325 322 321 320 318 317 316 316 317 317 317 317 316 317 317 317 316 316 316 316 315 314 314 314 314 314 315 316 319 320 321 320 319 319 317 315 313 313 312 312 307 308
325 325 323 321 320 319 317 316 315 316 317 317 316 316 316 316 316 316 316 316 316 316 315 314 314 314 314 316 319 321 321 321 321 321 321 320 317 315 312 312 312 312 308
324 325 324 322 321 319 318 316 316 316 318 317 317 317 316 316 316 315 315 315 315 315 317 317 316 316 316 318 320 321 321 320 319 320 320 318 316 317 313 311 310 311 310
325 325 325 323 322 321 319 318 317 318 317 317 317 317 317 317 317 316 317 317 317 317 317 318 318 316 317 319 320 320 321 321 320 320 319 317 317 317 313 311 310 309 307
324 324 325 324 322 321 320 319 318 318 317 317 316 316 317 317 317 317 317 317 316 316 316 316 316 316 317 318 320 321 319 319 319 318 316 314 314 315 311 309 309 306 306
322 323 324 324 324 322 321 320 319 318 318 317 316 315 315 315 315 315 315 315 314 316 317 317 317 317 319 321 321 321 320 319 319 316 316 316 313 312 309 307 306 306 304
317 323 323 324 323 323 322 321 320 319 318 317 316 316 316 315 315 315 315 315 317 319 320 320 320 321 321 321 321 321 318 317 317 316 315 312 309 308 307 306 305 303 301
315 318 323 323 323 322 322 322 321 319 318 317 317 317 316 316 317 317 317 318 319 320 321 321 321 322 321 321 321 320 317 315 313 311 307 306 306 306 306 303 302 300 298
317 315 318 321 322 322 321 321 320 319 318 318 317 317 317 317 318 319 319 320 320 321 321 322 322 322 321 320 320 318 314 310 307 305 302 302 302 301 300 299 297 296 292
317 316 315 317 320 320 320 320 319 319 318 318 317 316 316 317 317 318 319 320 320 321 320 319 317 316 315 314 311 309 308 305 302 300 298 297 295 295 293 292 290 290 290
317 316 315 315 316 317 317 317 316 316 316 316 315 317 318 317 318 318 317 316 314 312 310 309 308 307 305 304 303 303 302 299 296 295 293 292 289 288 290 291 288 284 282
316 316 313 316 315 316 316 316 315 315 316 315 315 315 315 314 313 311 309 307 307 304 303 301 301 301 298 300 300 300 296 293 290 289 289 290 289 289 286 282 282 282 282
314 316 316 315 315 315 315 315 313 311 309 310 310 310 310 309 307 305 304 303 302 300 299 297 296 295 295 296 297 296 293 289 286 284 284 284 282 280 280 280 282 282 281
316 316 315 315 314 314 313 311 309 306 306 307 307 307 306 305 304 303 302 301 298 297 294 292 291 291 291 290 290 290 288 285 283 282 281 280 279 279 279 280 281 281 279
312 312 312 312 312 311 309 306 304 304 304 304 302 301 301 300 300 300 296 296 294 292 288 287 285 284 284 285 285 286 285 285 284 281 280 279 279 278 279 280 279 279 278
310 311 310 309 307 306 306 304 302 301 301 299 296 295 295 294 294 293 292 290 289 287 286 284 283 282 284 284 285 285 284 282 281 279 278 278 278 278 279 279 278 277 277
307 305 304 303 302 302 302 301 299 298 295 292 290 289 289 289 289 289 289 288 287 286 286 285 283 283 282 282 282 281 281 280 280 279 279 278 278 278 278 278 277 277 276
301 299 296 294 294 293 294 294 293 292 290 288 286 286 286 286 285 285 285 286 286 287 285 284 284 284 283 280 280 280 280 279 278 279 279 279 278 278 277 277 276 275 274
293 293 292 291 290 290 290 290 290 289 288 286 286 286 286 285 284 284 283 282 282 282 282 282 282 281 280 279 279 279 278 278 277 278 278 277 277 276 276 275 275 274 273

GFSMW_925_thetae_090.txt.gz
Theta_e
328 325 324 323 323 321 321 321 321 320 322 322 322 322 322 321 322 321 320 317 316 316 314 313 315 316 317 318 317 316 315 313 312 310 311 311 311 312 312 311 311 311 314
328 326 325 324 323 322 320 321 323 321 322 321 321 321 321 321 322 321 320 319 316 317 318 318 319 319 318 318 318 316 316 316 313 316 318 320 316 313 312 312 312 312 311
329 327 325 324 322 323 322 320 321 321 322 322 320 320 319 319 319 320 319 319 315 319 320 320 319 319 320 320 319 319 320 320 318 316 320 323 323 321 317 313 312 311 311
329 327 326 324 323 323 322 322 320 320 321 320 320 320 320 321 319 319 318 320 321 321 320 320 320 320 318 319 321 321 321 321 322 319 317 318 320 323 323 317 314 312 309
329 328 326 323 322 322 323 322 321 320 320 321 320 319 319 322 320 320 318 319 318 317 318 320 320 320 320 320 321 321 321 321 322 322 321 318 319 319 321 323 320 314 312
329 328 326 324 323 321 322 322 321 320 319 320 320 319 318 320 320 319 319 318 317 317 317 319 321 321 321 321 322 323 323 323 323 323 322 321 321 320 320 321 320 321 319
330 329 327 326 323 321 321 322 321 321 320 321 320 320 320 318 321 319 319 320 319 318 318 320 321 322 323 324 325 325 324 324 324 324 323 322 322 322 322 321 320 321 317
330 330 328 327 324 322 321 320 320 321 320 321 321 322 322 320 320 321 320 319 319 320 321 322 322 323 324 325 324 323 323 322 323 323 323 323 323 322 321 320 314 313 311
329 330 329 327 325 323 322 321 320 321 321 321 321 321 321 322 321 320 322 322 320 320 320 321 321 321 321 320 320 321 321 322 323 324 324 323 323 322 319 317 316 315 315
329 329 330 328 326 324 322 321 320 320 321 322 322 322 322 321 321 320 320 320 320 319 319 320 320 320 319 320 320 321 322 323 323 322 321 321 320 319 317 318 314 313 313
330 329 329 328 327 326 323 322 320 320 320 322 322 322 322 321 320 321 321 320 319 319 319 319 320 321 320 320 320 321 323 321 319 318 317 316 318 318 315 315 313 312 311
329 329 329 328 328 327 325 323 321 321 321 322 322 322 322 322 321 321 321 321 321 320 320 320 320 320 320 321 321 321 318 318 319 316 318 318 317 315 315 313 311 310 310
327 328 329 329 329 328 327 325 323 322 322 321 321 322 322 322 322 322 321 321 321 321 321 321 321 321 321 321 321 318 317 317 320 320 319 318 316 315 314 312 309 309 307
324 327 328 329 328 328 327 327 326 324 322 321 321 321 321 321 321 321 321 321 321 320 320 319 320 320 320 321 321 321 320 321 321 319 318 318 315 315 313 310 308 306 305
320 326 327 328 329 328 328 327 326 325 324 322 321 321 321 320 320 320 320 319 318 318 319 320 321 322 323 323 323 322 321 320 318 316 315 312 311 310 308 307 305 304 302
322 322 322 326 328 328 328 327 326 326 324 324 323 322 321 320 320 320 320 320 320 321 321 322 323 323 322 322 321 320 318 316 313 310 306 304 303 303 303 301 301 299 298
321 321 322 321 325 326 326 327 326 325 324 324 323 322 322 321 321 321 321 321 322 322 322 321 320 317 316 315 314 312 310 308 304 300 298 296 294 296 295 297 294 291 291
320 320 321 322 320 323 325 325 325 324 323 323 322 322 321 321 320 320 319 318 316 314 311 309 308 307 304 305 306 306 303 299 295 293 292 291 290 289 290 289 288 286 285
319 320 319 320 321 321 323 323 323 323 323 321 318 318 318 316 315 313 311 308 308 305 303 301 300 299 296 300 301 301 295 292 289 289 288 288 287 283 283 284 284 284 284
318 318 318 319 320 321 321 321 320 319 315 313 313 314 314 312 309 306 304 301 301 296 294 292 291 291 291 292 294 294 290 287 285 283 283 282 282 281 281 283 284 284 284
320 319 319 320 320 320 319 317 312 309 307 307 306 306 305 304 302 300 299 296 293 291 289 288 287 287 287 286 288 288 286 284 284 283 282 281 282 282 281 281 283 283 282
317 317 317 316 317 316 312 308 305 304 302 301 300 299 298 297 296 294 291 290 289 287 285 285 284 285 286 287 287 287 287 286 284 283 282 281 280 280 280 281 280 279 279
312 313 311 309 309 309 306 303 300 298 297 295 294 292 292 292 292 291 289 288 287 286 285 285 284 283 282 283 284 284 284 283 282 281 280 280 279 280 280 279 279 278 280
308 306 302 302 302 302 301 300 299 297 294 292 291 290 289 288 288 288 288 288 287 286 286 285 284 284 284 284 284 283 283 282 282 281 281 280 280 280 279 279 279 279 278
301 299 297 297 297 297 297 297 297 295 291 289 289 288 287 286 285 284 284 284 286 286 286 287 287 286 283 281 280 281 281 280 279 281 281 281 280 280 279 279 278 277 277
296 295 296 296 296 296 296 295 293 292 291 290 289 287 286 285 284 283 282 281 281 282 282 282 282 280 279 278 278 278 277 277 278 280 279 279 278 278 277 277 276 275 275

GFSMW_925_thetae_093.txt.gz
Theta_e
331 330 328 326 326 325 325 325 322 323 323 323 322 323 323 324 323 322 321 321 320 319 319 319 317 316 316 315 316 317 317 317 316 314 314 315 315 314 314 314 316 316 317
332 330 329 326 325 324 324 325 325 323 324 324 324 321 321 322 321 320 319 319 318 317 317 317 316 316 317 316 317 318 318 318 315 315 318 321 317 315 315 315 314 314 314
333 331 329 327 325 324 324 324 325 324 324 322 322 321 321 320 319 318 316 315 316 317 315 314 316 318 318 320 321 320 319 320 317 317 321 324 324 321 317 316 316 316 315
332 330 329 328 325 326 325 323 324 323 324 324 323 321 321 321 320 320 319 320 319 319 319 319 319 319 321 322 320 320 319 322 322 321 320 321 322 324 324 320 318 317 316
331 331 330 327 326 325 326 324 323 322 323 323 323 323 321 320 321 320 320 320 317 315 317 317 321 321 321 321 319 321 323 323 323 323 323 321 321 321 322 323 321 320 318
331 330 329 326 326 325 324 325 323 322 322 323 323 323 320 320 320 320 319 319 318 316 317 320 321 322 322 322 322 322 322 323 323 324 323 323 322 321 322 324 322 322 320
331 331 330 327 326 326 324 324 324 323 322 323 323 323 321 322 320 321 319 319 319 319 318 320 321 322 322 322 322 323 323 324 324 324 324 323 322 323 323 323 324 324 322
331 331 330 329 326 326 325 324 323 323 323 322 323 322 321 320 320 320 320 318 319 318 318 317 319 321 322 323 323 324 325 324 324 324 325 324 323 322 321 323 324 324 321
331 331 330 330 326 325 325 325 324 324 323 323 322 322 320 320 320 322 321 320 317 318 318 318 319 320 322 323 324 325 324 323 323 323 324 324 324 324 324 324 323 322 321
330 331 331 331 328 326 325 324 324 324 323 324 324 323 323 323 322 322 322 322 321 320 320 321 321 322 323 323 324 324 323 322 323 323 323 324 324 323 322 321 321 319 318
330 330 331 330 330 327 326 325 324 323 324 324 324 324 323 323 323 323 323 323 323 322 321 322 322 323 323 323 323 323 323 323 323 323 324 323 322 319 317 318 318 317 316
330 330 330 331 330 329 327 325 324 324 324 324 324 324 324 324 323 324 323 323 323 323 322 322 321 321 322 322 322 322 322 323 323 323 323 320 318 318 318 318 316 315 314
328 330 330 331 331 330 329 327 325 324 323 324 324 325 325 325 325 324 323 323 323 322 322 322 322 322 322 322 323 323 323 323 323 323 320 317 317 320 318 317 315 314 313
325 327 329 330 331 330 330 328 327 325 324 323 324 325 325 325 325 325 324 324 324 324 324 323 323 323 323 323 323 323 323 323 322 320 319 319 321 320 318 317 315 314 312
322 324 328 330 331 330 330 330 329 327 325 324 324 324 325 325 325 325 325 324 324 324 323 323 323 323 322 322 322 322 322 323 323 320 318 315 313 313 313 312 309 308 305
321 323 324 327 329 330 330 330 329 329 328 326 325 324 324 324 324 324 324 324 323 323 322 322 321 321 321 321 323 324 323 321 317 312 305 302 301 300 302 303 302 300 298
321 322 323 324 325 328 329 330 329 329 329 327 326 325 324 324 324 323 323 322 323 322 319 318 319 318 316 316 317 314 312 308 302 299 297 294 292 293 292 292 292 292 291
322 322 322 322 322 323 327 329 329 329 328 328 327 326 325 324 324 323 323 318 318 316 313 309 308 306 302 302 304 304 300 296 292 291 289 290 289 289 290 290 289 288 288
322 321 320 320 321 322 324 328 329 328 328 327 327 326 325 325 320 317 315 311 312 305 301 297 296 295 293 296 297 298 293 290 288 288 288 287 287 288 289 288 286 285 285
322 322 321 320 321 324 324 326 327 327 326 326 323 321 317 316 310 307 304 301 299 294 292 289 289 289 289 291 293 292 290 287 285 285 285 285 285 283 284 285 285 285 286
320 320 321 321 322 323 324 325 324 315 310 310 309 306 305 303 300 297 294 292 289 288 287 286 286 287 287 287 288 289 288 286 285 283 283 282 282 282 282 283 283 282 281
317 319 321 322 322 322 317 310 306 303 302 300 299 297 296 294 294 292 290 289 288 286 285 285 284 285 286 287 287 287 286 285 285 285 284 281 280 281 280 282 280 279 280
313 313 314 313 311 309 305 301 298 297 296 294 293 293 292 291 291 289 288 288 287 287 286 285 284 283 283 284 283 283 283 283 282 281 281 281 281 282 280 280 279 280 281
307 306 306 304 304 302 300 298 296 294 293 292 290 290 289 288 288 288 288 288 287 286 286 285 285 285 284 284 284 284 283 283 283 282 282 281 281 281 281 281 280 280 279
300 300 300 300 300 298 297 295 294 292 291 290 289 288 286 285 284 284 285 285 287 287 287 286 285 283 281 280 280 280 280 280 280 283 282 281 281 280 279 279 278 278 277
295 297 297 298 299 299 297 296 295 293 291 290 288 286 285 284 283 283 282 282 282 282 282 281 280 279 279 278 278 277 277 278 279 281 280 279 278 277 277 276 276 275 274

GFSMW_925_thetae_096.txt.gz
Theta_e
332 332 330 328 327 325 325 324 325 324 324 323 324 326 327 327 327 326 324 326 324 324 323 322 323 322 322 321 319 318 318 317 317 316 316 315 315 316 318 318 318 318 319
334 332 330 327 326 325 325 325 323 324 324 323 322 324 325 325 324 323 324 324 323 321 320 321 319 318 318 317 318 317 317 317 317 314 314 316 316 315 315 314 315 317 317
334 332 331 328 326 325 324 325 325 325 324 322 322 322 322 321 321 321 320 320 319 320 319 319 317 318 316 316 317 317 317 317 316 315 319 322 322 318 316 315 315 314 314
334 332 331 328 326 325 324 325 325 325 323 323 323 322 322 321 320 320 319 319 319 319 318 317 317 316 316 318 319 319 319 319 318 316 316 319 322 321 321 317 316 316 316
333 332 330 329 327 326 326 325 324 325 324 324 323 322 321 320 318 317 317 317 317 316 317 316 315 317 319 319 321 321 320 320 323 321 322 320 320 321 322 321 321 318 317
332 331 330 328 327 326 325 325 324 324 324 324 323 322 321 320 318 317 316 316 317 318 318 317 318 319 319 320 318 320 319 320 322 323 323 323 322 322 322 320 321 321 320
332 331 330 328 328 326 325 325 324 323 324 324 324 323 322 320 319 318 317 317 317 318 318 317 318 319 320 319 318 320 319 322 322 322 322 321 323 322 322 322 321 320 321
332 331 330 327 328 327 325 324 324 323 323 324 324 323 321 321 320 319 319 319 318 317 317 316 316 317 320 321 322 322 322 323 323 322 322 322 322 322 322 322 322 320 320
331 331 331 328 327 327 326 325 325 324 322 324 324 323 322 321 321 320 319 319 318 317 316 316 317 318 319 320 321 322 322 323 322 322 322 323 322 323 324 323 322 321 320
331 331 331 330 327 327 326 326 325 324 323 322 324 323 322 321 321 320 320 319 319 318 317 315 315 315 320 321 322 321 322 323 323 321 322 323 323 323 323 323 321 322 321
330 331 331 331 328 328 327 327 326 325 324 324 323 323 322 321 321 321 321 321 319 318 318 318 318 318 318 318 321 321 323 322 322 323 323 323 324 324 324 323 323 320 318
329 330 330 332 330 328 327 327 326 325 325 325 324 324 323 322 321 322 322 322 322 320 318 318 321 320 320 321 322 322 323 324 324 323 323 324 324 324 324 322 319 317 318
328 330 330 332 332 330 328 327 326 326 326 325 325 325 324 324 324 324 323 323 323 323 322 321 321 323 323 323 323 323 323 323 323 323 323 323 323 323 321 319 317 318 318
324 329 330 330 332 331 330 328 327 326 325 326 326 325 326 325 324 324 324 323 324 324 324 323 323 323 323 323 323 323 323 323 323 323 323 322 320 317 317 317 317 316 315
321 323 327 329 330 331 331 330 328 326 326 325 326 327 326 326 326 325 325 325 324 323 323 322 322 322 323 323 323 323 323 323 323 318 314 306 304 304 307 308 308 307 305
319 320 322 326 329 330 331 331 330 328 326 325 325 326 327 326 326 326 326 325 325 325 325 325 324 325 320 319 321 321 322 320 315 306 299 295 296 295 296 296 297 298 296
319 319 322 324 327 330 331 331 331 329 327 326 325 325 327 327 326 326 326 326 326 325 325 321 319 316 313 312 316 320 315 308 300 296 294 292 292 292 292 293 293 293 292
324 324 323 322 323 324 330 331 331 331 330 328 327 326 326 326 326 326 326 324 321 318 314 310 308 306 301 303 306 307 301 296 293 292 291 290 289 289 290 290 289 289 288
323 322 321 322 322 321 320 329 330 330 331 330 329 327 326 326 325 320 312 311 312 305 302 299 298 297 293 296 299 300 294 290 288 288 288 288 287 287 287 287 286 286 285
319 319 319 320 322 321 322 324 329 330 330 329 328 328 326 318 310 308 304 299 297 293 291 290 290 290 290 292 293 293 290 287 286 285 285 286 285 285 285 285 284 283 281
316 316 318 320 322 323 323 324 317 314 311 314 311 309 308 307 304 298 295 294 291 289 288 287 287 287 288 288 289 288 287 285 284 283 282 281 281 282 282 280 280 280 282
313 313 315 316 314 313 312 308 305 303 304 304 301 297 296 295 295 294 290 288 287 286 285 285 285 285 286 286 286 286 286 285 284 282 281 282 282 281 280 280 280 281 280
309 308 308 309 306 306 304 300 298 298 297 296 293 292 291 290 290 289 288 288 287 286 285 285 284 283 283 283 283 283 283 282 282 282 282 282 282 282 281 280 280 279 278
302 302 303 303 300 299 298 297 295 295 293 292 291 290 290 289 289 288 288 287 287 286 286 286 285 283 283 284 283 283 282 283 283 282 282 281 281 280 279 279 278 277 276
298 298 299 299 297 296 294 294 293 291 290 289 288 287 286 285 285 284 285 285 286 286 284 283 282 280 280 279 280 280 280 281 282 282 280 279 278 278 277 276 275 274 274
290 289 288 291 295 296 294 292 291 289 288 287 286 285 284 284 283 282 281 280 281 282 281 280 279 279 279 278 278 278 278 279 280 279 277 276 276 275 274 274 273 272 271

GFSMW_925_thetae_099.txt.gz
Theta_e
330 328 327 327 326 325 325 324 324 326 324 323 323 324 326 327 326 328 328 328 327 327 326 322 326 323 324 324 322 319 319 318 318 318 317 317 318 318 318 319 319 318 318
330 327 325 325 325 325 323 324 325 324 323 324 324 326 326 326 326 327 327 327 326 326 326 326 325 326 324 323 322 319 318 317 317 316 316 314 315 315 317 318 318 319 319
330 328 326 324 324 324 324 324 324 324 323 323 323 325 325 327 326 325 325 325 325 322 325 325 324 324 322 321 319 318 317 316 315 316 314 318 317 315 315 315 316 317 317
330 328 326 324 323 324 324 324 324 324 324 323 322 323 323 323 323 324 324 324 323 320 321 323 324 323 320 318 318 317 317 317 316 315 317 321 322 320 318 316 315 314 314
329 329 326 324 323 324 323 325 325 324 323 322 322 322 322 322 321 320 320 320 320 319 318 318 319 318 317 319 318 317 317 317 318 316 316 317 318 320 319 318 318 316 315
329 328 326 325 323 324 323 325 325 324 324 323 322 322 321 320 319 319 319 319 319 319 318 317 317 316 316 316 317 318 319 319 320 319 320 320 320 320 320 317 319 319 321
329 328 326 325 324 324 325 325 324 325 323 323 322 321 321 320 319 318 318 318 318 318 317 316 316 314 314 317 319 320 319 320 319 321 322 322 322 322 321 321 319 318 321
329 328 327 325 325 324 324 324 323 324 324 324 322 321 321 319 318 318 317 317 317 316 316 315 314 314 318 319 319 320 319 320 319 319 320 321 321 322 322 322 320 317 317
328 327 326 326 325 324 324 323 323 323 323 324 323 322 320 319 318 317 316 315 316 316 318 315 316 317 319 319 319 319 319 319 319 320 320 321 320 321 321 322 321 321 320
327 327 325 326 325 324 324 324 323 322 322 323 324 322 321 319 319 317 317 317 316 316 317 318 316 317 317 317 319 319 319 321 320 320 321 322 322 321 322 322 321 322 321
328 328 326 325 326 325 324 324 323 323 322 322 324 323 321 321 320 318 318 318 318 317 316 317 317 316 315 316 318 319 318 321 321 321 321 322 322 321 321 322 322 322 321
325 327 327 325 326 325 325 324 324 323 322 321 322 322 321 321 321 320 319 318 318 318 317 316 316 316 316 316 317 319 321 321 322 321 321 322 322 322 323 323 323 323 323
318 326 328 326 326 325 325 325 325 324 323 322 322 322 322 321 321 320 320 319 319 318 318 317 317 316 315 316 316 317 319 319 321 321 321 322 322 322 322 323 322 321 319
316 321 328 328 326 326 326 326 326 324 324 323 323 323 323 322 320 320 321 321 320 320 319 318 318 318 318 318 318 319 320 321 322 321 321 320 320 319 318 316 314 313 312
321 318 317 327 328 326 326 326 325 325 325 324 324 323 323 323 322 321 321 322 322 322 322 320 319 319 319 322 322 322 322 322 321 316 313 309 306 305 306 306 304 305 303
324 323 322 321 322 328 326 326 325 325 324 324 324 324 324 323 323 322 323 324 322 323 323 323 323 322 322 322 322 322 321 319 313 308 301 298 297 297 297 298 296 297 297
322 322 320 320 319 320 328 327 326 325 324 324 325 324 324 324 324 323 323 323 324 323 323 323 321 318 316 315 319 319 317 312 304 298 294 292 291 292 292 293 292 292 291
320 319 317 317 318 319 320 327 327 326 325 324 324 325 325 325 325 325 324 324 324 323 319 315 312 311 307 308 313 315 307 297 293 292 291 290 289 289 289 289 287 286 285
317 316 316 316 318 317 317 320 325 327 325 324 324 324 325 325 325 325 321 319 316 309 305 301 300 300 295 297 299 303 295 291 288 288 288 287 287 286 287 286 284 283 283
314 313 314 316 314 312 313 316 319 325 326 325 325 325 324 325 322 313 310 305 304 298 296 294 293 292 291 292 294 294 290 286 284 284 284 284 285 284 283 282 282 282 282
312 310 311 312 309 308 308 304 305 305 304 310 315 317 315 310 306 301 296 294 293 292 289 288 288 288 288 288 289 289 287 285 283 282 282 282 281 280 281 281 281 280 279
306 306 307 307 305 304 305 300 299 299 300 300 299 298 297 296 296 295 291 289 288 287 287 286 286 286 286 286 286 285 284 283 282 282 282 281 281 280 281 280 279 278 277
301 301 303 303 301 300 300 298 297 298 297 295 293 292 292 291 290 290 288 288 287 286 286 285 284 284 283 283 283 282 282 282 282 282 282 281 280 280 279 278 277 276 275
297 297 299 299 297 296 295 295 294 294 293 292 291 290 289 289 288 288 288 287 286 286 285 284 284 283 283 283 283 282 282 282 281 281 281 279 278 277 276 275 274 273 272
292 291 291 296 295 294 293 292 291 291 289 288 287 286 285 284 283 284 285 284 284 283 282 281 281 280 280 281 282 282 282 282 279 279 278 277 276 274 274 273 272 271 270
288 288 288 289 290 292 291 290 289 288 287 286 285 284 283 282 282 281 281 281 281 281 281 280 280 279 279 279 280 280 280 279 279 276 274 273 273 272 272 271 270 270 270

GFSMW_925_thetae_102.txt.gz
Theta_e
329 326 326 327 327 326 325 325 325 325 325 325 326 326 328 327 329 328 328 329 328 323 319 315 311 313 318 320 318 318 318 318 318 318 316 318 319 319 319 319 318 317 316
327 326 325 324 325 325 324 324 325 325 324 323 323 324 325 327 327 327 327 328 327 323 319 318 316 317 319 321 320 319 318 318 318 317 315 314 314 318 319 319 319 319 318
328 327 325 323 324 324 324 324 324 324 322 322 322 324 324 326 326 326 325 327 326 325 321 320 319 320 319 322 320 319 317 317 317 317 315 314 314 313 315 317 318 318 319
328 327 325 322 323 323 324 324 324 323 323 321 323 324 325 326 326 327 325 325 327 325 322 324 323 322 321 322 320 319 317 317 316 316 315 318 318 315 317 315 315 316 317
328 327 325 323 322 324 323 323 324 323 323 322 322 324 324 325 325 325 325 325 325 326 325 324 324 323 323 322 320 319 317 318 316 316 315 319 319 320 317 316 316 315 315
328 326 324 322 322 323 324 324 323 323 323 321 321 323 322 322 323 323 323 320 320 322 325 324 323 324 322 318 318 317 317 316 315 315 315 316 317 318 319 316 317 318 319
328 326 324 322 322 322 323 324 324 324 323 322 321 321 322 321 322 322 321 320 319 319 321 323 323 323 320 319 319 319 317 317 317 317 318 317 320 320 319 319 318 317 320
328 326 324 322 322 322 323 324 324 324 323 323 322 321 321 321 320 321 320 319 319 319 319 318 320 319 319 320 320 318 318 319 319 320 320 320 321 321 321 321 320 315 316
328 326 325 323 323 322 322 323 324 324 323 323 322 321 321 320 320 320 319 319 319 318 317 317 316 317 317 317 317 318 319 318 319 319 319 319 319 320 320 320 321 320 318
328 327 325 324 323 323 322 323 323 324 324 324 323 321 320 320 319 319 318 318 317 317 316 316 316 314 314 315 314 316 319 319 319 318 319 319 319 319 320 320 320 321 320
327 326 326 324 324 323 322 322 322 322 323 324 323 322 320 319 319 319 318 317 317 318 318 316 316 315 314 314 317 318 318 318 319 318 320 320 319 319 319 320 321 321 321
317 326 325 325 324 323 323 322 321 321 322 322 323 322 321 320 319 318 317 316 315 316 317 317 315 315 315 317 318 318 318 319 319 318 319 320 320 320 320 321 321 321 321
319 322 325 326 324 323 323 322 322 321 321 322 323 323 322 320 319 319 317 317 317 315 316 316 316 316 315 315 316 317 317 318 319 319 319 320 320 320 320 321 321 320 320
321 321 324 324 325 325 324 323 322 322 321 321 321 323 322 321 320 320 318 317 318 318 316 316 316 316 316 316 316 316 315 315 316 318 319 319 319 318 318 316 316 313 310
322 320 320 322 321 325 325 324 323 322 322 321 321 321 322 321 320 320 319 319 318 318 317 317 317 316 316 316 316 316 315 316 317 316 315 313 311 311 310 308 305 304 303
320 318 318 318 319 320 324 325 324 323 322 322 321 321 321 322 320 320 319 319 319 319 318 317 317 317 317 317 317 317 317 318 317 312 306 302 300 300 300 299 298 298 297
318 317 316 317 318 317 316 318 325 324 323 323 322 322 321 322 321 320 320 320 320 320 320 321 319 318 317 318 318 319 320 317 310 305 300 297 295 294 293 292 292 290 289
317 315 314 315 314 312 312 314 321 324 324 323 323 323 322 322 322 321 321 321 321 320 321 320 319 317 314 313 316 318 315 306 298 295 293 292 290 290 290 289 287 285 284
313 312 311 313 310 308 309 311 311 315 324 324 323 323 323 323 322 322 321 321 320 318 315 312 310 310 305 306 311 315 307 296 291 290 290 289 288 287 287 286 283 283 282
308 307 308 308 306 305 306 307 306 306 307 316 323 323 323 323 323 319 316 314 313 308 303 299 298 296 295 294 294 295 291 287 286 285 285 285 285 283 283 283 283 281 281
304 303 304 305 303 302 303 302 302 301 302 304 312 319 321 320 314 310 307 304 299 295 292 291 290 289 289 287 287 288 287 285 283 282 281 281 282 282 282 281 280 279 279
300 300 301 302 299 298 300 300 298 299 300 302 300 301 304 304 302 303 296 293 292 290 288 287 286 286 286 285 284 284 284 283 282 281 281 281 281 280 279 278 277 277 276
296 296 299 299 297 296 296 297 296 296 296 297 295 293 293 293 293 291 290 289 289 288 287 286 285 284 284 283 285 285 284 283 282 281 281 280 278 278 277 276 275 274 273
292 292 294 297 295 294 293 293 293 293 292 291 291 290 290 289 289 289 288 287 287 285 285 284 283 283 282 282 283 283 282 282 281 281 280 278 276 275 274 273 272 271 271
290 290 290 291 294 292 291 290 290 290 287 286 285 285 284 284 284 284 284 284 284 283 283 282 282 282 282 282 282 282 281 280 279 278 277 275 274 273 272 271 270 270 269
288 288 288 289 289 290 289 288 288 287 286 285 284 284 283 283 283 283 282 283 284 284 283 282 282 282 282 282 282 281 280 279 279 277 274 272 272 271 270 270 270 269 269

GFSMW_925_thetae_105.txt.gz
Theta_e
328 326 326 328 329 330 329 327 325 325 326 326 325 327 326 327 328 329 327 325 325 325 322 320 322 313 313 315 313 317 316 318 318 318 317 317 317 317 316 316 315 314 313
326 326 325 325 326 325 325 325 325 325 326 326 326 325 325 327 327 328 328 326 325 322 323 319 315 310 313 315 314 316 317 317 318 317 316 313 316 317 317 317 317 316 316
327 327 325 324 323 323 324 324 324 325 325 324 324 324 324 325 326 327 328 324 322 321 319 316 311 311 314 316 314 315 318 316 317 317 316 312 315 313 317 318 318 318 317
327 327 326 322 323 322 323 323 324 324 324 323 322 323 323 326 326 326 326 325 326 321 318 314 312 314 317 318 316 316 318 317 316 316 316 316 315 314 314 314 317 318 318
326 327 326 324 322 322 322 323 324 324 322 322 322 323 324 324 325 325 323 325 323 323 320 315 315 317 319 319 318 318 318 317 316 316 315 319 319 319 316 315 314 314 316
325 326 325 323 321 322 322 323 323 322 323 322 322 322 323 325 325 323 321 322 323 323 322 319 316 318 320 321 319 318 318 317 317 316 316 318 318 318 318 316 316 316 316
324 326 323 322 322 321 322 322 322 320 322 321 322 322 323 325 325 324 322 321 322 322 322 320 318 319 319 320 319 317 317 317 317 317 316 316 318 318 319 318 317 316 318
322 326 324 323 322 321 322 322 322 320 321 321 321 322 323 323 324 324 323 322 322 322 322 321 321 321 321 321 320 318 317 316 316 316 316 316 316 317 320 320 319 315 315
327 325 323 322 321 321 322 322 322 322 322 321 320 320 321 322 322 323 322 321 320 321 323 322 322 323 322 321 320 318 318 317 318 318 319 319 320 320 320 320 318 319 315
326 325 323 322 322 321 321 322 322 322 323 322 321 321 320 321 321 321 321 320 320 319 321 322 322 322 319 320 320 319 319 319 317 317 318 319 319 319 318 318 320 320 319
320 322 324 322 322 321 321 322 323 323 323 323 322 321 320 321 321 321 321 320 319 319 319 319 319 321 321 320 319 320 319 318 317 317 318 318 318 318 319 320 319 319 319
320 324 324 323 323 322 321 321 321 323 323 323 322 321 321 320 320 319 319 319 319 319 318 317 317 317 317 318 318 317 317 317 318 319 319 318 319 319 318 320 319 320 320
320 321 324 324 323 323 322 321 321 321 322 323 323 322 320 320 319 319 318 318 318 318 317 317 317 316 315 315 315 315 316 315 316 318 318 319 318 317 319 320 320 319 319
319 317 321 321 324 324 323 322 322 321 320 321 323 322 321 319 319 319 319 318 317 317 317 317 317 316 316 315 315 316 316 318 318 318 318 319 319 319 318 318 316 316 314
318 317 317 320 320 320 324 323 323 322 321 320 321 322 322 321 320 318 318 317 316 316 316 316 316 316 316 315 315 315 316 316 316 316 315 314 314 314 314 313 311 308 307
318 317 316 317 317 316 316 317 323 323 322 321 320 320 322 322 321 320 318 318 317 317 317 315 315 315 315 315 315 315 316 315 315 314 311 306 302 302 304 305 303 302 300
317 315 314 315 313 311 311 312 314 320 322 322 321 320 320 321 321 320 319 319 318 317 317 317 317 317 316 316 316 316 315 315 314 311 305 299 294 293 293 292 292 291 292
314 312 312 312 309 308 308 309 314 318 323 322 322 322 321 320 321 320 319 319 319 318 318 318 317 317 316 316 316 316 316 313 308 302 297 294 291 290 290 289 287 285 284
309 309 308 309 305 304 304 305 307 309 312 323 322 322 322 321 321 320 319 319 319 318 318 318 318 316 313 312 314 315 310 300 293 292 292 291 288 286 286 286 283 282 280
303 303 304 304 301 300 302 304 304 304 304 308 315 322 322 322 321 321 319 318 318 317 313 310 307 304 304 300 301 305 299 290 287 287 286 286 285 285 286 285 282 280 279
299 299 301 300 298 298 300 302 301 299 300 303 308 316 322 322 321 320 319 315 310 305 299 295 292 292 291 289 290 290 289 285 283 283 283 283 283 282 282 281 280 278 278
295 295 298 297 296 296 297 298 296 296 297 299 300 304 308 313 312 315 306 301 297 292 288 287 286 286 286 285 284 284 283 283 283 282 281 280 280 280 279 279 278 278 277
293 294 295 296 295 293 293 294 293 294 294 294 294 294 296 296 297 295 294 293 294 290 288 286 285 284 284 284 285 286 286 283 282 281 280 279 277 276 276 276 275 274 272
291 291 292 293 293 292 291 291 291 291 291 290 290 290 290 290 290 290 290 289 288 287 286 285 284 284 283 283 283 282 282 281 279 279 278 277 276 275 273 272 271 271 270
289 289 290 290 290 290 289 289 288 288 287 286 286 285 285 285 285 285 285 285 285 285 284 284 284 283 283 283 282 281 280 279 278 277 276 275 273 272 271 271 270 270 269
287 287 288 288 288 287 286 286 286 286 286 285 284 284 284 284 284 283 283 284 285 284 284 283 283 283 282 282 281 280 278 278 278 276 273 272 271 271 270 270 269 268 268

GFSMW_925_thetae_108.txt.gz
Theta_e
314 325 325 327 329 330 331 332 330 330 327 326 326 326 328 327 327 326 326 325 325 324 326 325 324 323 325 319 320 319 317 317 318 317 316 316 317 317 318 317 317 317 316
319 324 324 325 327 327 328 329 329 328 326 325 324 324 326 326 326 327 328 325 325 324 324 323 321 323 320 317 317 317 316 317 318 317 316 314 316 317 317 317 317 316 316
313 323 323 323 324 325 326 327 327 325 325 325 324 324 325 326 326 326 326 325 325 324 324 321 320 318 318 316 315 316 317 316 317 317 317 312 316 314 317 316 316 316 316
313 320 324 322 324 324 323 326 324 324 325 325 325 325 324 325 325 326 326 326 325 322 321 322 322 317 315 314 314 316 317 316 316 317 317 316 315 314 314 315 317 317 317
311 318 324 324 324 322 323 323 322 324 325 324 323 322 322 323 325 325 326 323 322 321 321 321 318 314 313 313 314 315 317 317 317 317 316 315 315 315 314 313 313 317 318
311 318 323 324 322 321 321 321 321 323 324 322 322 321 320 324 324 325 324 320 319 318 319 318 314 314 314 313 313 315 317 317 317 317 316 317 318 318 317 315 315 314 315
313 321 323 322 322 321 321 320 321 322 322 322 321 321 322 323 324 324 323 322 321 320 317 316 315 315 315 314 313 314 316 317 317 317 316 317 319 319 319 318 317 316 317
321 321 323 321 322 321 320 321 321 321 321 321 320 321 322 324 324 323 323 322 322 321 318 316 315 315 318 319 317 316 316 316 316 316 316 315 317 317 317 318 318 316 316
319 321 323 321 322 321 320 320 320 320 319 321 320 321 322 323 324 324 322 322 322 322 322 322 318 312 310 317 319 318 317 316 316 316 316 316 316 317 317 319 319 317 317
319 322 322 320 321 321 321 320 319 319 319 319 319 320 321 322 323 323 322 321 322 322 322 320 318 317 316 315 319 320 319 317 317 318 317 318 318 319 319 319 319 318 318
319 324 323 321 320 320 320 320 320 319 320 320 320 320 320 320 321 322 322 321 322 322 321 321 320 319 317 317 318 319 318 318 317 317 317 317 317 317 318 318 317 318 318
317 321 323 322 321 320 321 320 320 320 320 322 320 320 320 320 320 321 321 321 321 321 321 320 320 320 320 320 320 319 319 318 318 318 317 317 317 318 318 318 318 317 317
317 317 321 324 323 322 321 320 320 322 322 322 321 320 320 319 319 320 320 320 320 320 320 320 319 320 320 320 320 319 320 320 320 320 319 318 317 318 318 318 317 317 318
318 316 317 319 320 323 322 321 321 320 321 322 322 321 320 319 319 319 319 319 319 319 318 318 318 318 318 319 319 319 319 319 319 318 318 318 318 318 318 318 318 317 316
319 317 316 314 315 315 319 322 321 321 321 320 322 322 322 321 319 318 318 318 318 318 319 318 317 318 317 317 317 317 317 317 316 317 317 317 317 317 316 316 315 312 311
318 316 315 313 312 311 311 312 315 321 321 320 320 321 322 321 321 320 318 317 317 316 317 317 317 317 316 317 317 316 315 315 316 316 313 310 309 307 307 307 307 305 304
315 313 313 312 309 307 307 308 310 313 320 320 320 320 321 322 321 320 320 318 317 317 315 315 316 316 317 316 316 315 315 315 315 313 309 304 298 297 297 295 296 295 294
311 309 308 308 304 302 302 304 307 309 313 320 321 320 320 320 321 320 319 318 318 317 317 317 316 315 315 315 315 315 315 314 312 308 304 301 294 292 294 293 289 287 286
304 304 303 302 300 299 301 303 304 304 306 306 313 321 321 320 320 320 319 319 318 317 317 317 317 316 316 316 315 315 312 306 299 295 293 292 289 286 287 287 283 280 279
299 300 301 299 298 298 298 301 301 300 300 300 302 309 315 321 320 320 319 319 319 318 316 314 310 308 308 309 309 308 304 294 289 288 287 287 287 285 286 284 281 278 277
296 296 298 297 295 295 296 298 296 296 296 298 300 303 309 317 321 320 319 318 315 310 303 300 296 297 297 294 296 299 297 290 286 284 284 283 283 283 284 283 281 278 277
295 295 296 296 294 293 293 294 293 293 294 294 296 297 300 306 315 318 314 309 305 297 293 293 289 289 289 290 289 289 289 285 284 282 281 281 281 280 279 278 277 278 278
292 291 292 293 292 291 291 291 290 290 291 291 291 292 293 296 299 299 296 295 295 291 288 287 286 285 285 285 288 288 285 284 282 281 279 279 278 277 276 276 277 274 273
289 289 291 291 290 289 289 289 288 288 288 287 287 288 288 289 290 292 292 291 290 289 288 286 285 284 284 283 283 282 282 281 279 277 277 276 276 276 274 272 272 271 271
288 289 289 288 287 286 286 286 287 287 286 286 285 285 285 285 285 285 286 286 286 287 286 285 284 283 283 282 281 280 278 277 276 276 276 274 273 272 271 270 270 270 269
286 286 285 285 285 284 284 284 284 285 285 285 284 284 284 284 284 284 284 284 284 285 285 284 284 282 281 280 279 278 277 278 278 276 274 272 271 271 270 269 269 268 268

GFSMW_925_thetae_111.txt.gz
Theta_e
316 317 325 326 326 328 329 330 331 329 330 330 328 328 329 327 327 327 327 327 327 325 326 327 326 325 323 322 320 319 319 319 320 319 319 319 318 319 319 319 319 319 319
315 317 324 325 326 327 329 329 330 328 328 327 327 327 327 327 326 326 327 326 327 327 326 326 325 324 320 320 319 319 319 319 319 320 319 321 319 318 318 319 318 318 318
317 318 319 325 325 327 326 327 328 327 327 327 325 324 325 326 326 326 327 326 326 325 325 326 324 324 321 318 318 318 319 319 319 320 320 321 323 319 318 318 318 318 317
321 318 317 325 325 326 324 326 326 326 325 324 324 323 325 326 326 326 326 327 327 325 324 325 324 323 322 319 318 319 320 319 319 319 317 320 319 322 322 318 318 318 318
323 318 317 322 325 326 323 324 327 325 325 325 324 322 325 325 324 325 326 326 325 324 324 323 320 320 320 319 317 318 319 319 319 319 318 317 318 318 319 321 319 317 318
324 326 321 323 325 325 322 325 326 323 324 323 323 324 323 323 324 324 325 325 324 322 321 320 320 319 319 317 316 317 318 319 319 319 318 318 318 319 321 321 319 319 318
324 326 326 326 325 322 321 323 324 321 323 323 324 324 322 322 324 323 324 322 320 317 316 316 316 316 315 315 316 316 317 318 318 319 317 317 317 318 321 322 320 320 318
325 326 325 325 324 321 321 322 321 322 321 323 323 323 322 323 324 323 323 321 320 317 316 315 316 316 315 314 314 316 317 317 317 318 317 317 317 319 320 320 320 322 320
326 326 325 325 324 322 321 321 321 322 320 322 322 321 321 322 323 324 323 322 320 318 316 316 317 316 314 313 314 315 316 317 317 317 316 316 317 317 317 318 319 320 320
326 326 325 324 323 321 320 321 321 321 321 320 320 320 320 322 324 324 323 322 321 318 317 317 316 315 314 315 314 314 315 316 316 316 316 316 316 316 318 319 319 319 318
324 324 324 322 322 321 320 320 320 320 320 319 319 319 320 321 323 323 322 322 322 320 318 316 316 317 314 318 318 317 316 316 316 316 316 316 317 317 317 318 318 318 317
320 320 320 323 321 321 320 320 320 320 320 319 319 320 319 319 321 322 322 322 322 321 320 318 317 315 314 313 315 318 319 319 318 317 317 317 317 317 317 317 317 318 318
317 317 316 317 317 322 321 321 321 321 320 320 321 320 320 319 320 320 321 321 321 321 321 321 319 317 317 316 315 316 317 318 318 318 318 318 318 317 317 317 317 317 318
318 318 317 314 313 313 321 321 322 321 322 322 322 320 319 320 320 320 320 320 321 320 320 321 320 320 319 318 317 317 317 318 317 317 318 318 317 317 317 317 317 318 318
319 318 317 313 311 309 310 312 317 321 322 323 322 321 320 320 319 320 320 320 320 320 319 319 320 320 319 319 319 318 318 318 318 318 318 317 318 317 317 317 317 317 315
316 315 315 311 308 306 306 307 309 311 317 321 322 321 320 320 319 318 319 320 320 319 318 318 318 318 318 319 319 319 319 318 318 318 316 315 316 315 315 315 314 312 310
312 310 310 307 304 303 302 304 307 309 312 320 320 321 321 321 320 319 317 317 318 319 319 318 318 317 317 317 317 318 318 317 316 316 314 310 307 307 305 302 303 302 302
308 306 306 302 300 300 301 303 305 305 308 308 315 319 320 321 320 320 318 318 317 316 317 317 317 317 317 316 316 316 315 315 314 313 311 307 301 298 299 297 295 292 290
303 302 302 299 298 298 299 302 301 301 302 301 303 306 309 319 320 320 320 318 317 316 315 316 316 316 316 316 316 315 313 310 307 304 302 299 295 290 291 292 285 281 279
298 299 299 297 296 295 297 298 297 297 297 297 298 299 304 308 317 320 319 319 318 317 316 316 316 316 316 315 314 314 311 303 298 294 291 292 290 287 287 287 282 278 276
297 296 297 296 294 293 295 295 294 293 294 294 294 295 297 300 307 319 319 318 317 315 311 308 305 307 312 312 313 312 308 302 291 287 286 285 284 282 282 282 281 279 278
294 293 294 294 292 291 292 292 291 291 291 291 291 291 293 296 301 311 312 311 309 303 297 295 293 293 292 293 296 298 299 290 286 284 283 281 281 281 282 280 277 277 277
292 291 292 291 290 289 289 290 289 289 289 289 288 288 291 293 295 297 297 296 295 291 289 288 286 286 287 287 287 287 285 283 282 281 281 279 278 277 277 277 278 277 273
290 290 290 290 288 287 287 287 287 287 287 287 287 286 287 288 289 291 291 291 290 289 287 286 285 285 284 283 282 282 281 281 279 278 276 276 276 275 274 275 273 272 272
288 288 287 287 286 285 285 284 285 286 286 286 286 285 285 285 285 285 287 288 289 289 286 285 284 284 282 281 279 278 276 275 276 276 275 274 273 272 272 272 271 271 271
286 286 285 285 285 283 283 283 283 285 285 285 285 284 285 285 285 285 284 284 285 285 285 284 283 281 280 279 278 277 277 278 279 277 274 273 272 272 271 271 270 270 270

GFSMW_925_thetae_114.txt.gz
Theta_e
321 321 320 321 328 328 329 332 334 336 332 333 332 332 332 330 330 329 327 328 328 328 328 328 327 327 327 327 325 325 325 325 325 324 324 323 323 322 319 319 319 319 319
320 320 319 323 329 330 331 332 333 336 332 332 334 332 330 328 328 328 327 327 327 327 327 327 328 327 326 327 324 325 325 325 324 324 324 324 323 322 321 319 319 319 318
318 320 321 322 327 330 332 332 333 335 334 334 332 332 331 329 329 330 328 327 327 327 326 326 327 326 325 325 323 324 324 325 324 324 323 324 325 322 321 320 318 318 318
323 324 324 323 325 330 331 331 333 333 333 334 332 331 330 329 329 329 329 327 328 327 326 326 325 324 324 323 321 323 324 324 324 324 322 321 321 324 324 321 320 319 318
327 329 327 324 323 329 330 329 331 332 333 333 332 330 328 328 328 329 329 329 328 326 326 325 325 324 323 322 321 322 323 324 324 324 323 323 323 322 321 322 320 320 320
328 328 328 324 325 330 328 328 330 330 329 330 330 328 327 327 328 328 328 328 327 326 326 325 324 323 322 321 321 321 322 323 324 323 322 322 322 322 321 320 320 321 320
329 330 329 329 328 330 325 327 330 328 325 327 327 327 327 326 325 325 326 326 325 324 323 324 322 322 320 319 320 320 322 322 323 323 322 322 321 320 319 319 320 320 320
330 330 330 330 329 326 325 325 328 325 325 327 326 326 326 325 325 327 326 325 323 323 323 320 319 320 320 320 319 319 321 322 323 323 322 322 321 322 321 320 323 325 322
331 331 330 329 328 325 323 324 325 325 325 327 327 326 326 325 325 327 326 323 322 321 318 316 317 317 318 318 318 318 320 321 322 322 322 322 322 323 323 323 322 321 323
329 329 328 327 325 324 323 323 323 325 324 326 325 325 324 325 326 326 323 323 321 319 316 316 317 317 316 316 317 318 319 320 321 321 321 321 320 319 320 317 321 320 320
328 327 324 324 324 322 322 322 322 324 324 323 324 323 323 324 325 326 324 323 321 318 317 317 317 317 316 316 316 317 317 318 319 318 318 319 317 317 317 316 317 318 319
324 324 323 318 316 322 322 321 321 322 323 323 322 322 323 324 324 322 322 322 321 318 317 318 317 317 316 315 316 317 317 318 318 318 318 318 318 319 317 317 317 318 319
321 320 319 318 313 312 320 321 321 322 322 321 320 321 322 322 323 324 322 322 321 319 317 317 317 316 317 316 315 316 316 317 318 317 314 317 319 319 319 319 317 318 317
321 320 319 316 312 310 309 311 319 322 322 321 321 322 323 324 323 324 323 321 321 321 319 317 316 315 315 316 316 316 315 317 317 316 316 318 318 318 317 317 317 316 317
321 319 317 314 310 308 308 308 309 312 320 322 323 323 323 323 322 322 323 323 321 320 321 320 318 317 317 317 316 315 316 317 317 317 318 318 317 318 318 317 317 317 316
318 317 315 312 308 305 306 306 307 309 312 319 323 323 321 321 322 322 322 322 322 322 322 321 320 319 319 318 317 317 316 316 318 317 317 317 317 317 317 317 317 316 315
314 313 311 308 307 304 303 305 305 305 308 310 319 323 321 321 320 322 321 321 321 321 321 319 318 318 320 320 319 318 317 317 317 317 317 314 312 313 313 313 313 311 310
311 310 308 306 304 304 303 303 302 302 303 304 305 308 316 322 321 321 321 320 321 320 320 320 319 318 318 318 318 319 318 318 316 315 314 312 308 307 308 304 301 297 296
307 306 304 302 301 301 301 301 300 300 299 298 300 301 302 309 316 322 321 321 320 320 319 318 318 317 318 317 317 316 316 315 314 312 310 309 307 304 301 300 291 283 280
303 304 302 300 299 298 300 297 297 296 296 296 296 298 298 301 306 313 321 321 321 320 318 316 316 316 316 317 316 315 314 311 305 300 298 299 299 291 290 294 286 279 277
300 301 300 298 296 296 297 297 294 293 293 293 294 294 295 297 300 308 316 320 320 317 315 313 310 311 310 308 307 310 312 308 297 291 288 286 286 284 283 284 281 278 277
299 298 298 296 294 293 293 294 293 291 291 291 291 292 292 293 296 299 308 315 313 306 301 299 297 297 298 299 298 300 299 293 290 285 283 282 281 280 282 281 277 277 277
296 296 296 295 292 291 290 291 290 290 290 290 290 290 290 290 291 294 295 297 299 295 291 290 288 287 288 288 292 293 290 287 284 282 282 280 279 278 277 276 276 276 276
294 293 293 292 291 289 288 288 288 289 289 289 288 288 288 288 288 290 291 292 291 289 288 287 285 284 283 283 283 282 282 282 280 278 277 276 276 276 275 275 275 275 276
292 290 290 289 288 287 286 286 287 288 288 287 287 287 287 286 286 285 286 287 288 289 287 285 284 283 280 280 281 280 278 277 276 277 276 275 275 274 274 273 273 273 273
289 288 287 287 286 285 285 284 285 287 287 286 286 286 286 285 285 284 284 283 284 284 284 284 284 281 280 279 278 277 277 276 277 276 275 275 274 274 274 273 273 273 272

GFSMW_925_thetae_117.txt.gz
Theta_e
324 323 323 322 322 323 327 328 331 337 341 340 340 337 337 334 334 334 334 334 332 332 333 331 331 330 331 329 327 327 326 325 326 325 325 324 322 323 320 320 320 321 321
323 323 323 322 323 323 329 330 332 336 339 339 337 336 337 335 335 333 331 331 331 332 331 331 330 329 329 328 327 327 325 325 326 325 324 325 323 323 320 319 320 320 320
321 321 321 321 321 326 330 331 333 335 338 335 335 336 336 334 332 331 331 331 330 328 329 329 329 328 328 327 326 327 324 325 324 325 325 326 325 323 321 319 319 320 320
319 319 320 322 322 325 330 332 332 334 338 334 336 337 335 333 332 331 331 330 330 329 327 328 327 326 327 327 326 327 325 325 325 325 324 323 322 326 325 321 320 320 320
323 324 324 324 323 324 330 333 333 334 337 336 336 336 336 334 332 330 331 331 330 329 327 327 327 326 326 327 326 325 326 325 326 325 325 324 323 323 324 325 321 319 319
326 327 327 329 326 331 333 334 333 335 336 336 336 335 335 333 331 330 330 331 330 331 329 327 327 326 326 325 325 325 325 326 325 326 325 325 325 324 325 325 323 321 319
328 329 329 330 327 331 333 330 332 334 334 335 336 335 334 332 331 330 330 330 330 330 329 327 326 325 325 324 323 324 324 325 324 324 325 325 324 323 323 322 323 323 320
330 330 331 332 331 331 331 327 330 332 330 333 335 333 332 331 329 329 328 328 329 328 326 325 325 325 324 323 323 323 323 324 324 323 324 324 324 322 321 320 323 324 322
331 331 331 331 330 329 327 326 329 329 327 330 332 331 330 329 328 327 328 329 328 326 325 322 323 323 323 322 321 322 323 323 323 323 323 323 323 322 321 321 322 322 325
330 330 330 329 327 325 325 325 326 327 327 330 330 330 329 328 327 327 329 328 326 324 322 322 319 319 320 320 320 321 322 323 323 322 323 322 323 323 323 325 323 323 322
329 328 325 323 322 324 324 324 324 325 326 329 329 329 328 327 327 327 328 326 324 322 320 319 317 317 318 318 319 319 321 322 322 323 323 323 322 323 323 323 321 320 320
326 325 323 321 319 318 322 323 323 324 325 325 326 327 326 326 327 327 327 325 323 321 320 318 317 317 317 318 318 319 321 322 322 323 323 323 323 323 321 321 318 317 316
324 323 321 319 316 313 312 313 321 323 323 324 324 324 324 325 326 326 325 323 322 321 318 318 317 317 317 317 318 319 320 321 322 322 322 322 322 321 321 318 318 317 315
323 321 319 316 314 311 310 310 311 313 322 323 323 323 323 323 324 326 325 324 322 320 318 318 318 317 317 317 317 318 318 320 320 321 321 321 320 319 320 319 320 319 319
321 319 318 316 313 309 308 308 308 309 311 317 322 323 324 324 325 325 325 324 322 320 319 318 317 317 317 317 317 317 318 319 319 319 319 318 316 317 319 320 320 319 317
320 317 315 314 313 309 306 307 306 307 307 309 313 324 323 324 325 325 325 324 324 322 320 318 317 316 316 316 317 317 317 316 315 317 317 316 316 317 318 318 317 317 317
317 314 313 311 310 310 306 304 304 304 304 304 304 307 321 322 323 324 324 324 324 324 322 321 319 318 317 317 315 316 316 316 317 317 317 316 316 317 317 317 317 316 316
313 312 310 308 307 307 308 305 301 301 301 300 300 300 303 311 319 321 323 323 323 323 322 323 321 319 319 319 319 318 316 316 316 317 317 316 315 313 314 311 308 303 301
310 309 306 305 304 304 304 304 301 298 298 297 297 297 299 301 307 315 322 322 322 322 322 322 321 321 320 319 319 319 315 317 316 315 314 314 312 308 306 305 297 289 284
307 306 305 303 302 301 302 301 299 297 295 294 294 295 296 297 299 304 312 320 322 322 321 320 319 319 319 318 317 317 316 312 308 304 303 302 303 296 296 298 291 282 279
303 304 302 300 299 298 299 299 297 295 293 292 293 293 293 294 296 299 305 313 319 321 317 313 310 311 312 314 315 313 313 308 298 293 291 290 291 288 288 290 288 283 280
302 301 301 298 296 295 296 296 295 293 292 291 291 292 291 292 292 294 299 307 313 310 301 299 297 297 299 302 303 306 308 302 296 287 285 283 282 281 284 284 278 277 279
299 298 298 297 295 293 293 293 292 292 291 290 290 289 290 289 290 292 293 296 297 296 292 290 288 286 288 289 294 297 296 293 288 284 282 280 279 278 278 277 276 277 277
296 296 295 294 293 292 291 291 291 291 290 289 289 288 287 287 288 289 289 290 291 290 288 287 286 285 284 284 283 283 283 283 281 279 277 277 277 277 277 277 277 277 277
294 293 292 291 290 289 289 288 289 290 289 288 288 287 286 286 285 284 285 286 288 288 286 285 284 282 280 281 283 283 280 278 278 278 277 277 276 275 275 275 276 276 275
290 289 289 288 287 287 286 286 286 288 288 287 286 286 286 285 284 284 283 283 283 285 285 285 284 280 280 279 279 278 277 277 277 277 276 276 276 276 276 276 275 275 275

GFSMW_925_thetae_123.txt.gz
Theta_e
318 320 320 320 319 319 320 339 343 344 346 345 343 342 341 340 340 340 339 338 340 339 336 335 334 332 331 331 330 328 326 326 326 327 326 325 322 322 322 321 320 319 320
318 319 319 321 321 321 322 331 341 344 345 345 344 342 340 341 340 340 337 336 337 337 336 334 334 332 331 331 330 328 327 327 326 326 325 324 323 321 322 321 321 320 320
312 315 319 321 323 323 326 332 338 342 344 345 343 342 340 339 338 339 336 335 334 334 336 334 333 332 332 330 330 327 327 326 326 326 325 323 324 322 321 321 321 320 321
312 313 317 317 321 324 327 329 334 339 343 344 343 341 339 336 336 335 335 333 333 333 333 333 333 332 332 330 329 328 326 326 325 325 325 323 323 322 322 320 321 321 320
312 311 314 316 320 321 328 328 329 337 340 343 343 340 338 337 336 335 334 333 332 331 332 331 332 331 331 330 329 328 327 326 325 325 325 323 322 321 321 320 319 320 320
313 312 316 319 327 324 329 330 329 331 339 341 341 339 338 336 335 334 333 332 331 330 329 329 331 329 329 329 328 328 327 326 324 324 325 323 322 320 320 319 319 320 321
319 323 327 328 332 331 332 333 333 337 339 339 339 338 338 336 335 333 333 331 331 331 328 327 328 328 328 328 327 326 326 326 324 322 324 324 323 320 320 320 318 319 320
331 330 329 328 328 330 330 331 331 330 336 336 337 337 337 335 336 334 333 332 331 330 328 327 327 326 326 326 326 326 327 326 326 323 323 324 323 322 321 320 319 318 318
329 328 326 324 324 324 326 327 326 328 331 336 336 336 336 336 337 335 332 333 332 330 328 328 328 327 325 325 325 326 326 326 325 324 323 324 323 323 322 321 320 319 320
326 323 323 322 321 321 324 324 325 327 329 331 333 335 335 335 333 332 331 331 331 329 328 329 329 328 327 326 326 325 326 326 326 325 324 324 323 323 323 322 321 320 320
325 323 320 318 317 317 319 321 323 325 327 328 328 332 332 332 331 330 329 328 329 329 329 327 326 325 325 325 325 325 325 325 325 325 324 324 324 324 323 323 322 321 320
322 319 317 314 313 312 312 314 316 320 324 326 327 328 330 330 330 328 328 328 327 327 326 324 322 321 321 321 323 324 324 324 324 325 325 324 323 323 323 323 321 320 320
317 316 314 313 312 310 310 310 310 313 318 324 325 326 327 329 328 327 326 328 327 325 324 321 321 320 319 318 319 320 322 322 323 324 324 324 323 323 322 322 322 321 321
318 315 313 311 309 308 307 307 307 308 312 317 321 322 323 325 326 326 326 328 326 324 324 321 320 319 317 317 317 318 320 321 323 323 324 323 323 321 320 322 322 320 320
317 315 312 310 309 307 305 304 304 304 306 309 311 312 318 322 323 325 326 326 324 323 322 321 320 319 318 317 317 318 319 320 322 323 323 322 322 321 319 321 321 319 319
314 312 312 311 309 306 304 303 301 301 302 303 304 306 311 316 321 324 325 325 323 322 321 321 319 318 318 317 317 318 319 319 321 321 322 322 321 320 319 319 320 320 317
309 308 307 306 307 306 303 301 299 299 298 298 299 301 304 308 310 317 324 325 324 322 321 320 319 318 318 317 317 317 318 319 321 320 319 321 321 321 322 321 320 319 318
306 305 303 302 301 303 302 299 297 297 296 296 296 296 298 301 306 309 314 317 323 323 321 320 319 318 318 317 317 317 318 318 319 319 319 317 318 320 319 319 317 315 313
303 301 299 298 297 299 298 296 295 295 294 294 294 294 295 296 299 304 305 309 314 321 323 321 320 319 318 318 317 317 317 317 316 315 315 317 317 317 318 315 308 301 296
300 298 296 295 295 296 295 294 294 294 293 293 292 292 292 293 295 298 301 303 310 313 321 321 319 319 318 318 317 316 316 315 312 311 312 311 313 313 313 313 310 298 290
299 296 294 293 293 293 293 292 292 292 291 291 290 290 290 291 292 294 298 300 305 308 312 315 312 312 313 317 318 315 315 313 305 302 300 298 302 302 301 303 298 295 289
295 295 293 292 290 290 291 291 291 290 290 289 288 287 288 289 291 291 294 297 297 297 295 296 299 298 300 304 310 311 311 306 304 293 290 288 291 293 295 294 288 287 287
292 291 291 289 288 288 288 289 290 288 288 287 287 286 285 286 288 289 290 292 292 292 290 288 287 287 288 289 293 298 301 298 293 288 285 284 286 286 284 283 284 284 283
288 288 288 287 287 286 287 287 288 287 287 286 286 285 284 284 284 285 285 288 291 291 290 289 286 284 284 284 284 284 284 285 282 281 281 281 281 280 279 279 280 280 279
286 286 286 285 285 285 286 286 287 287 286 285 285 284 283 283 283 283 283 283 283 289 288 285 285 283 282 282 283 284 281 280 280 281 279 278 278 278 277 277 277 278 278
284 284 283 284 284 284 284 285 286 286 285 285 284 284 283 283 282 282 282 282 282 282 283 283 283 282 281 281 280 280 279 279 278 278 278 277 277 277 277 277 277 277 277

GFSMW_925_thetae_126.txt.gz
Theta_e
316 317 318 318 318 318 317 331 341 343 344 343 342 341 341 341 341 341 342 341 340 339 337 336 334 333 333 331 330 330 329 327 327 327 327 324 324 324 325 324 323 322 321
310 311 316 317 318 317 316 327 339 341 344 343 343 342 341 341 342 341 341 341 340 339 337 335 334 332 332 331 331 329 327 327 327 326 326 325 322 321 321 322 322 321 320
307 310 311 315 318 317 316 320 336 341 344 343 342 342 340 339 339 340 340 339 337 338 338 335 334 334 332 331 330 329 327 326 326 326 326 324 325 321 320 320 321 320 319
309 310 311 313 318 319 317 320 334 341 343 343 341 341 340 338 338 338 339 339 336 335 337 336 335 333 332 330 329 329 327 326 325 326 326 325 323 322 320 320 320 320 320
307 309 310 311 316 319 323 327 336 341 343 343 341 340 339 339 338 336 337 337 335 335 334 334 335 333 332 331 329 328 327 326 325 325 325 324 322 322 321 321 319 319 320
308 309 309 311 317 317 323 329 337 341 341 342 341 340 339 337 335 335 335 334 334 334 333 333 333 332 331 331 330 328 328 326 326 325 325 325 323 321 321 319 320 320 319
313 315 320 327 326 327 328 329 334 337 340 341 340 340 338 336 336 335 334 333 332 332 332 332 332 331 330 330 330 329 328 327 326 325 325 325 324 322 321 320 319 319 318
326 325 325 325 325 325 325 329 334 336 338 339 338 338 337 337 336 335 333 333 332 331 331 331 330 328 329 329 329 329 328 327 326 325 324 325 324 322 321 320 319 318 317
324 323 322 321 321 322 322 325 327 331 335 336 336 335 336 336 335 334 333 332 331 331 331 330 328 327 326 327 328 328 327 327 326 325 324 324 324 323 320 320 319 319 320
323 321 319 318 317 317 319 323 325 327 329 331 334 335 335 334 335 335 334 332 332 331 331 329 327 327 327 326 326 327 327 326 326 325 324 323 324 323 322 321 319 319 319
321 319 317 315 314 314 315 316 319 322 325 327 329 332 333 335 335 335 334 333 332 332 330 329 327 327 327 327 326 325 325 326 326 326 325 324 324 323 323 322 320 319 319
317 316 314 313 312 311 311 311 313 316 320 324 326 328 330 330 330 330 329 330 331 331 330 328 328 327 327 326 326 325 325 325 325 325 325 324 323 323 323 322 322 320 319
315 313 311 310 308 307 307 307 307 310 313 321 324 325 327 330 329 328 328 328 329 329 328 328 326 325 324 322 323 323 323 324 324 324 325 325 324 324 323 322 323 321 319
314 312 310 308 306 305 304 304 304 305 307 310 315 318 320 324 326 327 327 327 327 326 326 324 323 322 321 320 320 319 319 319 320 321 323 324 324 324 323 322 322 322 319
314 312 310 308 306 304 303 301 300 301 303 303 304 306 312 317 324 326 326 327 327 326 325 324 322 321 320 319 318 317 317 317 319 320 321 322 324 324 323 322 320 319 318
306 309 309 307 305 303 301 299 298 298 299 299 299 300 304 310 315 320 324 326 326 325 323 322 321 321 320 319 318 317 317 317 318 319 321 322 323 323 321 321 321 320 318
305 303 301 301 303 300 298 297 297 297 297 297 296 298 299 301 305 310 315 324 325 323 321 321 321 320 319 318 317 317 317 318 319 319 320 321 320 318 318 320 321 320 320
302 300 298 296 299 297 295 295 295 295 295 295 294 295 296 297 299 303 304 311 319 322 322 320 319 319 319 318 318 317 317 317 318 317 317 316 317 320 319 319 317 314 315
297 295 294 294 295 294 293 293 293 293 293 292 292 292 293 294 295 296 298 303 308 312 320 321 320 320 319 319 318 317 316 317 317 316 316 315 312 309 317 317 313 305 301
294 293 292 291 292 292 292 291 291 291 291 291 290 290 291 292 293 294 296 298 302 308 313 319 319 319 318 318 317 316 316 315 315 313 312 310 315 316 316 315 311 301 294
293 291 290 289 288 289 291 291 290 290 289 289 288 288 289 290 292 292 294 296 298 302 305 300 307 310 311 315 318 316 315 315 310 309 306 303 305 306 309 311 307 303 294
290 289 288 287 287 288 289 290 289 288 288 287 286 286 286 287 290 291 292 293 294 294 294 294 291 294 299 300 310 309 313 311 310 300 296 294 296 298 299 299 297 292 290
287 287 286 286 286 287 287 288 288 287 287 286 285 284 284 285 286 287 288 290 291 291 291 289 286 286 288 288 292 296 303 300 297 291 288 288 289 289 287 286 287 289 288
286 285 285 285 286 286 286 287 287 286 286 285 284 284 283 283 284 284 284 285 288 289 289 289 287 286 286 287 287 285 285 286 284 282 282 282 282 282 280 281 283 283 283
284 284 284 284 284 285 285 286 286 286 285 284 284 283 283 283 283 283 283 283 283 286 285 284 285 284 283 282 285 287 286 283 283 282 281 280 279 279 279 279 279 280 280
283 282 282 282 282 283 284 285 285 285 284 284 283 283 282 282 282 282 282 283 282 282 282 282 282 282 282 281 282 281 280 280 281 280 279 278 278 278 277 277 278 278 278

GFSMW_925_thetae_132.txt.gz
Theta_e
303 303 303 304 305 306 310 313 329 337 339 338 337 335 334 334 335 335 337 338 339 336 335 334 334 332 331 332 330 330 328 327 328 327 325 325 326 327 327 325 326 327 327
303 303 303 304 305 306 309 312 324 337 340 340 339 338 336 335 335 335 335 337 338 337 335 335 335 334 331 332 331 330 327 326 327 326 325 325 323 324 325 326 326 327 327
303 303 303 303 304 305 307 309 313 332 339 340 340 339 338 338 336 335 336 337 336 335 335 336 335 334 332 331 331 330 328 326 326 326 325 325 327 322 323 324 325 326 326
303 303 303 303 303 305 306 308 310 317 335 340 340 339 339 338 337 336 336 336 337 335 336 337 336 335 333 331 330 331 328 326 326 326 325 325 323 321 322 321 323 324 325
303 303 302 303 304 305 305 307 310 313 328 339 339 339 339 338 338 337 337 335 336 336 338 337 337 336 335 333 332 330 329 328 327 327 326 325 322 322 320 322 320 321 323
303 302 303 303 303 305 306 310 313 313 327 338 340 339 338 338 337 338 337 335 334 336 338 338 337 336 335 333 332 332 331 329 328 327 326 326 325 322 320 320 322 322 321
314 310 309 304 300 307 311 314 314 317 325 337 340 339 338 338 337 338 337 334 335 336 336 337 335 335 335 333 332 331 330 329 328 327 327 326 325 325 323 321 321 321 320
320 320 319 320 318 322 324 323 325 324 328 338 340 339 338 337 337 337 337 336 335 336 336 336 334 334 333 333 333 332 331 330 329 327 327 326 325 325 324 323 321 320 319
318 316 315 315 317 318 321 330 333 336 338 340 340 339 339 337 336 336 336 336 335 335 335 336 335 334 333 333 333 332 331 330 329 327 326 326 326 325 325 324 322 321 321
313 313 312 311 311 312 313 317 324 326 332 337 338 338 337 337 335 335 334 333 334 335 334 334 333 333 333 333 332 331 330 329 328 327 326 326 326 326 325 324 322 321 322
309 309 308 309 306 306 307 308 312 318 319 325 331 333 334 333 333 333 333 333 334 334 334 333 334 332 332 331 331 330 329 329 328 327 326 326 326 325 324 324 323 321 321
303 303 303 305 304 302 302 302 304 307 311 314 322 328 331 331 331 333 333 332 333 333 333 331 332 332 330 330 330 329 328 327 327 327 326 326 326 325 324 324 323 322 321
301 300 298 299 300 300 300 300 300 301 303 310 311 314 321 326 327 331 331 330 331 331 330 330 330 330 330 329 327 326 325 325 325 326 326 323 324 323 323 324 324 322 321
297 297 296 296 296 297 297 298 298 298 299 301 303 304 307 311 316 325 327 329 330 330 330 329 329 330 329 328 327 326 325 325 326 325 325 325 325 324 324 324 323 323 321
297 295 295 294 294 294 294 295 296 296 296 297 298 299 302 307 312 318 322 325 327 328 327 327 327 329 328 327 326 325 325 325 324 323 322 321 320 320 320 320 321 323 323
295 294 294 293 293 293 292 292 294 294 294 294 294 296 298 300 303 306 312 319 323 325 327 327 328 327 327 326 323 321 321 320 320 319 318 317 317 317 318 319 319 319 322
294 292 292 291 291 292 291 291 291 292 292 292 292 293 294 296 297 299 303 307 313 319 322 324 326 325 323 322 320 320 320 319 318 317 316 316 317 318 318 318 318 319 320
291 290 289 289 289 290 291 290 290 290 290 290 290 290 291 293 295 296 297 301 306 309 313 319 322 322 321 320 320 319 319 317 316 316 316 317 317 317 316 314 314 316 316
290 289 287 288 288 289 290 289 289 289 288 288 288 288 289 290 291 293 294 296 299 302 305 308 315 318 318 318 318 318 317 316 316 316 315 315 315 315 313 308 307 304 303
288 287 287 287 287 287 289 288 288 288 287 287 286 286 287 288 288 290 292 294 295 296 299 300 301 304 309 314 317 317 317 315 313 312 312 313 313 312 306 305 301 301 300
286 286 286 287 286 287 288 288 287 286 286 286 285 285 286 286 287 288 290 292 293 294 295 295 295 296 297 302 311 316 314 315 310 307 305 305 305 306 303 303 303 302 297
285 285 285 286 285 286 286 287 286 286 286 285 284 284 284 285 285 287 289 290 290 291 291 291 291 291 291 293 299 304 308 309 308 300 298 296 296 299 301 301 298 299 299
283 283 283 284 284 285 285 286 285 285 285 285 284 283 284 284 284 284 285 286 287 287 287 287 286 286 287 289 291 291 297 298 298 293 289 289 290 294 295 292 293 295 294
282 282 282 282 283 283 284 284 284 285 284 283 283 283 283 283 283 283 283 283 284 284 284 284 284 284 285 286 286 288 288 291 288 286 287 287 288 289 287 288 290 289 289
282 281 281 281 281 282 283 283 283 283 284 283 282 282 282 282 283 283 283 283 283 283 283 283 283 283 283 283 283 285 286 285 284 284 285 283 283 282 283 282 282 282 283
280 280 280 280 281 282 282 282 281 282 282 283 282 281 281 282 282 282 281 281 282 282 282 282 282 282 282 282 282 282 283 284 284 283 280 279 279 279 279 279 279 279 279

GFSMW_925_thetae_135.txt.gz
Theta_e
309 307 306 305 304 304 304 305 308 313 335 336 335 334 333 333 333 333 333 335 335 334 332 331 330 330 331 330 330 330 330 329 329 327 326 327 326 328 328 328 326 325 325
313 314 312 306 306 304 304 305 307 310 331 334 336 335 334 333 333 333 333 332 334 334 333 332 330 331 330 330 329 329 329 328 328 328 327 327 325 325 325 326 326 324 325
313 314 315 311 306 305 304 305 306 309 326 334 336 336 335 335 334 333 332 333 334 334 335 333 332 331 331 330 329 330 330 328 327 328 328 328 329 326 324 324 326 326 326
313 316 317 317 307 306 305 304 304 307 320 335 337 336 337 337 335 334 333 333 332 333 334 335 332 332 331 331 331 330 331 329 327 328 328 327 327 329 326 322 323 326 325
315 315 319 314 307 306 305 304 304 306 313 335 337 338 338 338 338 336 335 334 332 332 334 335 333 332 332 331 330 330 330 329 329 327 327 327 325 323 325 326 323 323 324
315 317 315 318 311 305 305 304 304 307 310 332 338 339 339 339 338 337 336 335 333 333 332 334 333 333 333 332 332 332 330 330 329 329 328 328 327 326 324 325 325 324 323
312 314 311 312 315 319 305 305 305 306 312 329 337 339 339 339 338 338 337 335 335 334 333 333 335 334 334 334 333 331 330 330 330 330 329 329 329 328 325 326 325 326 324
306 309 306 308 308 312 321 308 308 310 317 328 336 338 339 338 338 338 338 337 335 335 335 333 336 335 334 333 333 333 331 330 330 329 329 329 329 328 327 326 326 324 321
304 303 301 301 305 305 309 321 325 318 321 330 337 338 339 338 338 338 338 336 335 335 335 335 333 336 334 333 334 332 331 329 329 328 328 327 328 329 328 327 326 326 325
301 299 299 298 299 302 304 306 314 320 328 334 338 339 339 338 337 337 338 337 335 335 335 334 333 335 334 333 332 331 331 329 329 328 328 327 327 326 327 327 326 326 324
297 298 296 296 296 298 300 301 305 310 314 320 330 336 336 336 336 336 337 336 335 334 333 333 333 332 333 332 332 331 330 330 329 329 328 327 327 326 326 325 325 324 323
296 295 295 294 294 295 297 298 299 303 305 309 313 321 328 330 333 332 332 333 333 332 332 332 332 332 332 332 332 331 330 330 328 328 328 327 326 325 325 325 325 324 323
296 294 293 293 292 293 294 296 297 298 300 303 304 307 314 318 321 327 330 331 331 331 331 331 330 331 332 331 331 330 330 329 329 327 327 326 326 325 325 325 324 324 323
295 293 293 292 292 292 292 293 294 295 296 297 298 300 304 309 311 318 324 328 329 328 328 330 329 329 329 330 330 330 330 327 326 325 325 326 325 325 324 324 323 323 323
294 292 292 291 291 291 291 291 292 293 293 294 295 296 298 302 306 311 316 324 326 328 328 328 328 327 327 328 328 327 326 325 325 325 325 325 324 324 324 324 323 323 323
293 292 290 290 291 291 291 291 291 291 291 292 292 293 295 297 298 302 309 314 320 323 326 326 326 325 326 328 327 327 325 325 324 324 324 323 322 320 318 317 317 318 318
292 291 290 290 289 289 290 290 290 290 291 291 290 290 292 293 294 297 301 305 308 313 319 322 324 325 325 324 325 325 323 321 320 320 320 318 317 316 316 317 317 317 317
290 289 288 288 288 288 289 289 289 289 290 289 289 289 290 291 291 293 295 298 302 305 309 314 317 320 319 320 322 321 320 320 319 318 317 316 316 316 317 316 315 313 312
288 288 287 288 288 288 288 289 288 289 288 288 288 288 288 290 290 291 292 294 296 298 301 302 307 309 312 317 318 318 319 318 317 316 316 316 315 316 315 312 310 308 308
287 286 287 287 287 287 288 288 288 287 287 287 286 287 287 288 288 289 289 291 293 293 296 297 298 300 302 305 310 316 317 317 315 314 313 314 315 315 313 310 306 304 302
285 285 285 286 286 286 287 287 287 286 286 286 285 286 286 286 286 288 288 290 291 292 292 291 292 293 296 298 303 309 311 315 313 310 308 307 308 308 307 304 304 301 299
284 284 284 285 285 285 286 286 285 286 285 285 285 285 285 285 285 286 287 287 288 289 288 288 288 288 289 291 294 300 304 305 307 300 297 296 296 298 297 299 301 299 297
283 283 283 284 284 284 284 284 284 285 285 284 284 284 285 285 284 284 284 285 285 286 286 286 286 285 286 288 289 291 294 298 295 289 287 288 290 291 293 291 292 294 293
283 283 283 283 283 283 283 283 283 284 284 284 284 284 284 284 283 283 284 284 284 284 284 284 284 284 284 285 287 288 288 290 290 290 289 289 288 289 288 289 289 289 288
281 282 282 282 282 282 282 282 282 283 284 284 283 283 283 283 283 282 281 282 282 283 283 283 283 283 283 283 283 285 286 287 288 287 286 286 284 283 283 284 284 282 282
280 280 280 281 281 282 282 282 282 283 282 283 283 282 282 282 282 282 282 280 280 280 280 281 282 282 282 282 282 282 283 284 285 283 281 280 280 279 279 279 279 280 280